[[{"header":{"parameterUnit":"m.s-1","parameterCategory":1,"la1":31.0,"la2":29.5877,"lo1":-88.7671,"lo2":-86.6584,"dy":0.0162,"dx":0.0185,"nx":115,"ny":88,"refTime":"2024-08-22T06:00:00:Z","depth":0,"parameterNumber":2,"parameterNumberName":"U-component_of_WINDS"},"data":[0.0,0.0,0.0,0.0,0.0,0.0,0.0,0.0,0.0,0.0,0.0,0.0,0.0,0.0,0.0,0.0,0.0,0.0,0.0,0.0,0.0,0.0,0.0,0.0,0.0,0.0,0.0,0.0,0.0,0.0,0.0,0.0,0.0,0.0,0.0,0.0,0.0,0.0,0.0,0.0,0.0,0.0,0.0,0.0,0.0,0.0,0.0,0.0,0.0,0.0,0.0,0.0,0.0,0.0,0.0,0.0,0.0,0.0,0.0,0.0,0.0,0.0,0.0,0.0,0.0,0.0,0.0,0.0,0.0,0.0,0.0,0.0,0.0,0.0,0.0,0.0,0.0,0.0,0.0,0.0,0.0,0.0,0.0,0.0,0.0,0.0,0.0,0.0,0.0,0.0,0.0,0.0,0.0,0.0,0.0,0.0,0.0,0.0,0.0,0.0,0.0,0.0,0.0,0.0,0.0,0.0,0.0,0.0,0.0,0.0,0.0,0.0,0.0,0.0,0.0,0.0,0.0,0.0,0.0,0.0,0.0,0.0,0.0,0.0,0.0,0.0,0.0,0.0,0.0,0.0,0.0,0.0,0.0,0.0,0.0,0.0,0.0,0.0,0.0,0.0,0.0,0.0,0.0,0.0,0.0,0.0,0.0,0.0,0.0,0.0,0.0,0.0,0.0,0.0,0.0,0.0,0.0,0.0,0.0,0.0,0.0,0.0,0.0,0.0,0.0,0.0,0.0,0.0,0.0,0.0,0.0,0.0,0.0,0.0,0.0,0.0,0.0,0.0,0.0,0.0,0.0,0.0,0.0,0.0,0.0,0.0,0.0,0.0,0.0,0.0,0.0,0.0,0.0,0.0,0.0,0.0,0.0,0.0,0.0,0.0,0.0,0.0,0.0,0.0,0.0,0.0,0.0,0.0,0.0,0.0,0.0,0.0,0.0,0.0,0.0,0.0,0.0,0.0,0.0,0.0,0.0,0.0,0.0,0.0,0.0,0.0,0.0,0.0,0.0,0.0,0.0,0.0,0.0,0.0,0.0,0.0,0.0,0.0,0.0,0.0,0.0,0.0,0.0,0.0,0.0,0.0,0.0,0.0,0.0,0.0,0.0,0.0,0.0,0.0,0.0,0.0,0.0,0.0,0.0,0.0,0.0,0.0,0.0,0.0,0.0,0.0,0.0,0.0,0.0,0.0,0.0,0.0,0.0,0.0,0.0,0.0,0.0,0.0,0.0,0.0,0.0,0.0,0.0,0.0,0.0,0.0,0.0,0.0,0.0,0.0,0.0,0.0,0.0,0.0,0.0,0.0,0.0,0.0,0.0,0.0,0.0,0.0,0.0,0.0,0.0,0.0,0.0,0.0,0.0,0.0,0.0,0.0,0.0,0.0,0.0,0.0,0.0,0.0,0.0,0.0,0.0,0.0,0.0,0.0,0.0,0.0,0.0,0.0,0.0,0.0,0.0,0.0,0.0,0.0,0.0,0.0,0.0,0.0,0.0,0.0,0.0,0.0,0.0,0.0,0.0,0.0,0.0,0.0,0.0,0.0,0.0,0.0,0.0,0.0,0.0,0.0,0.0,0.0,0.0,0.0,0.0,0.0,0.0,0.0,0.0,0.0,0.0,0.0,0.0,0.0,0.0,0.0,0.0,0.0,0.0,0.0,0.0,0.0,0.0,0.0,0.0,0.0,0.0,0.0,0.0,0.0,0.0,0.0,0.0,0.0,0.0,0.0,0.0,0.0,0.0,0.0,0.0,0.0,0.0,0.0,0.0,0.0,0.0,0.0,0.0,0.0,0.0,0.0,0.0,0.0,0.0,0.0,0.0,0.0,0.0,0.0,0.0,0.0,0.0,0.0,0.0,0.0,0.0,0.0,0.0,0.0,0.0,0.0,0.0,0.0,0.0,0.0,0.0,0.0,0.0,0.0,0.0,0.0,0.0,0.0,0.0,0.0,0.0,0.0,0.0,0.0,0.0,0.0,0.0,0.0,0.0,0.0,0.0,0.0,0.0,0.0,0.0,0.0,0.0,0.0,0.0,0.0,0.0,0.0,0.0,0.0,0.0,0.0,0.0,0.0,0.0,0.0,0.0,0.0,0.0,0.0,0.0,0.0,0.0,0.0,0.0,0.0,0.0,0.0,0.0,0.0,0.0,0.0,0.0,0.0,0.0,0.0,0.0,0.0,0.0,0.0,0.0,0.0,0.0,0.0,0.0,0.0,0.0,0.0,0.0,0.0,0.0,0.0,0.0,0.0,0.0,0.0,0.0,0.0,0.0,0.0,0.0,0.0,0.0,0.0,0.0,0.0,0.0,0.0,0.0,0.0,0.0,0.0,0.0,0.0,0.0,0.0,0.0,0.0,0.0,0.0,0.0,0.0,0.0,0.0,0.0,0.0,0.0,0.0,0.0,0.0,0.0,0.0,0.0,0.0,0.0,0.0,0.0,0.0,0.0,0.0,0.0,0.0,0.0,0.0,0.0,0.0,0.0,0.0,0.0,0.0,0.0,0.0,0.0,0.0,0.0,0.0,0.0,0.0,0.0,0.0,0.0,0.0,0.0,0.0,0.0,0.0,0.0,0.0,0.0,0.0,0.0,0.0,0.0,0.0,0.0,0.0,0.0,0.0,0.0,0.0,0.0,0.0,0.0,0.0,0.0,0.0,0.0,0.0,0.0,0.0,0.0,0.0,0.0,0.0,0.0,0.0,0.0,0.0,0.0,0.0,0.0,0.0,0.0,0.0,0.0,0.0,0.0,0.0,0.0,0.0,0.0,0.0,0.0,0.0,0.0,0.0,0.0,0.0,0.0,0.0,0.0,0.0,0.0,0.0,0.0,0.0,0.0,0.0,0.0,0.0,0.0,0.0,0.0,0.0,0.0,0.0,0.0,0.0,0.0,0.0,0.0,0.0,0.0,0.0,0.0,0.0,0.0,0.0,0.0,0.0,0.0,0.0,0.0,0.0,0.0,0.0,0.0,0.0,0.0,0.0,0.0,0.0,0.0,0.0,0.0,0.0,0.0,0.0,0.0,0.0,0.0,0.0,0.0,0.0,0.0,0.0,0.0,0.0,0.0,0.0,0.0,0.0,0.0,0.0,0.0,0.0,0.0,0.0,0.0,0.0,0.0,0.0,0.0,0.0,0.0,0.0,0.0,0.0,0.0,0.0,0.0,0.0,0.0,0.0,0.0,0.0,0.0,0.0,0.0,0.0,0.0,0.0,0.0,0.0,0.0,0.0,0.0,0.0,0.0,0.0,0.0,0.0,0.0,0.0,0.0,0.0,0.0,0.0,0.0,0.0,0.0,0.0,0.0,0.0,0.0,0.0,0.0,0.0,0.0,0.0,0.0,0.0,0.0,0.0,0.0,0.0,0.0,0.0,0.0,0.0,0.0,0.0,0.0,0.0,0.0,0.0,0.0,0.0,0.0,0.0,0.0,0.0,0.0,0.0,0.0,0.0,0.0,0.0,0.0,0.0,0.0,0.0,0.0,0.0,0.0,0.0,0.0,0.0,0.0,0.0,0.0,0.0,0.0,0.0,0.0,0.0,0.0,0.0,0.0,0.0,0.0,0.0,0.0,0.0,0.0,0.0,0.0,0.0,0.0,0.0,0.0,0.0,0.0,0.0,0.0,0.0,0.0,0.0,0.0,0.0,0.0,0.0,0.0,0.0,0.0,0.0,0.0,0.0,0.0,0.0,0.0,0.0,0.0,0.0,0.0,0.0,0.0,0.0,0.0,0.0,0.0,0.0,0.0,0.0,0.0,0.0,0.0,0.0,0.0,0.0,0.0,0.0,0.0,0.0,0.0,0.0,0.0,0.0,0.0,0.0,0.0,0.0,0.0,0.0,0.0,0.0,0.0,0.0,0.0,0.0,0.0,0.0,0.0,0.0,0.0,0.0,0.0,0.0,0.0,0.0,0.0,0.0,0.0,0.0,0.0,0.0,0.0,0.0,0.0,0.0,0.0,0.0,0.0,0.0,0.0,0.0,0.0,0.0,0.0,0.0,0.0,0.0,0.0,0.0,0.0,0.0,0.0,0.0,0.0,0.0,0.0,0.0,0.0,0.0,0.0,0.0,0.0,0.0,0.0,0.0,0.0,0.0,0.0,0.0,0.0,0.0,0.0,0.0,0.0,0.0,0.0,0.0,0.0,0.0,0.0,0.0,0.0,0.0,0.0,0.0,0.0,0.0,0.0,0.0,0.0,0.0,0.0,0.0,0.0,0.0,0.0,0.0,0.0,0.0,0.0,0.0,0.0,0.0,0.0,0.0,0.5729,0.0,0.0,0.0,0.0,0.0,0.0,0.0,0.0,0.0,0.0,0.0,0.0,0.0,0.0,0.0,0.0,0.0,0.0,0.0,0.0,0.0,0.0,0.0,0.0,0.0,0.0,0.0,0.0,0.0,0.0,0.0,0.0,0.0,0.0,0.0,0.0,0.0,0.0,0.0,0.0,0.0,0.0,0.0,0.0,0.0,0.0,0.0,0.0,0.0,0.0,0.0,0.0,0.0,0.0,0.0,0.0,0.0,0.0,0.0,0.0,0.0,0.0,0.0,0.0,0.0,0.0,0.0,0.0,0.0,0.0,0.0,0.0,0.0,0.0,0.0,0.0,0.0,0.0,0.0,0.0,0.0,0.0,0.0,0.0,0.0,0.0,0.0,0.0,0.0,0.0,0.0,0.0,0.0,0.0,0.0,0.0,0.0,0.0,0.0,0.0,0.0,0.0,0.0,0.0,0.0,0.0,0.0,0.0,0.0,0.0,0.6466,0.6415,0.6266,0.5913,0.5394,0.0,0.0,0.0,0.0,0.0,0.0,0.0,0.0,0.0,0.0,0.0,0.0,0.0,0.0,0.0,0.0,0.0,0.0,0.0,0.0,0.0,0.0,0.0,0.0,0.0,0.0,0.0,0.0,0.0,0.0,0.0,0.0,0.0,0.0,0.0,0.0,0.0,0.0,0.0,0.0,0.0,0.0,0.0,0.0,0.0,0.0,0.0,0.0,0.0,0.0,0.0,0.0,0.0,0.0,0.0,0.0,0.0,0.0,0.0,0.0,0.0,0.0,0.0,0.0,0.0,0.0,0.0,0.0,0.0,0.0,0.0,0.0,0.0,0.0,0.0,0.0,0.0,0.0,0.0,0.0,0.0,0.0,0.0,0.0,0.0,0.0,0.0,0.0,0.0,0.0,0.0,0.0,0.0,0.0,0.0,0.0,0.0,0.0,0.0,0.0,0.0,0.0,0.0,0.0,0.0,0.0,0.0,0.0,0.0,0.0,0.0,0.0,0.6236,0.5789,0.5291,0.0,0.0,0.0,0.0,0.0,0.0,0.0,0.0,0.0,0.0,0.0,0.0,0.0,0.0,0.0,0.0,0.0,0.0,0.0,0.0,0.0,0.0,0.0,0.0,0.0,0.0,0.0,0.0,0.0,0.0,0.0,0.0,0.0,0.0,0.0,0.0,0.0,0.0,0.0,0.0,0.0,0.0,0.0,0.0,0.0,0.0,0.0,0.0,0.0,0.0,0.0,0.0,0.0,0.0,0.0,0.0,0.0,0.0,0.0,0.0,0.0,0.0,0.0,0.0,0.0,0.0,0.0,0.0,0.0,0.0,0.0,0.0,0.0,0.0,0.0,0.0,0.0,0.0,0.0,0.0,0.0,0.0,0.0,0.0,0.0,0.0,0.0,0.0,0.0,0.0,0.0,0.0,0.0,0.0,0.0,0.0,0.0,0.0,0.0,0.0,0.0,0.0,0.0,0.0,0.0,0.0,0.0,0.0,0.0,0.0,0.6039,0.6402,0.6654,0.0,0.6096,0.0,0.0,0.0,0.0,0.0,0.0,0.0,0.0,0.0,0.0,0.0,0.0,0.0,0.0,0.0,0.0,0.0,0.0,0.0,0.0,0.0,0.0,0.0,0.0,0.0,0.0,0.0,0.0,0.0,0.0,0.0,0.0,0.0,0.0,0.0,0.0,0.0,0.0,0.0,0.0,0.0,0.0,0.0,0.0,0.0,0.0,0.0,0.0,0.0,0.0,0.0,0.0,0.0,0.0,0.0,0.0,0.0,0.0,0.0,0.0,0.0,0.0,0.0,0.0,0.0,0.0,0.0,0.0,0.0,0.0,0.0,0.0,0.0,0.0,0.0,0.0,0.0,0.0,0.0,0.0,0.0,0.0,0.0,0.0,0.0,0.0,0.0,0.0,0.0,0.0,0.0,0.0,0.0,0.0,0.0,0.0,0.0,0.0,0.0,0.0,0.0,0.0,0.0,0.0,0.0,0.0,0.0,0.0,0.0,0.0,0.5695,0.6202,0.6005,0.5893,0.0,0.0,0.0,0.0,0.0,0.0,0.0,0.0,0.0,0.0,0.0,0.0,0.0,0.0,0.0,0.0,0.0,0.0,0.0,0.0,0.0,0.0,0.0,0.0,0.0,0.0,0.0,0.0,0.0,0.0,0.0,0.0,0.0,0.0,0.0,0.0,0.0,0.0,0.0,0.0,0.0,0.0,0.0,0.0,0.0,0.0,0.0,0.0,0.0,0.0,0.0,0.0,0.0,0.0,0.0,0.0,0.0,0.0,0.0,0.0,0.0,0.0,0.0,0.0,0.0,0.0,0.0,0.0,0.0,0.0,0.0,0.0,0.0,0.0,0.0,0.0,0.0,0.0,0.0,0.0,0.0,0.0,0.0,0.0,0.0,0.0,0.0,0.0,0.0,0.0,0.0,0.0,0.0,0.0,0.0,0.0,0.0,0.0,0.0,0.0,0.0,0.0,0.0,0.0,0.0,0.0,0.0,0.0,0.0,0.0,0.5239,0.5499,0.6071,0.5747,0.545,0.5319,0.0,0.0,0.0,0.0,0.0,0.0,0.0,0.0,0.0,0.0,0.0,0.0,0.0,0.0,0.0,0.0,0.0,0.0,0.0,0.0,0.0,0.0,0.0,0.0,0.0,0.0,0.0,0.0,0.0,0.0,0.0,0.0,0.0,0.0,0.0,0.0,0.0,0.0,0.0,0.0,0.0,0.0,0.0,0.0,0.0,0.0,0.0,0.0,0.0,0.0,0.0,0.0,0.0,0.0,0.0,0.0,0.0,0.0,0.0,0.0,0.0,0.0,0.0,0.0,0.0,0.0,0.0,0.0,0.0,0.0,0.0,0.0,0.0,0.0,0.0,0.0,0.0,0.0,0.0,0.0,0.0,0.0,0.0,0.0,0.0,0.0,0.0,0.0,0.0,0.0,0.0,0.0,0.0,0.0,0.0,0.0,0.0,0.0,0.0,0.0,0.0,0.0,0.0,0.0,0.0,0.0,0.0,0.0,0.0,0.5478,0.552,0.6181,0.628,0.5629,0.0,0.0,0.0,0.0,0.0,0.0,0.0,0.0,0.0,0.0,0.0,0.0,0.0,0.0,0.0,0.0,0.0,0.0,0.0,0.0,0.0,0.0,0.0,0.0,0.0,0.0,0.0,0.0,0.0,0.0,0.0,0.0,0.0,0.0,0.0,0.0,0.0,0.0,0.0,0.0,0.0,0.0,0.0,0.0,0.0,0.0,0.0,0.0,0.0,0.0,0.0,0.0,0.0,0.0,0.0,0.0,0.0,0.0,0.0,0.0,0.0,0.0,0.0,0.0,0.0,0.0,0.0,0.0,0.0,0.0,0.0,0.0,0.0,0.0,0.0,0.0,0.0,0.0,0.0,0.0,0.0,0.0,0.0,0.0,0.0,0.0,0.0,0.0,0.0,0.0,0.0,0.0,0.0,0.0,0.0,0.0,0.0,0.0,0.0,0.0,0.0,0.0,0.0,0.0,0.0,0.0,0.0,0.0,0.0,0.4151,0.4346,0.5163,0.6588,0.5523,0.4969,0.0,0.0,0.0,0.0,0.0,0.0,0.0,0.0,0.0,0.0,0.0,0.0,0.0,0.0,0.0,0.0,0.0,0.0,0.0,0.0,0.0,0.0,0.0,0.0,0.0,0.0,0.0,0.0,0.0,0.0,0.0,0.0,0.0,0.0,0.0,0.0,0.0,0.0,0.0,0.0,0.0,0.0,0.0,0.0,0.0,0.0,0.0,0.0,0.0,0.0,0.0,0.0,0.0,0.0,0.0,0.0,0.0,0.0,0.0,0.0,0.0,0.0,0.0,0.0,0.0,0.0,0.0,0.0,0.0,0.0,0.0,0.0,0.0,0.0,0.0,0.0,0.0,0.0,0.0,0.0,0.0,0.0,0.0,0.0,0.0,0.0,0.0,0.0,0.0,0.0,0.0,0.0,0.0,0.0,0.0,0.0,0.0,0.0,0.0,0.0,0.0,0.0,0.0,0.0,0.0,0.0,0.0,0.0,0.0,0.3496,0.0,0.4942,0.0,0.4967,0.4512,0.0,0.0,0.0,0.0,0.0,0.0,0.0,0.0,0.0,0.0,0.0,0.0,0.0,0.0,0.0,0.0,0.0,0.0,0.0,0.0,0.0,0.0,0.0,0.0,0.0,0.0,0.0,0.0,0.0,0.0,0.0,0.0,0.0,0.0,0.0,0.0,0.0,0.0,0.0,0.0,0.0,0.0,0.0,0.0,0.0,0.0,0.0,0.0,0.0,0.0,0.0,0.0,0.0,0.0,0.0,0.0,0.0,0.0,0.0,0.0,0.0,0.0,0.0,0.0,0.0,0.0,0.0,0.0,0.0,0.0,0.0,0.0,0.0,0.0,0.0,0.0,0.0,0.0,0.0,0.0,0.0,0.0,0.0,0.0,0.0,0.0,0.0,0.0,0.0,0.0,0.0,0.0,0.0,0.0,0.0,0.0,0.0,0.0,0.0,0.0,0.0,0.0,0.0,0.0,0.0,0.0,0.0,0.0,0.3497,0.4265,0.4699,0.4866,0.4742,0.4748,0.429,0.0,0.0,0.0,0.0,0.0,0.0,0.0,0.0,0.0,0.0,0.0,0.0,0.0,0.0,0.0,0.0,0.0,0.0,0.0,0.0,0.0,0.0,0.0,0.0,0.0,0.0,0.0,0.0,0.0,0.0,0.0,0.0,0.0,0.0,0.0,0.0,0.0,0.0,0.0,0.0,0.0,0.0,0.0,0.0,0.0,0.0,0.0,0.0,0.0,0.0,0.0,0.0,0.0,0.0,0.0,0.0,0.0,0.0,0.0,0.0,0.0,0.0,0.0,0.0,0.0,0.0,0.0,0.0,0.0,0.0,0.0,0.0,0.0,0.0,0.0,0.0,0.0,0.0,0.0,0.0,0.0,0.0,0.0,0.0,0.0,0.0,0.0,0.0,0.0,0.0,0.0,0.0,0.0,0.0,0.0,0.0,0.0,0.0,0.0,0.0,0.0,0.0,0.0,0.0,0.0,0.0,0.0,0.0,0.0,0.4076,0.401,0.4315,0.4985,0.4318,0.4121,0.0,0.0,0.0,0.0,0.0,0.0,0.0,0.0,0.0,0.0,0.0,0.0,0.0,0.0,0.0,0.0,0.0,0.0,0.0,0.0,0.0,0.0,0.0,0.0,0.0,0.0,0.0,0.0,0.0,0.0,0.0,0.0,0.0,0.0,0.0,0.0,0.0,0.0,0.0,0.0,0.0,0.0,0.0,0.0,0.0,0.0,0.0,0.0,0.0,0.0,0.0,0.0,0.0,0.0,0.0,0.0,0.0,0.0,0.0,0.0,0.0,0.0,0.0,0.0,0.0,0.0,0.0,0.0,0.0,0.0,0.0,0.0,0.0,0.0,0.0,0.0,0.0,0.0,0.0,0.0,0.0,0.0,0.0,0.0,0.0,0.0,0.0,0.0,0.0,0.0,0.0,0.0,0.0,0.0,0.0,0.0,0.0,0.0,0.0,0.0,0.0,0.0,0.0,0.0,0.0,0.0,0.0,0.0,0.0,0.3956,0.3826,0.4122,0.4876,0.4138,0.4058,0.4722,0.0,0.0,0.0,0.0,0.0,0.0,0.0,0.0,0.0,0.0,0.0,0.0,0.0,0.0,0.0,0.0,0.0,0.0,0.0,0.0,0.0,0.0,0.0,0.0,0.0,0.0,0.0,0.0,0.0,0.0,0.0,0.0,0.0,0.0,0.0,0.0,0.0,0.0,0.0,0.0,0.0,0.0,0.0,0.0,0.0,0.0,0.0,0.0,0.0,0.0,0.0,0.0,0.0,0.0,0.0,0.0,0.0,0.0,0.0,0.0,0.0,0.0,0.0,0.0,0.0,0.0,0.0,0.0,0.0,0.0,0.0,0.0,0.0,0.0,0.0,0.0,0.0,0.0,0.0,0.0,0.0,0.0,0.0,0.0,0.0,0.0,0.0,0.0,0.0,0.0,0.0,0.0,0.0,0.0,0.0,0.0,0.0,0.0,0.0,0.0,0.0,0.0,0.0,0.0,0.0,0.0,0.0,0.0,0.3868,0.4073,0.4267,0.4429,0.4264,0.4155,0.0,0.0,0.0,0.0,0.0,0.0,0.0,0.0,0.0,0.0,0.0,0.0,0.0,0.0,0.0,0.0,0.0,0.0,0.0,0.0,0.0,0.0,0.0,0.0,0.0,0.0,0.0,0.0,0.0,0.0,0.0,0.0,0.0,0.0,0.0,0.0,0.0,0.0,0.0,0.0,0.0,0.0,0.0,0.0,0.0,0.0,0.0,0.0,0.0,0.0,0.0,0.0,0.0,0.0,0.0,0.0,0.0,0.0,0.0,0.0,0.0,0.0,0.0,0.0,0.0,0.0,0.0,0.0,0.0,0.0,0.0,0.0,0.0,0.0,0.0,0.0,0.0,0.0,0.0,0.0,0.0,0.0,0.0,0.0,0.0,0.0,0.0,0.0,0.0,0.0,0.0,0.0,0.0,0.0,0.0,0.0,0.0,0.0,0.0,0.0,0.0,0.0,0.0,0.0,0.0,0.0,0.0,0.0,0.0,0.3607,0.3807,0.4153,0.4674,0.4835,0.4906,0.0,0.0,0.0,0.0,0.0,0.0,0.0,0.0,0.0,0.0,0.0,0.0,0.0,0.0,0.0,0.0,0.0,0.0,0.0,0.0,0.0,0.0,0.0,0.0,0.0,0.0,0.0,0.0,0.0,0.0,0.0,0.0,0.0,0.0,0.0,0.0,0.0,0.0,0.0,0.0,0.0,0.0,0.0,0.0,0.0,0.0,0.0,0.0,0.0,0.0,0.0,0.0,0.0,0.0,0.0,0.0,0.0,0.0,0.0,0.0,0.0,0.0,0.0,0.0,0.0,0.0,0.0,0.0,0.0,0.0,0.0,0.0,0.0,0.0,0.0,0.0,0.0,0.0,0.0,0.0,0.0,0.0,0.0,0.0,0.0,0.0,0.0,0.0,0.0,0.0,0.0,0.0,0.0,0.0,0.0,0.0,0.0,0.0,0.0,0.0,0.0,0.0,0.0,0.0,0.0,0.0,0.0,0.0,0.3429,0.3252,0.3712,0.4127,0.4463,0.4958,0.5061,0.0,0.0,0.0,0.0,0.0,0.0,0.0,0.0,0.0,0.0,0.0,0.0,0.0,0.0,0.0,0.0,0.0,0.0,0.0,0.0,0.0,0.0,0.0,0.0,0.0,0.0,0.0,0.0,0.0,0.0,0.0,0.0,0.0,0.0,0.0,0.0,0.0,0.0,0.0,0.0,0.0,0.0,0.0,0.0,0.0,0.0,0.0,0.0,0.0,0.0,0.0,0.0,0.0,0.0,0.0,0.0,0.0,0.0,0.0,0.0,0.0,0.0,0.0,0.0,0.0,0.0,0.0,0.0,0.0,0.0,0.0,0.0,0.0,0.0,0.0,0.0,0.0,0.0,0.0,0.0,0.0,0.0,0.0,0.0,0.0,0.0,0.0,0.0,0.0,0.0,0.0,0.0,0.0,0.0,0.0,0.0,0.0,0.0,0.0,0.0,0.0,0.0,0.0,0.0,0.0,0.0,0.0,0.0,0.3151,0.2903,0.3717,0.4074,0.3985,0.4818,0.4884,0.0,0.0,0.0,0.0,0.0,0.0,0.0,0.0,0.0,0.0,0.0,0.0,0.0,0.0,0.0,0.0,0.0,0.0,0.0,0.0,0.0,0.0,0.0,0.0,0.0,0.0,0.0,0.0,0.0,0.0,0.0,0.0,0.0,0.0,0.0,0.0,0.0,0.0,0.0,0.0,0.0,0.0,0.0,0.0,0.0,0.0,0.0,0.0,0.0,0.0,0.0,0.0,0.0,0.0,0.0,0.0,0.0,0.0,0.0,0.0,0.0,0.0,0.0,0.0,0.0,0.0,0.0,0.0,0.0,0.0,0.0,0.0,0.0,0.0,0.0,0.0,0.0,0.0,0.0,0.0,0.0,0.0,0.0,0.0,0.0,0.0,0.0,0.0,0.0,0.0,0.0,0.0,0.0,0.0,0.0,0.0,0.0,0.0,0.0,0.0,0.0,0.0,0.0,0.0,0.0,0.0,0.0,0.0,0.306,0.291,0.3447,0.3716,0.3702,0.4715,0.4979,0.0,0.0,0.0,0.0,0.0,0.0,0.0,0.0,0.0,0.0,0.0,0.0,0.0,0.0,0.0,0.0,0.0,0.0,0.0,0.0,0.0,0.0,0.0,0.0,0.0,0.0,0.0,0.0,0.0,0.0,0.0,0.0,0.0,0.0,0.0,0.0,0.0,0.0,0.0,0.0,0.0,0.0,0.0,0.0,0.0,0.0,0.0,0.0,0.6919,0.0,0.0,0.0,0.0,0.0,0.0,0.0,0.0,0.0,0.0,0.0,0.0,0.0,0.0,0.0,0.0,0.0,0.0,0.0,0.0,0.0,0.0,0.0,0.0,0.0,0.0,0.0,0.0,0.0,0.0,0.0,0.0,0.0,0.0,0.0,0.0,0.0,0.0,0.0,0.0,0.0,0.0,0.0,0.0,0.0,0.0,0.0,0.0,0.0,0.0,0.0,0.0,0.0,0.0,0.0,0.0,0.0,0.0,0.0,0.3163,0.3094,0.3422,0.36,0.3631,0.4241,0.4409,0.0,0.0,0.0,0.0,0.0,0.0,0.0,0.0,0.0,0.0,0.0,0.0,0.0,0.0,0.0,0.0,0.0,0.0,0.0,0.0,0.0,0.0,0.0,0.0,0.0,0.0,0.0,0.0,0.0,0.0,0.0,0.0,0.0,0.0,0.0,0.0,0.0,0.0,0.0,0.0,0.0,0.0,0.0,0.0,0.0,0.0,0.0,0.0,0.0,0.0,0.0,0.0,0.0,0.0,0.0,0.0,0.0,0.0,0.0,0.0,0.0,0.0,0.0,0.0,0.0,0.0,0.0,0.0,0.0,0.0,0.0,0.0,0.0,0.0,0.0,0.0,0.0,0.0,0.0,0.0,0.0,0.0,0.0,0.0,0.0,0.0,0.0,0.0,0.0,0.0,0.0,0.0,0.0,0.0,0.0,0.0,0.0,0.0,0.0,0.0,0.0,0.0,0.0,0.0,0.0,0.0,0.0,0.3219,0.3239,0.3306,0.35,0.36,0.36,0.3719,0.3711,0.3521,0.0,0.0,0.0,0.0,0.0,0.0,0.0,0.0,0.0,0.0,0.0,0.0,0.0,0.0,0.0,0.0,0.0,0.0,0.0,0.0,0.0,0.0,0.0,0.0,0.0,0.0,0.0,0.0,0.0,0.0,0.0,0.0,0.0,0.0,0.0,0.0,0.0,0.0,0.7223,0.7625,0.0,0.0,0.0,0.0,0.0,0.0,0.0,0.0,0.7854,0.0,0.0,0.0,0.0,0.0,0.0,0.0,0.0,0.0,0.0,0.0,0.0,0.0,0.0,0.0,0.0,0.0,0.0,0.0,0.0,0.0,0.0,0.0,0.0,0.0,0.0,0.0,0.0,0.0,0.0,0.0,0.0,0.0,0.0,0.0,0.0,0.0,0.0,0.0,0.0,0.0,0.0,0.0,0.0,0.0,0.0,0.0,0.0,0.0,0.0,0.0,0.0,0.0,0.0,0.0,0.0,0.2791,0.2798,0.2978,0.3296,0.3489,0.36,0.3604,0.3729,0.3711,0.3529,0.0,0.0,0.0,0.0,0.0,0.0,0.0,0.0,0.0,0.0,0.0,0.0,0.0,0.0,0.0,0.0,0.0,0.0,0.0,0.0,0.0,0.0,0.0,0.0,0.0,0.0,0.0,0.0,0.0,0.0,0.0,0.0,0.0,0.0,0.0,0.0,0.0,0.0,0.0,0.9566,1.0017,0.0,0.0,0.0,0.0,0.0,0.0,0.0,0.0,0.763,0.0,0.0,0.0,0.0,0.0,0.0,0.0,0.0,0.0,0.0,0.0,0.0,0.0,0.0,0.0,0.0,0.0,0.0,0.0,0.0,0.0,0.0,0.0,0.0,0.0,0.0,0.0,0.0,0.0,0.0,0.0,0.0,0.0,0.0,0.0,0.0,0.0,0.0,0.0,0.0,0.0,0.0,0.0,0.0,0.0,0.0,0.0,0.0,0.0,0.0,0.0,0.0,0.0,0.0,0.0,0.239,0.2229,0.2406,0.2973,0.309,0.3284,0.3571,0.343,0.3395,0.0,0.0,0.0,0.0,0.0,0.0,0.0,0.0,0.0,0.0,0.0,0.0,0.0,0.0,0.0,0.0,0.0,0.0,0.0,0.0,0.0,0.0,0.0,0.0,0.0,0.0,0.0,0.0,0.0,0.0,0.0,0.0,0.0,0.0,0.0,0.0,0.0,0.0,0.0,0.0,0.9742,1.0257,1.0353,0.0,0.0,0.0,0.0,0.0,0.0,0.8685,0.7981,0.0,0.0,0.0,0.0,0.0,0.0,0.0,0.0,0.0,0.0,0.0,0.0,0.0,0.0,0.0,0.0,0.0,0.0,0.0,0.0,0.0,0.0,0.0,0.0,0.0,0.0,0.0,0.0,0.0,0.0,0.0,0.0,0.0,0.0,0.0,0.0,0.0,0.0,0.0,0.0,0.0,0.0,0.0,0.0,0.0,0.0,0.0,0.0,0.0,0.0,0.0,0.0,0.0,0.0,0.0,0.2084,0.1729,0.1865,0.2483,0.2519,0.281,0.3377,0.2994,0.296,0.0,0.0,0.0,0.0,0.0,0.0,0.0,0.0,0.0,0.0,0.0,0.0,0.0,0.0,0.0,0.0,0.0,0.0,0.0,0.0,0.0,0.0,0.0,0.0,0.0,0.0,0.0,0.0,0.0,0.0,0.0,0.0,0.0,0.0,0.0,0.0,0.0,0.0,0.0,0.0,0.0,1.0603,1.0892,1.058,0.0,0.0,0.0,0.0,1.0302,0.9509,0.0,0.0,0.0,0.0,0.0,0.0,0.0,0.0,0.0,0.0,0.0,0.0,0.0,0.0,0.0,0.0,0.0,0.0,0.0,0.0,0.0,0.0,0.0,0.0,0.0,0.0,0.0,0.0,0.0,0.0,0.0,0.0,0.0,0.0,0.0,0.0,0.0,0.0,0.0,0.0,0.0,0.0,0.0,0.0,0.0,0.0,0.0,0.0,0.0,0.0,0.0,0.0,0.0,0.0,0.0,0.0,0.1809,0.151,0.1521,0.1882,0.1906,0.2195,0.2782,0.2465,0.2554,0.0,0.0,0.0,0.0,0.0,0.0,0.0,0.0,0.0,0.0,0.0,0.0,0.0,0.0,0.0,0.0,0.0,0.0,0.0,0.0,0.0,0.0,0.0,0.0,0.0,0.0,0.0,0.0,0.0,0.0,0.0,0.0,0.0,0.0,0.0,0.0,0.0,0.0,0.0,0.0,0.0,1.24,1.1539,1.1756,1.1832,0.0,0.0,1.1333,1.1347,1.0924,0.0,0.0,0.0,0.0,0.0,0.0,0.0,0.0,0.0,0.0,0.0,0.0,0.0,0.0,0.0,0.0,0.0,0.0,0.0,0.0,0.0,0.0,0.0,0.0,0.0,0.0,0.0,0.0,0.0,0.0,0.0,0.0,0.0,0.0,0.0,0.0,0.0,0.0,0.0,0.0,0.0,0.0,0.0,0.0,0.0,0.0,0.0,0.0,0.0,0.0,0.0,0.0,0.0,0.0,0.0,0.0751,0.0991,0.072,0.0803,0.1257,0.1284,0.1584,0.2184,0.2116,0.2241,0.0,0.0,0.0,0.0,0.0,0.0,0.0,0.0,0.0,0.0,0.0,0.0,0.0,0.0,0.0,0.0,0.0,0.0,0.0,0.0,0.0,0.0,0.0,0.0,0.0,0.0,0.0,0.0,0.0,0.0,0.0,0.0,0.0,0.0,0.0,0.0,0.0,0.0,0.0,0.0,0.0,0.0,1.2022,1.24,0.0,0.0,0.0,1.2026,1.1964,0.0,0.0,0.0,0.0,0.0,0.0,0.0,0.0,0.0,0.0,0.0,0.0,0.0,0.0,0.0,0.0,0.0,0.0,0.0,0.0,0.0,0.0,0.0,0.0,0.0,0.0,0.0,0.0,0.0,0.0,0.0,0.0,0.0,0.0,0.0,0.0,0.0,0.0,0.0,0.0,0.0,0.0,0.0,0.0,0.0,0.0,0.0,0.0,0.0,0.0,0.0,0.0,0.0,0.0,0.0,0.0,0.0,0.0393,0.0121,0.0226,0.0658,0.0661,0.095,0.1549,0.1644,0.0,0.0,0.0,0.0,0.0,0.0,0.0,0.0,0.0,0.0,0.0,0.0,0.0,0.0,0.0,0.0,0.0,0.0,0.0,0.0,0.0,0.0,0.0,0.0,0.0,0.0,0.0,0.4511,0.0,0.0,0.0,0.0,0.0,0.0,0.0,0.0,0.0,0.0,0.0,0.0,0.0,0.0,1.1925,1.2278,1.2705,1.2872,0.0,0.0,1.2527,1.247,1.1615,1.0713,0.0,0.0,0.0,0.0,0.0,0.0,0.0,0.0,0.0,0.0,0.0,0.0,0.0,0.0,0.0,0.0,0.0,0.0,0.0,0.0,0.0,0.0,0.0,0.0,0.0,0.0,0.0,0.0,0.0,0.0,0.0,0.0,0.0,0.0,0.0,0.0,0.0,0.0,0.0,0.0,0.0,0.0,0.0,0.0,0.0,0.0,0.0,0.0,0.0,0.0,0.0,0.0,0.0,0.0,0.0268,0.0392,0.0121,0.0,0.0,0.0067,0.0348,0.0927,0.0849,0.1115,0.0,0.0,0.0,0.0,0.0,0.0,0.0,0.0,0.0,0.0,0.0,0.0,0.0,0.0,0.0,0.0,0.0,0.0,0.0,0.0,0.0,0.0,0.0,0.0,0.0,0.0,0.0,0.0,0.0,0.0,0.0,0.0,0.0,0.0,0.0,0.0,0.0,0.0,0.0,0.0,0.0,1.27,1.2193,1.2619,1.2963,0.0,1.2927,1.2932,1.2871,1.2782,1.2287,1.1015,0.0,0.0,0.0,0.0,0.0,0.0,0.0,0.0,0.0,0.0,0.0,0.0,0.0,0.0,0.0,0.0,0.0,0.0,0.0,0.0,0.0,0.0,0.0,0.0,0.0,0.0,0.0,0.0,0.0,0.0,0.0,0.0,0.0,0.0,0.0,0.0,0.0,0.0,0.0,0.0,0.0,0.0,0.0,0.0,0.0,0.0,0.0,0.0,0.0,0.0,0.0,0.0,0.0,0.0184,0.0168,0.0065,0.0,0.0,0.0,0.0112,0.0337,0.0591,0.0771,0.0,0.0,0.0,0.0,0.0,0.0,0.0,0.0,0.0,0.0,0.0,0.0,0.0,0.0,0.0,0.0,0.0,0.0,0.0,0.0,0.0,0.0,0.0,0.0,0.0,0.0,0.0,0.0,0.5189,0.5192,0.5385,0.0,0.0,0.0,0.0,0.0,0.0,0.0,0.0,0.0,0.0,1.2037,1.2576,1.3132,0.0,0.0,1.3231,1.3346,1.2951,1.2445,1.184,1.1025,1.0176,0.0,0.0,0.0,0.0,0.0,0.0,0.0,0.0,0.0,0.0,0.0,0.0,0.0,0.0,0.0,0.0,0.0,0.0,0.0,0.0,0.0,0.0,0.0,0.0,0.0,0.0,0.0,0.0,0.0,0.0,0.0,0.0,0.0,0.0,0.0,0.0,0.0,0.0,0.0,0.0,0.0,0.0,0.0,0.0,0.0,0.0,0.0,0.0,0.0,0.0,0.0,0.0,0.0086,0.0,0.0,0.0,0.0,0.0,0.0,0.0,0.0312,0.0465,0.0,0.0,0.0,0.0,0.0,0.0,0.0,0.0,0.0,0.0,0.0,0.0,0.0,0.0,0.0,0.0,0.0,0.0,0.0,0.0,0.0,0.0,0.0,0.0,0.0,0.0,0.0,0.0,0.4971,0.4868,0.4858,0.0,0.0,0.0,0.0,0.0,0.0,0.0,0.0,0.0,0.0,1.1358,1.2231,1.2823,1.3056,1.2635,1.3132,1.3372,1.2956,1.2215,1.1509,1.1057,0.0,0.0,0.0,0.0,0.0,0.0,0.0,0.0,0.0,0.0,0.0,0.0,0.0,0.0,0.0,0.0,0.0,0.0,0.0,0.0,0.0,0.0,0.0,0.0,0.0,0.0,0.0,0.0866,0.0,0.0,0.0881,0.0,0.0,0.0,0.0,0.0,0.0,0.0,0.0,0.0,0.0,0.0,0.0,0.0,0.0,0.0,0.0,0.0,0.0,0.0,0.0,0.0,0.0,-0.0015,0.0,0.0,0.0,0.0,0.0,0.0,0.0,0.0,0.0131,0.0401,0.0,0.0,0.0,0.0,0.0,0.0,0.0,0.0,0.0,0.0,0.0,0.0,0.0,0.0,0.0,0.0,0.0,0.0,0.0,0.0,0.0,0.0,0.0,0.0,0.0,0.0,0.4359,0.4333,0.4333,0.0,0.0,0.0,0.0,0.0,0.0,0.0,0.0,0.0,0.9366,1.0216,1.0885,1.0877,1.142,1.1869,1.1836,1.2439,1.2893,1.2856,1.2242,1.1661,0.0,0.0,0.0,0.0,0.0,0.0,0.0,0.0,0.0,0.0,0.0,0.0,0.0,0.0,0.0,0.0,0.0,0.0,0.0,0.0,0.0,0.0,0.0,0.0,0.0,0.0,0.0,-0.0944,-0.0773,0.0,0.0,0.0,0.0,0.0,0.0,0.0,0.0,0.0,0.0,0.0,-0.1181,-0.1374,0.0,0.0,0.0,0.0,0.0,0.0,0.0,0.0,0.0,0.0,0.0,0.0,-0.0397,-0.0027,-0.0388,-0.0408,0.0,0.0,0.0,0.0,0.0,0.0125,0.0384,0.0,0.0,0.0,0.0,0.0,0.0,0.0,0.0,0.0,0.0,0.0,0.0,0.0,0.0,0.0,0.0,0.0,0.0,0.0,0.0,0.0,0.0,0.0,0.0,0.0,0.4303,0.0,0.0,0.0,0.0,0.0,0.0,0.0,0.0,0.0,0.0,0.0,0.873,0.9357,0.9868,1.0337,1.0741,1.1187,1.1378,0.0,0.0,0.0,0.0,0.0,0.0,0.0,0.0,0.0,0.0,0.0,0.0,0.0,0.0,1.2018,1.0205,0.9746,0.9568,0.9253,0.0,0.0,0.0,0.0,0.0,0.0,0.0,0.0,0.0,0.0,0.0,0.0,0.0,0.0,-0.1893,-0.1807,-0.1824,0.0,0.0,0.0,0.0,0.0,0.0,0.0,0.0,-0.224,-0.2308,-0.2217,-0.2406,-0.2406,0.0,-0.2111,-0.1529,0.0,0.0,0.0,0.0,0.0,0.0,0.0,0.0,-0.0872,-0.0728,-0.1119,-0.1035,-0.0421,-0.0393,-0.0264,0.0,0.0,0.0084,0.0254,0.0352,0.0581,0.0,0.0,0.0,0.0,0.0,0.0,0.0,0.0,0.0,0.0,0.0,0.0,0.0,0.0,0.0,0.0,0.0,0.0,0.0,0.0,0.0,0.0,0.0,0.388,0.0,0.0,0.0,0.0,0.0,0.0,0.0,0.0,0.0,0.7738,0.8213,0.8759,0.9473,0.9583,0.9797,1.0341,0.0,0.0,0.0,0.0,0.0,0.0,0.0,1.0428,1.0595,1.022,1.0034,1.0431,1.1381,1.2089,1.2084,0.0,0.0,1.1459,1.1081,1.0827,1.0262,1.0399,1.0524,1.0209,1.1141,1.1972,0.0,0.0,0.0,0.0,-0.2098,0.0,0.0,0.0,-0.228,-0.2275,0.0,-0.2277,0.0,0.0,0.0,0.0,-0.185,-0.1962,0.0,0.0,-0.2866,-0.283,-0.235,-0.2898,-0.285,-0.2289,-0.2301,-0.2285,-0.2242,-0.1983,0.0,0.0,0.0,0.0,0.0,0.0,-0.1444,-0.1967,-0.2131,-0.1862,-0.1157,-0.1142,-0.0775,-0.0083,0.0,-0.0041,0.001,0.0254,0.0392,0.0412,0.0838,0.0,0.0,0.0,0.0,0.0,0.0,0.0,0.0,0.0,0.0,0.0,0.0,0.0,0.0,0.0,0.0,0.0,0.0,0.0,0.0,0.3014,0.0,0.0,0.0,0.0,0.0,0.0,0.0,0.0,0.0,0.0,0.8325,0.9097,0.9555,0.9626,0.0,0.0,0.0,0.0,1.0332,1.0507,1.1139,1.1525,1.1501,1.1003,1.0593,1.0615,0.0,0.0,1.0602,1.1257,1.1738,1.1744,1.1866,1.2002,1.2738,1.2463,1.2074,1.1699,1.1323,1.1255,1.1587,1.215,1.2595,-0.529,0.0,0.0,0.0,0.0,-0.3929,-0.381,-0.3626,-0.3523,-0.3434,-0.335,-0.3328,0.0,0.0,0.0,0.0,0.0,0.0,-0.3027,-0.3499,-0.3763,-0.3863,-0.3848,-0.4023,-0.4009,-0.3834,-0.3682,-0.3632,-0.3626,-0.3444,-0.2757,-0.1564,0.0,0.0,0.0,0.0,-0.23,-0.2178,-0.2599,-0.254,-0.1899,-0.1892,-0.1541,-0.0811,-0.0792,-0.0534,-0.0021,0.0071,0.0203,0.0394,0.0536,0.0,0.0,0.0,0.0,0.0,0.0,0.0,0.0,0.0,0.0,0.0,0.0,0.0,0.0,0.0,0.0,0.0,0.0,0.0,0.2899,0.2932,0.3076,0.0,0.0,0.0,0.0,0.0,0.0,0.0,0.0,0.0,0.6656,0.7364,0.805,0.0,0.0,0.8666,0.8754,0.9042,0.8984,0.8231,0.8446,0.0,0.8446,0.8779,0.9137,0.9317,0.9903,1.0467,1.0843,1.1542,1.2126,1.2369,1.2877,1.3193,1.2842,1.2304,1.1791,1.1497,1.1424,1.1308,1.1055,1.1877,1.2694,-0.7819,-0.7102,-0.643,-0.5776,-0.5217,-0.5213,-0.4924,-0.4483,-0.4388,-0.429,-0.4151,-0.4148,-0.3888,-0.3462,-0.3391,0.0,0.0,0.0,-0.3768,-0.4212,-0.429,-0.4382,-0.4487,-0.4491,-0.4491,-0.4484,-0.4389,-0.4318,-0.4308,-0.4243,-0.3684,-0.2688,0.0,0.0,-0.2328,-0.2816,-0.3031,-0.3015,-0.3438,-0.3331,-0.265,-0.207,-0.1568,-0.1109,-0.0828,-0.0443,0.0,0.0,0.0073,0.0252,0.0341,0.062,0.0,0.0,0.0,0.0,0.0,0.0,0.0,0.0,0.0,0.0,0.0,0.2525,0.2401,0.0,0.0,0.0,0.284,0.2879,0.2899,0.3062,0.0,0.0,0.0,0.0,0.0,0.0,0.0,0.5529,0.5615,0.5651,0.5704,0.6154,0.6941,0.8089,0.8122,0.8085,0.8229,0.0,0.8087,0.7521,0.7639,0.7772,0.7773,0.8111,0.8467,0.8619,0.9575,1.0337,1.0551,1.1292,1.1938,1.2183,1.2581,1.2785,1.2429,1.192,1.1502,1.1276,1.1393,1.1379,1.0977,1.185,1.262,-0.9782,-0.9641,-0.8042,-0.6941,-0.6225,-0.6215,-0.5797,-0.5108,-0.5112,-0.5031,-0.4911,-0.4908,-0.4667,-0.4273,-0.4132,0.0,-0.4271,-0.4393,-0.4571,-0.4744,-0.4719,-0.4712,-0.4712,-0.4688,-0.4639,-0.457,-0.4584,-0.4546,-0.4487,-0.4487,-0.4348,-0.4031,-0.3486,-0.32,-0.3165,-0.3308,-0.3665,-0.421,-0.4392,-0.4125,-0.3398,-0.2069,-0.1335,-0.1273,-0.0598,-0.0215,-0.0083,0.0,-0.0044,0.0011,0.0242,0.0265,0.0026,0.0,0.0,0.0,0.0,0.0,0.0,0.0,0.0,0.0,0.0,0.0,0.0,0.0,0.0,0.0,0.2956,0.0,0.2939,0.3348,0.0,0.0,0.0,0.4789,0.5047,0.5093,0.5205,0.551,0.0,0.0,0.5392,0.5533,0.6162,0.7625,0.7606,0.7573,0.7877,0.7675,0.7558,0.7694,0.7889,0.811,0.8168,0.8158,0.816,0.8401,0.918,0.9765,1.002,1.0662,1.1267,1.1547,1.1503,1.1574,1.1719,1.1646,1.1419,1.1283,1.1353,1.145,1.1467,1.2087,1.2428,-1.0385,-1.0356,-0.9949,-0.908,-0.8,-0.798,-0.7558,-0.6883,-0.6887,-0.6854,-0.6836,-0.6826,-0.6769,-0.6668,-0.6648,-0.6639,-0.6673,-0.6711,-0.6731,-0.6779,-0.6573,-0.6473,-0.6478,-0.6216,-0.5792,-0.5287,-0.5255,-0.5003,-0.4519,-0.4491,-0.4467,-0.4372,-0.4237,-0.4046,-0.3797,-0.3923,-0.4135,-0.444,-0.447,-0.4405,-0.4198,-0.3885,-0.3348,-0.2645,-0.2457,-0.1836,-0.0741,-0.0698,-0.0469,-0.0022,0.0062,0.006,0.0,0.0303,0.0,0.0,0.0,0.0,0.0,0.0,0.0,0.0,0.0,0.2753,0.2348,0.0,0.2942,0.0,0.3086,0.3653,0.3303,0.3465,0.0,0.0,0.4359,0.4651,0.493,0.495,0.4976,0.5058,0.5224,0.5423,0.5664,0.5733,0.5892,0.6285,0.683,0.7224,0.7311,0.7259,0.6982,0.648,0.6399,0.637,0.6491,0.6513,0.7027,0.8221,0.8602,0.909,1.0108,1.0455,1.0939,1.1832,1.2073,1.2111,1.2144,1.2099,1.2059,1.2017,1.1891,1.1781,1.1788,1.2127,1.2337,-1.0958,-1.0958,-1.0958,-1.0529,-0.9816,-0.9186,-0.8466,-0.7737,-0.7732,-0.7675,-0.7567,-0.7534,-0.7507,-0.7507,-0.7507,-0.7507,-0.7507,-0.7507,-0.7507,-0.7502,-0.7353,-0.7277,-0.7277,-0.7076,-0.678,-0.6384,-0.6272,-0.6017,-0.5659,-0.5514,-0.5436,-0.5441,-0.5441,-0.5181,-0.4684,-0.4447,-0.4395,-0.4487,-0.4491,-0.4491,-0.4491,-0.4181,-0.3725,-0.3126,-0.2844,-0.225,-0.1326,-0.1344,-0.1086,-0.0447,-0.0395,-0.0277,-0.0021,0.0151,0.0156,0.0,0.0,0.0,0.0,0.0,0.0,0.0,0.0,0.0,0.0,0.0,0.2291,0.1634,0.2564,0.3073,0.2798,0.2893,0.3069,0.3287,0.3491,0.3671,0.3816,0.388,0.4231,0.503,0.4587,0.4678,0.5827,0.5565,0.5427,0.5927,0.6429,0.6692,0.6546,0.653,0.6333,0.5889,0.5839,0.5915,0.5937,0.6057,0.6424,0.7284,0.7847,0.8409,0.9129,1.0008,1.0832,1.1489,1.1978,1.2305,1.2305,1.2305,1.2305,1.2285,1.2178,1.2071,1.2089,1.2191,1.2305,-1.1412,-1.1412,-1.1412,-1.1412,-1.1304,-1.0089,-0.9112,-0.8398,-0.8392,-0.8276,-0.8058,-0.7936,-0.788,-0.7895,-0.7895,-0.7895,-0.7895,-0.7916,-0.7895,-0.7895,-0.7848,-0.7837,-0.7837,-0.779,-0.7735,-0.7621,-0.7396,-0.723,-0.7154,-0.6822,-0.6628,-0.6533,-0.649,-0.6095,-0.5378,-0.4801,-0.4491,-0.4491,-0.4491,-0.4491,-0.4491,-0.3876,-0.3444,-0.3216,-0.2718,-0.2281,-0.1964,-0.2052,-0.1783,-0.1094,-0.1055,-0.074,-0.005,-0.0095,-0.0104,0.0,0.0218,0.0,0.0,0.0,0.0,0.0,0.0,0.0,0.0,0.1343,0.1361,0.1404,0.1706,0.1952,0.2016,0.2163,0.2244,0.2239,0.2412,0.253,0.2536,0.263,0.3269,0.4783,0.3613,0.3546,0.5279,0.4899,0.476,0.5545,0.5726,0.5724,0.5742,0.5823,0.5939,0.5861,0.5973,0.6098,0.6216,0.6279,0.6305,0.6402,0.6996,0.7629,0.7872,0.9214,1.0404,1.0658,1.1372,1.2003,1.1947,1.1929,1.1966,1.1799,1.1835,1.1995,1.2211,1.2291,1.2305,-1.1412,-1.1412,-1.1412,-1.1412,-1.1382,-1.1099,-1.0788,-1.0443,-1.042,-1.0277,-1.0052,-1.0032,-0.9997,-1.0022,-1.0013,-1.0007,-1.0013,-1.0007,-1.0007,-1.0,-0.9723,-0.9605,-0.9601,-0.9383,-0.8968,-0.8413,-0.8352,-0.8008,-0.7425,-0.7136,-0.6708,-0.6116,-0.5835,-0.5369,-0.4718,0.0,0.0,0.0,-0.4491,-0.4491,-0.4491,-0.4377,-0.4202,-0.4,-0.3776,0.0,-0.2732,-0.2701,-0.2438,-0.1836,-0.1903,0.0,0.0,0.0,0.0,0.0,0.0,0.0,0.0,0.0,0.0,0.0,0.0209,0.0533,0.1234,0.1533,0.1766,0.1831,0.0995,0.0904,0.2057,0.2338,0.2447,0.2456,0.257,0.2657,0.2673,0.2658,0.2691,0.2482,0.2668,0.2821,0.295,0.313,0.3467,0.3779,0.3733,0.4053,0.4819,0.5593,0.615,0.6214,0.6202,0.6239,0.6273,0.628,0.628,0.6335,0.6412,0.6903,0.7628,0.8037,0.8727,0.9423,1.0421,1.0808,1.0102,1.0295,1.0533,0.9994,1.0333,1.1006,1.2058,1.2286,1.2305,-1.1839,-1.1857,-1.1839,-1.1857,0.0,-1.1864,-1.1673,-1.145,-1.1269,-1.1129,-1.0982,-1.0851,-1.0791,-1.0784,-1.0669,-1.0586,-1.0586,-1.0586,-1.0586,-1.0579,-1.0439,-1.0356,-1.0358,-1.0218,-0.9955,-0.9599,-0.9408,-0.9136,-0.8774,-0.8524,-0.8192,-0.7825,-0.7488,-0.6808,-0.5798,-0.4928,-0.4491,-0.4491,-0.4491,-0.4491,-0.4491,-0.4491,-0.4406,-0.4217,-0.423,0.0,0.0,0.0,0.0,0.0,0.0,0.0,0.0,0.0,0.0,-0.0772,-0.061,-0.0384,0.0,0.0,0.0,0.0,0.0,0.0184,0.0618,0.082,0.0929,0.0992,0.0389,0.0306,0.1015,0.1206,0.1256,0.1273,0.1326,0.1368,0.1363,0.1352,0.1252,0.1009,0.1247,0.1585,0.2049,0.221,0.2579,0.3026,0.3108,0.3267,0.3867,0.4824,0.565,0.6199,0.628,0.6277,0.628,0.628,0.628,0.628,0.628,0.6486,0.695,0.7487,0.7989,0.8537,0.9386,0.9857,0.9466,0.9348,0.931,0.9296,0.9291,0.9626,1.0664,1.1589,1.2286,-1.2351,-1.2305,-1.2305,-1.2305,-1.2305,-1.2305,-1.2183,-1.1935,-1.157,0.0,0.0,-1.1176,-1.1085,-1.1049,-1.0854,-1.072,-1.0673,-1.0673,-1.0646,-1.0586,-1.0586,-1.0586,-1.0586,-1.0586,-1.0586,-1.0579,-1.0307,-1.0179,-1.0165,-0.9915,-0.9716,-0.9566,-0.9254,-0.8425,-0.7093,-0.5552,-0.4733,-0.468,-0.4556,-0.4491,-0.4491,-0.4491,-0.4419,-0.4264,-0.4375,-0.4324,-0.4048,-0.414,-0.3926,-0.3333,-0.3326,-0.3256,-0.3045,-0.2635,-0.2161,-0.166,-0.1423,-0.1017,-0.0429,-0.0386,-0.0333,-0.0217,-0.023,-0.0161,0.0,0.0,0.0,0.0,0.0,0.0,0.0,0.0,0.0,0.0,0.0,0.0,0.0,0.0,0.0,0.0,0.0,0.0412,0.1487,0.1451,0.1608,0.2309,0.2387,0.266,0.295,0.3964,0.5179,0.6083,0.628,0.628,0.628,0.628,0.628,0.628,0.628,0.628,0.6412,0.6988,0.748,0.7514,0.8351,0.8822,0.8784,0.8475,0.8342,0.8708,0.8494,0.838,0.9007,1.0477,1.1626,-1.2569,-1.2305,-1.2305,-1.2305,-1.2305,-1.2305,-1.2278,-1.2198,-1.1628,-1.1412,-1.1406,-1.1366,-1.1346,-1.1346,-1.1306,-1.1169,-1.0958,-1.0952,-1.0818,-1.0593,-1.0586,-1.0586,-1.0586,-1.0586,-1.0586,-1.0586,-1.053,-1.0526,-1.0492,-1.02,-0.973,-0.9141,-0.8835,-0.8141,-0.71,-0.6223,-0.5661,-0.5355,-0.4787,-0.4491,-0.4491,-0.4491,-0.4481,-0.4457,-0.4331,-0.4224,-0.417,-0.4184,-0.4151,-0.4046,-0.4194,-0.3987,-0.3315,-0.3204,-0.2833,-0.2181,-0.2063,-0.1994,-0.1883,-0.1906,-0.1622,-0.1013,-0.1049,-0.08,0.0,0.0,0.0,0.0,0.0,0.0,0.0,0.0,0.0,0.0,0.0,0.0,0.0,0.0,0.0,0.0,0.0,0.0,0.0,0.0,0.0,0.0,0.0,0.0843,0.1958,0.348,0.5021,0.6002,0.628,0.628,0.628,0.628,0.628,0.628,0.628,0.628,0.628,0.647,0.6625,0.6548,0.7384,0.7629,0.7061,0.7399,0.7476,0.7176,0.7373,0.7853,0.8034,0.8984,0.9738,-1.2919,-1.278,-1.2773,-1.2711,-1.2551,-1.2371,-1.2305,-1.226,-1.2017,-1.1886,-1.1866,-1.1744,-1.167,-1.165,-1.1496,-1.1332,-1.1212,-1.1212,-1.1156,-1.1022,-1.0885,-1.0827,-1.0798,-1.066,-1.0586,-1.0586,-1.0586,-1.0586,-1.0573,-1.0437,-1.0199,-0.9793,-0.8709,-0.7814,-0.7178,-0.6007,-0.5328,-0.5176,-0.4727,-0.4491,-0.4491,-0.4491,-0.4491,-0.4491,-0.4395,-0.4362,-0.4365,-0.4362,-0.4378,-0.4365,-0.4457,-0.4333,-0.397,-0.3967,-0.3624,-0.2864,-0.2805,-0.2605,-0.2216,-0.2313,-0.2253,-0.1997,-0.201,-0.1676,-0.0774,-0.0278,0.0,0.0,0.0,0.0,0.0,0.0,0.0,0.0,0.0,0.0,0.0,0.0,0.0,0.0,0.0,0.0,0.0,0.0,0.0,0.0,0.0,0.0,0.1412,0.237,0.3616,0.5099,0.5925,0.6257,0.628,0.628,0.628,0.628,0.628,0.628,0.628,0.628,0.628,0.63,0.6718,0.6756,0.6338,0.6644,0.6702,0.6555,0.6661,0.7043,0.7195,0.7549,0.8194,-1.3247,-1.3206,-1.3206,-1.3092,-1.2864,-1.2544,-1.2405,-1.2398,-1.2306,-1.2305,-1.2271,-1.2058,-1.1989,-1.1955,-1.1724,-1.1573,-1.1513,-1.1506,-1.1455,-1.1386,-1.1196,-1.1089,-1.1076,-1.0865,-1.0754,-1.0693,-1.0687,-1.0676,-1.0615,-1.0586,-1.0586,-1.0417,-0.8894,-0.7927,-0.762,-0.605,-0.5224,-0.5132,-0.4771,-0.4576,-0.4556,-0.4522,-0.4491,-0.4491,-0.4487,-0.4491,-0.4491,-0.4491,-0.4491,-0.4491,-0.4491,-0.4491,-0.4491,-0.4491,-0.4222,-0.3666,-0.3607,-0.3382,-0.2884,-0.2985,-0.3054,-0.2944,-0.2963,-0.2607,-0.1686,-0.0606,0.0,0.0,0.0,0.0,0.0,0.0,0.0,0.0,0.0,0.0,0.0,0.0,0.0,0.0,0.0,0.0,0.0,0.0,0.0,0.0,0.0,0.0,0.1076,0.1393,0.2363,0.3722,0.5277,0.6222,0.628,0.628,0.628,0.628,0.628,0.628,0.628,0.628,0.628,0.63,0.63,0.6354,0.6322,0.6357,0.639,0.6371,0.655,0.6603,0.665,0.6784,0.7156,-1.3413,-1.3227,-1.3233,-1.318,-1.3133,-1.2878,-1.2744,-1.2703,-1.2444,-1.2305,-1.2311,-1.2265,-1.2258,-1.2258,-1.2211,-1.2076,-1.1855,-1.1848,-1.1708,-1.1446,-1.1386,-1.1355,-1.1366,-1.1326,-1.1209,-1.0998,-1.0958,-1.0834,-1.0626,-1.0615,-1.0586,-1.0491,-0.9627,-0.8934,-0.8483,-0.7024,-0.6147,-0.588,-0.5219,-0.4794,-0.4685,-0.4563,-0.4491,-0.4491,-0.4491,-0.4491,-0.4491,-0.4491,-0.4491,-0.4491,-0.4491,-0.4491,-0.4494,-0.4491,-0.4463,-0.439,-0.4478,-0.4578,-0.4619,-0.4774,-0.4482,-0.3802,-0.3838,-0.3533,-0.2618,-0.1067,0.0,0.0,0.0,0.0,0.0,0.0,0.0,0.0,0.0,0.0,0.0,0.0,0.0,0.0,0.0,0.0,0.0,0.0,0.0,0.0,0.0,0.0,0.0311,0.0953,0.1543,0.2387,0.4271,0.596,0.6164,0.628,0.628,0.628,0.6306,0.631,0.631,0.6294,0.6284,0.6324,0.6314,0.6324,0.6341,0.6375,0.6471,0.6495,0.6586,0.6681,0.6695,0.6782,0.7066,-1.382,-1.3728,-1.3728,-1.3607,-1.3413,-1.3146,-1.3039,-1.3012,-1.2737,-1.2603,-1.2557,-1.2397,-1.2305,-1.2305,-1.2305,-1.2231,-1.2131,-1.2142,-1.2064,-1.1913,-1.177,-1.1701,-1.1677,-1.1479,-1.1339,-1.1219,-1.1076,-1.0952,-1.0841,-1.068,-1.0586,-1.0507,-0.9722,-0.897,-0.8286,-0.7166,-0.6286,-0.5651,-0.5229,-0.4997,-0.4916,-0.4732,-0.4624,-0.46,-0.4553,-0.4491,-0.4491,-0.4491,-0.4491,-0.4491,-0.4491,-0.4532,-0.4606,-0.4624,-0.4651,-0.4739,-0.4789,-0.4875,-0.5005,-0.5066,-0.5009,-0.4746,-0.4864,-0.4563,-0.3701,-0.3316,-0.2848,-0.1859,-0.0746,-0.0215,-0.0794,-0.0371,0.0,0.0,0.0,0.0,0.0,0.0,0.0,0.0,0.0,0.0,0.0,0.0,0.0,0.0,0.0,0.0,0.0,0.04,0.0879,0.1615,0.303,0.4267,0.5174,0.5944,0.6206,0.6317,0.6371,0.6409,0.6344,0.6457,0.6518,0.6423,0.6471,0.6515,0.6556,0.6573,0.6607,0.6641,0.6732,0.6833,0.6918,0.6964,0.697,-1.4109,-1.4109,-1.4109,-1.3961,-1.372,-1.3433,-1.3307,-1.3267,-1.3026,-1.2864,-1.2783,-1.2556,-1.2378,-1.2311,-1.2305,-1.2305,-1.2305,-1.2305,-1.2305,-1.226,-1.2096,-1.2009,-1.1982,-1.1777,-1.1606,-1.1513,-1.136,-1.1156,-1.1012,-1.0827,-1.0673,-1.0479,-0.9738,-0.8973,-0.8339,-0.7502,-0.6625,-0.5837,-0.5612,-0.5446,-0.5206,-0.493,-0.4792,-0.4763,-0.4661,-0.4603,-0.4617,-0.4614,-0.4617,-0.4617,-0.4614,-0.4651,-0.4741,-0.4752,-0.4823,-0.4928,-0.4963,-0.5024,-0.5166,-0.5176,-0.524,-0.5375,-0.5518,-0.5323,-0.4861,-0.5156,-0.5014,-0.4027,-0.2546,-0.1996,-0.1372,-0.0628,0.0,0.0,0.0,0.0,0.0,0.0,0.0,0.0,0.0,0.0,0.0,0.0,0.0,0.0,0.0,0.0,0.0,0.0,0.0321,0.1082,0.1969,0.3253,0.4531,0.577,0.6288,0.6436,0.6505,0.6518,0.642,0.6593,0.6685,0.6576,0.6654,0.6688,0.6658,0.6685,0.6762,0.6809,0.6887,0.696,0.7034,0.7085,0.7092,-1.4109,-1.4109,-1.4109,-1.4075,-1.4063,-1.3727,-1.358,-1.3567,-1.3293,-1.3059,-1.2863,-1.2777,-1.261,-1.2325,-1.2338,-1.2305,-1.2305,-1.2305,-1.2305,-1.2305,-1.2278,-1.2278,-1.2285,-1.2265,-1.2129,-1.1875,-1.1795,-1.1527,-1.1029,-1.0989,-1.0861,-1.0595,-0.9823,-0.9318,-0.9092,-0.8366,-0.7502,-0.6633,-0.6535,-0.6199,-0.5456,-0.5186,-0.5024,-0.4916,-0.4879,-0.4859,-0.4869,-0.4875,-0.4875,-0.4875,-0.4862,-0.4879,-0.4892,-0.4899,-0.4963,-0.5069,-0.5105,-0.517,-0.5351,-0.5371,-0.5385,-0.5423,-0.5535,-0.5565,-0.548,-0.5654,-0.5719,-0.5796,-0.5558,-0.4552,-0.2172,-0.1019,0.0,0.0,0.0,0.0,0.0,0.0,0.0,0.0,0.0,0.0,0.0,0.0,0.0,0.0,0.0,0.0,0.0,0.0,0.0,0.0,0.1792,0.3621,0.4729,0.5882,0.6561,0.6671,0.662,0.6675,0.6664,0.6678,0.6698,0.6702,0.6749,0.6766,0.6746,0.6814,0.6924,0.6995,0.7029,0.7085,0.7088,0.7092,0.7117,-1.4109,-1.4109,-1.4109,-1.4109,-1.4075,-1.3968,-1.3928,-1.3895,-1.3587,-1.3407,-1.33,-1.3153,-1.2898,-1.2623,-1.2623,-1.2497,-1.2318,-1.2305,-1.2305,-1.2305,-1.2305,-1.2305,-1.2305,-1.2305,-1.2258,-1.2138,-1.1993,-1.1681,-1.1316,-1.1259,-1.1206,-1.1062,-1.0637,-1.0128,-0.9584,-0.9085,-0.814,-0.6866,-0.6719,-0.6285,-0.5495,-0.5337,-0.527,-0.5212,-0.5016,-0.4918,-0.4918,-0.4918,-0.4918,-0.4918,-0.4918,-0.4947,-0.5034,-0.5148,-0.5239,-0.5287,-0.5294,-0.5337,-0.5385,-0.5395,-0.544,-0.5525,-0.5644,-0.5751,-0.5871,-0.6003,-0.6141,-0.6192,-0.6239,-0.5337,-0.3967,-0.2618,-0.1703,-0.1156,-0.1,-0.0706,0.0,0.0,0.0,0.0,0.0,0.0,0.0,0.0,0.0,0.0,0.0,0.0,0.0,0.0,0.0,0.0,0.1306,0.2734,0.3918,0.5643,0.6718,0.6728,0.6722,0.6753,0.6763,0.6877,0.6918,0.685,0.686,0.6908,0.6921,0.6938,0.7066,0.7077,0.7117,0.7117,0.7117,0.7117,0.7117,-1.4109,-1.4109,-1.4109,-1.4109,-1.4109,-1.4109,-1.4109,-1.4083,-1.3874,-1.3693,-1.358,-1.3407,-1.318,-1.2951,-1.2831,-1.2683,-1.2445,-1.2358,-1.2305,-1.2305,-1.2305,-1.2305,-1.2305,-1.2305,-1.2305,-1.2278,-1.2111,-1.1857,-1.1603,-1.157,-1.1506,-1.1375,-1.0906,-1.0363,-0.9771,-0.9275,-0.8257,-0.7079,-0.6793,-0.6339,-0.5577,-0.5436,-0.5395,-0.5368,-0.5178,-0.506,-0.5064,-0.506,-0.506,-0.506,-0.5076,-0.5104,-0.519,-0.5334,-0.5395,-0.5395,-0.5392,-0.5419,-0.5463,-0.5484,-0.5535,-0.565,-0.5793,-0.5907,-0.5993,-0.6192,-0.6267,-0.628,-0.628,-0.5944,-0.5315,-0.455,-0.3458,-0.2017,-0.1586,-0.1161,0.0,0.0,0.0,0.0,0.0,0.0,0.0,0.0,0.0,0.0,0.0,0.0,0.0,0.0,0.0,0.0,0.0,0.2299,0.3529,0.512,0.6502,0.668,0.6877,0.6864,0.6898,0.7029,0.7058,0.7022,0.7029,0.709,0.7117,0.7117,0.7117,0.7117,0.7117,0.7117,0.7117,0.7117,0.7117,-1.4123,-1.4108,-1.4109,-1.4109,-1.4109,-1.4109,-1.4109,-1.4082,-1.4089,-1.3908,-1.3673,-1.3606,-1.346,-1.3206,-1.2998,-1.2836,-1.275,-1.2531,-1.2346,-1.2305,-1.2305,-1.2305,-1.2305,-1.2305,-1.2305,-1.2305,-1.2291,-1.2138,-1.1902,-1.1882,-1.1744,-1.1313,-1.0616,-1.0268,-0.9968,-0.9148,-0.8106,-0.7355,-0.7048,-0.6487,-0.5689,-0.5501,-0.544,-0.5426,-0.5395,-0.5362,-0.5385,-0.5375,-0.5358,-0.5365,-0.5365,-0.5385,-0.5371,-0.5408,-0.5399,-0.5412,-0.5405,-0.5477,-0.5583,-0.561,-0.5668,-0.5793,-0.5917,-0.5998,-0.6071,-0.6199,-0.628,-0.628,-0.628,-0.6219,-0.6203,-0.6058,-0.4918,-0.2271,-0.1884,-0.1329,0.0,0.0,0.0,0.0,0.0,0.0,0.0,0.0,0.0,0.0,0.0,0.0,0.0,0.0,0.0,0.0,0.0785,0.1746,0.315,0.457,0.5744,0.6653,0.6916,0.705,0.7026,0.711,0.711,0.7066,0.7066,0.7117,0.7117,0.7117,0.7117,0.7117,0.7117,0.7117,0.7117,0.7117,0.7117,-1.4361,-1.4362,-1.4162,-1.4109,-1.4109,-1.4109,-1.4109,-1.4109,-1.4109,-1.4035,-1.3955,-1.3948,-1.3781,-1.352,-1.3373,-1.3253,-1.3086,-1.2953,-1.2712,-1.2371,-1.2311,-1.2311,-1.2305,-1.2305,-1.2305,-1.2305,-1.2305,-1.2258,-1.2196,-1.2158,-1.2104,-1.1921,-1.1491,-1.1301,-1.1088,-1.0079,-0.9004,-0.8157,-0.7408,-0.6608,-0.5824,-0.5705,-0.5678,-0.5671,-0.559,-0.5535,-0.5549,-0.5453,-0.5395,-0.5395,-0.5395,-0.5395,-0.5395,-0.5395,-0.5426,-0.5539,-0.5535,-0.56,-0.5708,-0.576,-0.58,-0.5913,-0.5973,-0.6062,-0.6192,-0.6246,-0.628,-0.628,-0.628,-0.628,-0.6313,-0.6395,-0.5582,-0.3915,-0.3094,-0.2231,-0.1143,-0.0418,0.0,0.0,0.0,0.0,0.0,0.0,0.0,0.0,0.0,0.0,0.0,0.0,0.0,0.0,0.0,0.0,0.2459,0.3727,0.4907,0.6113,0.6716,0.7073,0.7117,0.7117,0.7117,0.7117,0.7117,0.7117,0.7117,0.7117,0.7117,0.7117,0.7117,0.7117,0.7117,0.7117,0.7117,-1.4616,-1.4481,-1.4322,-1.4188,-1.4116,-1.4109,-1.4109,-1.4109,-1.4109,-1.4109,-1.4103,-1.4103,-1.3988,-1.3787,-1.3674,-1.3507,-1.3347,-1.3247,-1.2987,-1.2652,-1.2517,-1.2437,-1.2325,-1.2305,-1.2305,-1.2305,-1.2305,-1.2305,-1.2305,-1.2305,-1.2305,-1.224,-1.1784,-1.1234,-1.0876,-0.9734,-0.8668,-0.7765,-0.7042,-0.6426,-0.5983,-0.583,-0.58,-0.5786,-0.5732,-0.5688,-0.5661,-0.559,-0.5508,-0.5433,-0.5446,-0.5484,-0.5504,-0.5542,-0.559,-0.5617,-0.5678,-0.5732,-0.5842,-0.587,-0.5949,-0.6059,-0.6115,-0.6171,-0.6279,-0.628,-0.628,-0.628,-0.628,-0.6323,-0.6381,-0.645,-0.6138,-0.5545,-0.4486,-0.3248,-0.196,-0.0689,0.0,0.0,0.0,0.0,0.0,0.0,0.0,0.0,0.0,0.0,0.0,0.0,0.0,0.0,0.0,0.0,0.0,0.2882,0.4085,0.5309,0.6451,0.6852,0.7117,0.7117,0.7117,0.7117,0.7117,0.7117,0.7117,0.7117,0.7117,0.7117,0.7117,0.7117,0.7117,0.7117,0.7117,-1.4845,-1.4576,-1.4507,-1.4362,-1.4142,-1.4123,-1.4109,-1.4109,-1.4109,-1.4109,-1.4109,-1.4109,-1.4103,-1.4008,-1.3794,-1.3653,-1.3586,-1.3427,-1.328,-1.3153,-1.2965,-1.2698,-1.2345,-1.2305,-1.2305,-1.2305,-1.2305,-1.2305,-1.2305,-1.2305,-1.2305,-1.2224,-1.1502,-1.046,-0.9796,-0.8471,-0.7679,-0.6874,-0.6305,-0.6081,-0.6018,-0.5922,-0.585,-0.5854,-0.5833,-0.5799,-0.581,-0.5772,-0.5668,-0.5484,-0.5556,-0.5627,-0.5678,-0.5745,-0.5756,-0.5715,-0.5769,-0.5888,-0.5981,-0.6044,-0.6095,-0.6252,-0.6253,-0.6277,-0.6277,-0.628,-0.628,-0.6303,-0.6327,-0.6381,-0.6474,-0.6539,-0.6481,-0.6422,-0.5223,-0.3743,-0.1948,-0.0598,0.0,0.0,0.0,0.0,0.0,0.0,0.0,0.0,0.0,0.0,0.0,0.0,0.0,0.0,0.0,0.0,0.1165,0.2148,0.335,0.453,0.5755,0.6517,0.7029,0.7117,0.7117,0.7117,0.7117,0.7117,0.7117,0.7117,0.7117,0.7117,0.7117,0.7117,0.7117,0.7117,0.7117,-1.5237,-1.5124,-1.4703,-1.4461,-1.4376,-1.4188,-1.4109,-1.4109,-1.4109,-1.4109,-1.4109,-1.4109,-1.4109,-1.4096,-1.4029,-1.3968,-1.3928,-1.3874,-1.3714,-1.352,-1.344,-1.2959,-1.2432,-1.2305,-1.2311,-1.2318,-1.2311,-1.2305,-1.2305,-1.2305,-1.2305,-1.2305,-1.2003,-1.1354,-1.0415,-0.9315,-0.8404,-0.7422,-0.657,-0.6212,-0.6205,-0.6175,-0.618,-0.617,-0.6027,-0.5957,-0.5937,-0.5842,-0.5779,-0.5705,-0.5718,-0.5732,-0.5733,-0.579,-0.5844,-0.5906,-0.5939,-0.6015,-0.6178,-0.6212,-0.6259,-0.6289,-0.628,-0.628,-0.628,-0.628,-0.628,-0.6327,-0.6422,-0.6515,-0.6555,-0.6675,-0.6487,-0.5713,-0.465,-0.3051,-0.1171,0.0,0.0,0.0,0.0,0.0,0.0,0.0,0.0,0.0,0.0,0.0,0.0,0.0,0.0,0.0,0.0,0.0,0.0606,0.1545,0.2593,0.3772,0.4974,0.6115,0.6672,0.7117,0.7117,0.7117,0.7117,0.7117,0.7117,0.7117,0.7117,0.7117,0.7117,0.7117,0.7117,0.7117,0.7117,-1.5488,-1.5371,-1.503,-1.4721,-1.4487,-1.4321,-1.4202,-1.4102,-1.4109,-1.4109,-1.4109,-1.4109,-1.4109,-1.4109,-1.4103,-1.4109,-1.4109,-1.4109,-1.3988,-1.3814,-1.3646,-1.3253,-1.2786,-1.2597,-1.2504,-1.249,-1.2365,-1.2311,-1.2305,-1.2305,-1.2305,-1.2305,-1.2305,-1.1564,-1.0121,-0.9618,-0.8561,-0.7326,-0.6567,-0.628,-0.628,-0.628,-0.6296,-0.6267,-0.6166,-0.6129,-0.6112,-0.6059,-0.5969,-0.5897,-0.5876,-0.5898,-0.5955,-0.5981,-0.6045,-0.6107,-0.6134,-0.6192,-0.6253,-0.628,-0.628,-0.628,-0.628,-0.628,-0.628,-0.63,-0.6306,-0.6382,-0.6504,-0.658,-0.6688,-0.686,-0.62,-0.4882,-0.3906,-0.2669,-0.0896,-0.0337,0.0,0.0,0.0,0.0,0.0,0.0,0.0,0.0,0.0,0.0,0.0,0.0,0.0,0.0,0.0,0.0,0.0,0.1188,0.2013,0.3126,0.4663,0.578,0.6561,0.7117,0.7117,0.7117,0.7117,0.7117,0.7117,0.7117,0.7117,0.7117,0.7117,0.7117,0.7117,0.7117,0.7117,-1.5655,-1.5438,-1.5404,-1.509,-1.4647,-1.4583,-1.4409,-1.4168,-1.4155,-1.4128,-1.4088,-1.4109,-1.4109,-1.4109,-1.4109,-1.4109,-1.4109,-1.4109,-1.4103,-1.3981,-1.3814,-1.35,-1.3307,-1.2971,-1.2832,-1.2791,-1.2537,-1.245,-1.2437,-1.2385,-1.2331,-1.2318,-1.2305,-1.1192,-0.9863,-0.932,-0.8222,-0.6756,-0.6374,-0.628,-0.628,-0.628,-0.628,-0.6273,-0.627,-0.6253,-0.626,-0.6246,-0.6183,-0.6042,-0.6035,-0.6112,-0.6259,-0.6286,-0.6286,-0.6256,-0.6253,-0.6263,-0.628,-0.628,-0.628,-0.628,-0.628,-0.6294,-0.633,-0.6347,-0.6379,-0.6508,-0.6525,-0.6578,-0.6523,-0.678,-0.5645,-0.397,-0.3322,-0.2812,-0.1768,0.0,0.0,0.0,0.0,0.0,0.0,0.0,0.0,0.0,0.0,0.0,0.0,0.0,0.0,0.0,0.0,0.0,0.0,0.0852,0.1612,0.257,0.4399,0.5739,0.665,0.7117,0.7117,0.7117,0.7117,0.7117,0.7117,0.7117,0.7117,0.7117,0.7117,0.7117,0.7117,0.7117,0.7117,-1.5775,-1.5695,-1.5491,-1.5324,-1.5177,-1.4986,-1.4725,-1.4429,-1.4401,-1.4289,-1.4135,-1.4109,-1.4109,-1.4109,-1.4109,-1.4109,-1.4109,-1.4109,-1.4109,-1.4096,-1.4041,-1.3968,-1.3774,-1.3394,-1.3153,-1.3086,-1.3053,-1.2905,-1.2731,-1.267,-1.2544,-1.2338,-1.2123,-1.1298,-0.9595,-0.9155,-0.8313,-0.666,-0.6303,-0.628,-0.628,-0.628,-0.628,-0.628,-0.628,-0.628,-0.628,-0.628,-0.6263,-0.6239,-0.6226,-0.6236,-0.627,-0.628,-0.628,-0.628,-0.628,-0.628,-0.628,-0.628,-0.628,-0.6313,-0.6323,-0.6347,-0.644,-0.646,-0.6515,-0.6634,-0.6738,-0.651,-0.5949,-0.5783,-0.4616,-0.2994,-0.2303,-0.1813,0.0,0.0,0.0,0.0,0.0,0.0,0.0,0.0,0.0,0.0,0.0,0.0,0.0,0.0,0.0,0.0,0.0,0.0,0.0,0.0,0.1254,0.2169,0.3885,0.5425,0.6359,0.7117,0.7117,0.7117,0.7117,0.7117,0.7117,0.7117,0.7117,0.7117,0.7117,0.7117,0.7117,0.7117,0.7117,-1.5801,-1.5788,-1.5635,-1.5524,-1.5384,-1.5247,-1.5026,-1.4736,-1.4547,-1.4414,-1.4282,-1.4183,-1.4109,-1.4109,-1.4109,-1.4109,-1.4109,-1.4109,-1.4109,-1.4109,-1.4103,-1.4103,-1.4062,-1.3794,-1.3561,-1.3407,-1.3233,-1.3106,-1.3019,-1.2959,-1.2851,-1.2475,-1.2073,-1.0956,-0.9475,-0.8885,-0.7837,-0.67,-0.6327,-0.628,-0.628,-0.628,-0.628,-0.628,-0.628,-0.628,-0.628,-0.628,-0.628,-0.628,-0.6303,-0.63,-0.628,-0.628,-0.628,-0.628,-0.628,-0.628,-0.628,-0.6284,-0.6307,-0.6379,-0.6399,-0.6487,-0.6542,-0.6563,-0.6614,-0.6735,-0.6734,-0.6448,-0.5518,-0.4754,-0.3618,-0.2392,-0.179,-0.1277,0.0,0.0,0.0,0.0,0.0,0.0,0.0,0.0,0.0,0.0,0.0,0.0,0.0,0.0,0.0,0.0,0.0,0.0,0.0,0.0,0.0,0.1946,0.3306,0.4665,0.5758,0.6492,0.7117,0.7117,0.7117,0.7117,0.7117,0.7117,0.7117,0.7117,0.7117,0.7117,0.7117,0.7117,0.7117,-1.5801,-1.5801,-1.5801,-1.5661,-1.5478,-1.5464,-1.5314,-1.5033,-1.477,-1.4614,-1.4461,-1.4249,-1.4162,-1.4095,-1.4109,-1.4109,-1.4109,-1.4109,-1.4109,-1.4109,-1.4109,-1.4109,-1.4019,-1.3764,-1.3443,-1.34,-1.3446,-1.3313,-1.3008,-1.3147,-1.3113,-1.2731,-1.1797,-1.0768,-0.9581,-0.8453,-0.7517,-0.6642,-0.6443,-0.6389,-0.6369,-0.6352,-0.634,-0.628,-0.628,-0.628,-0.6287,-0.6307,-0.634,-0.6314,-0.6351,-0.634,-0.6303,-0.628,-0.628,-0.628,-0.628,-0.632,-0.6351,-0.6338,-0.6382,-0.6508,-0.6525,-0.66,-0.6695,-0.6685,-0.6749,-0.6685,-0.659,-0.5933,-0.5164,-0.4018,-0.2815,-0.1768,-0.1478,-0.1031,0.0,0.0,0.0,0.0,0.0,0.0,0.0,0.0,0.0,0.0,0.0,0.0,0.0,0.0,0.0,0.0,0.0,0.0,0.0,0.0,0.0,0.1909,0.3092,0.4166,0.5369,0.6381,0.7095,0.7117,0.7117,0.7051,0.7051,0.7117,0.7117,0.7117,0.7117,0.7117,0.7117,0.7117,0.7141,-1.5801,-1.5801,-1.5801,-1.5775,-1.5735,-1.5728,-1.5561,-1.5351,-1.5244,-1.4963,-1.4541,-1.4462,-1.4295,-1.4155,-1.4109,-1.4109,-1.4109,-1.4109,-1.4109,-1.4109,-1.4109,-1.4109,-1.3976,-1.3203,-1.2687,-1.2823,-1.3117,-1.3032,-1.2558,-1.2985,-1.2931,-1.2804,-1.183,-1.0696,-0.9641,-0.87,-0.7509,-0.6788,-0.6627,-0.66,-0.658,-0.6512,-0.6436,-0.6338,-0.6335,-0.6321,-0.6351,-0.6419,-0.6477,-0.6471,-0.658,-0.6498,-0.6369,-0.6311,-0.6311,-0.6318,-0.6324,-0.6392,-0.646,-0.648,-0.6535,-0.6617,-0.6661,-0.6736,-0.6809,-0.6823,-0.6877,-0.6657,-0.5904,-0.4857,-0.3968,-0.286,-0.1657,-0.0718,0.0,0.0,0.0,0.0,0.0,0.0,0.0,0.0,0.0,0.0,0.0,0.0,0.0,0.0,0.0,0.0,0.0,0.0,0.0,0.0,0.0,0.0,0.0563,0.1966,0.3139,0.4042,0.5245,0.6485,0.7054,0.6473,0.6557,0.676,0.6827,0.683,0.6897,0.6735,0.6897,0.7105,0.7192,0.7249,0.7256,-1.5801,-1.5801,-1.5801,-1.5801,-1.5801,-1.5801,-1.5728,-1.5588,-1.5458,-1.5244,-1.4928,-1.4647,-1.4427,-1.4295,-1.4135,-1.4088,-1.4109,-1.4109,-1.4109,-1.4109,-1.4109,-1.4109,-1.3934,-1.2851,-1.2007,-1.1724,-1.1959,-1.201,-1.1335,-1.1704,-1.1984,-1.1419,-1.0557,-0.9728,-0.9018,-0.7954,-0.7316,-0.6801,-0.6753,-0.6705,-0.6705,-0.662,-0.6566,-0.6529,-0.6505,-0.6508,-0.6518,-0.6556,-0.661,-0.6603,-0.6658,-0.661,-0.6536,-0.6508,-0.6528,-0.6512,-0.6501,-0.6525,-0.6593,-0.6614,-0.6664,-0.679,-0.6799,-0.687,-0.6965,-0.7002,-0.7016,-0.6725,-0.5733,-0.4483,-0.3705,-0.199,-0.0718,0.0,0.0,0.0,0.0,0.0,0.0,0.0,0.0,0.0,0.0,0.0,0.0,0.0,0.0,0.0,0.0,0.0,0.0,0.0,0.0,0.0,0.0,0.0,0.0,0.1763,0.2792,0.3707,0.4331,0.5216,0.5352,0.4977,0.536,0.5832,0.5697,0.5386,0.5866,0.6427,0.6767,0.7047,0.7269,0.7381,0.7388,-1.5801,-1.5801,-1.5801,-1.5801,-1.5801,-1.5801,-1.5801,-1.5755,-1.5591,-1.5451,-1.5354,-1.4937,-1.4689,-1.4543,-1.4329,-1.4183,-1.4123,-1.4109,-1.4109,-1.4109,-1.4109,-1.4109,-1.373,-1.2638,-1.1488,-1.0826,-0.994,-1.0048,-1.0305,-1.0688,-1.0542,-1.0314,-0.9359,-0.8687,-0.8407,-0.7572,-0.7041,-0.6867,-0.6843,-0.6766,-0.6753,-0.6746,-0.6725,-0.6722,-0.6722,-0.6685,-0.6685,-0.6722,-0.6742,-0.6735,-0.6762,-0.6793,-0.6769,-0.6769,-0.6769,-0.6762,-0.6739,-0.6715,-0.6742,-0.6749,-0.6793,-0.6931,-0.6948,-0.7012,-0.7066,-0.709,-0.7085,-0.6827,-0.5487,-0.4328,-0.3415,-0.1455,0.0,0.0,0.0,0.0,0.0,0.0,0.0,0.0,0.0,0.0,0.0,0.0,0.0,0.0,0.0,0.0,0.0,0.0,0.0,0.0,0.0,0.0,0.0,0.0,0.0,0.1313,0.2062,0.2739,0.3079,0.3488,0.3498,0.3678,0.3794,0.4146,0.4012,0.4293,0.5036,0.5777,0.6506,0.704,0.7313,0.7473,0.7543,-1.5801,-1.5801,-1.5801,-1.5801,-1.5801,-1.5801,-1.5801,-1.5795,-1.5755,-1.5625,-1.5431,-1.5304,-1.5133,-1.4885,-1.4596,-1.4335,-1.419,-1.4128,-1.4136,-1.4116,-1.4109,-1.4109,-1.3737,-1.1735,-1.1042,-1.0243,-0.8619,-0.8299,-0.8995,-0.9918,-1.0385,-1.0034,-0.9187,-0.8782,-0.8397,-0.7516,-0.7099,-0.7061,-0.7041,-0.6974,-0.6901,-0.688,-0.6816,-0.6759,-0.6729,-0.6739,-0.677,-0.6823,-0.6874,-0.6891,-0.6974,-0.7031,-0.7045,-0.7045,-0.7045,-0.6989,-0.6867,-0.6759,-0.6853,-0.688,-0.6924,-0.7014,-0.7073,-0.7075,-0.7088,-0.7117,-0.7095,-0.7003,-0.5129,-0.3905,-0.3283,-0.1391,0.0,0.0,0.0,0.0,0.0,0.0,0.0,0.0,0.0,0.0,0.0,0.0,0.0,0.0,0.0,0.0,0.0,0.0,0.0,0.0,0.0,0.0,0.0,0.0,0.0,0.0,0.0,0.0,0.2022,0.2268,0.2417,0.2548,0.0,0.0,0.2875,0.3393,0.4293,0.5,0.5623,0.6526,0.7413,0.7527,0.7665,-1.5801,-1.5801,-1.5801,-1.5801,-1.5801,-1.5801,-1.5801,-1.5801,-1.5801,-1.5741,-1.5618,-1.5458,-1.526,-1.5006,-1.4839,-1.4609,-1.4382,-1.4329,-1.4229,-1.4136,-1.4102,-1.4088,-1.354,-1.1826,-1.0611,-0.9918,-0.8466,-0.7467,-0.8035,-0.8317,-0.8641,-0.8641,-0.8207,-0.7812,-0.8013,-0.7404,-0.7158,-0.7114,-0.7107,-0.7087,-0.7043,-0.6997,-0.697,-0.6928,-0.6918,-0.6914,-0.6931,-0.6975,-0.7004,-0.7014,-0.7078,-0.7092,-0.7095,-0.7114,-0.7092,-0.7082,-0.6991,-0.6972,-0.6994,-0.7001,-0.7038,-0.7068,-0.7117,-0.7114,-0.7117,-0.7117,-0.7117,-0.7073,-0.4949,-0.3772,-0.3205,-0.1381,0.0,0.0,0.0,0.0,0.0,0.0,0.0,0.0,0.0,0.0,0.0,0.0,0.0,0.0,0.0,0.0,0.0,0.0,0.0,0.0,0.0,0.0,0.0,0.0,0.0,0.0,0.0,0.0,0.0,0.1232,0.0,0.0,0.0,0.0,0.0,0.2251,0.2917,0.3811,0.4722,0.5728,0.6741,0.7689,0.7798,-1.5801,-1.5801,-1.5801,-1.5801,-1.5801,-1.5801,-1.5801,-1.5801,-1.5801,-1.5801,-1.5748,-1.5598,-1.538,-1.5146,-1.5079,-1.4932,-1.4636,-1.4629,-1.4449,-1.4282,-1.4133,-1.3957,-1.3058,-1.152,-1.0421,-1.0144,-0.8097,-0.7272,-0.7161,-0.725,-0.7356,-0.7117,-0.7356,-0.7205,-0.7161,-0.7139,-0.7117,-0.7117,-0.7117,-0.7114,-0.7107,-0.7107,-0.7107,-0.7107,-0.7117,-0.7117,-0.7117,-0.711,-0.7088,-0.7088,-0.7088,-0.7117,-0.7117,-0.7117,-0.7117,-0.7095,-0.7077,-0.7083,-0.7093,-0.71,-0.7117,-0.7117,-0.7117,-0.7117,-0.7117,-0.7117,-0.7117,-0.7095,-0.4972,-0.389,-0.3132,-0.1442,0.0,0.0,0.0,0.0,0.0,0.0,0.0,0.0,0.0,0.0,0.0,0.0,0.0,0.0,0.0,0.0,0.0,0.0,0.0,0.0,0.0,0.0,0.0,0.0,0.0,0.0,0.0,0.0,0.0,0.0,0.0,0.0,0.0,0.0,0.0,0.0,0.1551,0.2639,0.3743,0.4927,0.6,0.7123,0.7914,-1.5801,-1.5801,-1.5801,-1.5801,-1.5801,-1.5801,-1.5801,-1.5801,-1.5801,-1.5801,-1.5801,-1.5755,-1.5581,-1.5424,-1.536,-1.5233,-1.4959,-1.4959,-1.475,-1.4561,-1.4367,-1.376,-1.2683,-1.1419,-1.0127,-0.913,-0.7804,-0.7241,-0.7131,-0.7168,-0.7141,-0.7117,-0.7127,-0.7121,-0.7117,-0.7117,-0.7117,-0.7117,-0.7117,-0.7117,-0.7117,-0.7117,-0.7117,-0.7117,-0.7117,-0.7117,-0.7117,-0.7117,-0.7117,-0.7117,-0.7117,-0.7117,-0.7117,-0.7117,-0.7117,-0.7117,-0.7117,-0.7127,-0.7148,-0.7131,-0.7117,-0.7117,-0.7117,-0.7117,-0.7117,-0.7117,-0.7117,-0.6878,-0.4954,-0.3831,-0.2928,0.0,0.0,0.0,0.0,0.0,0.0,0.0,0.0,0.0,0.0,0.0,0.0,0.0,0.0,0.0,0.0,0.0,0.0,0.0,0.0,0.0,0.0,0.0,0.0,0.0,0.0,0.0,0.0,0.0,0.0,0.0,0.0,0.0,0.0,0.0,0.0,0.0,0.0,0.0,0.2813,0.4084,0.5658,0.7101,0.7715,-1.5801,-1.5801,-1.5801,-1.5801,-1.5801,-1.5801,-1.5801,-1.5801,-1.5801,-1.5801,-1.5801,-1.5795,-1.5748,-1.5655,-1.5645,-1.5504,-1.5264,-1.5253,-1.5059,-1.4899,-1.4646,-1.3939,-1.2771,-1.1464,-1.04,-0.9098,-0.7976,-0.7421,-0.7428,-0.7329,-0.7288,-0.7265,-0.7178,-0.7127,-0.7117,-0.7117,-0.7117,-0.7117,-0.7117,-0.7117,-0.7117,-0.7117,-0.7117,-0.7117,-0.7117,-0.7117,-0.7117,-0.7117,-0.7117,-0.7121,-0.7121,-0.7131,-0.7134,-0.7134,-0.7137,-0.7144,-0.7148,-0.7188,-0.7251,-0.7185,-0.7121,-0.7117,-0.7117,-0.7131,-0.7151,-0.7102,-0.7178,-0.651,-0.5064,-0.3755,-0.3392,0.0,0.0,0.0,0.0,0.0,0.0,0.0,0.0,0.0,0.0,0.0,0.0,0.0,0.0,0.0,0.0,0.0,0.0,0.0,0.0,0.0,0.0,0.0,0.0,0.0,0.0,0.0,0.0,0.0,0.0,0.0,0.0,0.0,0.0,0.0,0.0,0.0,0.0,0.0,0.249,0.3317,0.5022,0.7086,0.7587,-1.5801,-1.5801,-1.5801,-1.5801,-1.5801,-1.5801,-1.5801,-1.5801,-1.5801,-1.5801,-1.5801,-1.5801,-1.5801,-1.5801,-1.5788,-1.5732,-1.5558,-1.5498,-1.5331,-1.5024,-1.455,-1.376,-1.2518,-1.1189,-0.98,-0.8843,-0.8149,-0.7584,-0.756,-0.7485,-0.7451,-0.7394,-0.7292,-0.7192,-0.7117,-0.7117,-0.7117,-0.7117,-0.7117,-0.7117,-0.7117,-0.7117,-0.7117,-0.7117,-0.7117,-0.7117,-0.7141,-0.7164,-0.7168,-0.7139,-0.7139,-0.7192,-0.7192,-0.7195,-0.7212,-0.7235,-0.7263,-0.7333,-0.7373,-0.7356,-0.7256,-0.7293,-0.7286,-0.7279,-0.7246,-0.7192,-0.7188,-0.7204,-0.5263,-0.3708,-0.365,0.0,0.0,0.0,0.0,0.0,0.0,0.0,0.0,0.0,0.0,0.0,0.0,0.0,0.0,0.0,0.0,0.0,0.0,0.0,0.0,0.0,0.0,0.0,0.0,0.0,0.0,0.0,0.0,0.0,0.0,0.0,0.0,0.0,0.0,0.0,0.0,0.0,0.0,0.0,0.2867,0.4196,0.5702,0.7612,0.7764,-1.5801,-1.5801,-1.5801,-1.5801,-1.5801,-1.5801,-1.5801,-1.5801,-1.5801,-1.5801,-1.5778,-1.573,-1.5754,-1.573,-1.5652,-1.5572,-1.5748,-1.5735,-1.5521,-1.4984,-1.4189,-1.2835,-1.1446,-1.0184,-0.9284,-0.7987,-0.7651,-0.7678,-0.7641,-0.7607,-0.7597,-0.755,-0.7441,-0.7285,-0.7137,-0.7117,-0.7117,-0.7117,-0.7121,-0.7144,-0.7151,-0.7168,-0.7192,-0.7195,-0.7198,-0.7212,-0.7232,-0.7322,-0.7319,-0.7242,-0.7326,-0.736,-0.7366,-0.7389,-0.7417,-0.7522,-0.7543,-0.7567,-0.759,-0.7587,-0.7573,-0.7526,-0.7459,-0.7506,-0.7495,-0.7364,-0.7279,-0.7383,-0.5385,-0.4069,-0.3027,0.0,0.0,0.0,0.0,0.0,0.0,0.0,0.0,0.0,0.0,0.0,0.0,0.0,0.0,0.0,0.0,0.0,0.0,0.0,0.0,0.0,0.0,0.0,0.0,0.0,0.0,0.0,0.0,0.0,0.0,0.0,0.0,0.0,0.0,0.0,0.0,0.0,0.1184,0.2465,0.4372,0.5829,0.716,0.7889,0.7963,-1.5801,-1.5801,-1.5801,-1.5801,-1.5801,-1.5801,-1.5801,-1.5801,-1.5801,-1.5801,-1.5611,-1.4973,-1.5099,-1.5343,-1.4949,-1.4926,-1.5611,-1.5754,-1.5476,-1.4337,-1.3702,-1.2297,-1.0881,-0.9841,-0.9022,-0.8174,-0.7864,-0.7844,-0.7853,-0.7773,-0.7719,-0.7678,-0.7577,-0.7383,-0.7185,-0.7117,-0.7117,-0.7141,-0.7227,-0.7299,-0.7305,-0.7354,-0.7405,-0.7401,-0.7421,-0.7417,-0.7417,-0.7512,-0.7472,-0.7401,-0.7495,-0.7516,-0.7522,-0.7546,-0.7576,-0.7604,-0.7611,-0.7628,-0.7712,-0.7766,-0.7756,-0.7692,-0.7624,-0.7631,-0.7577,-0.7522,-0.7577,-0.7124,-0.5384,-0.4262,-0.3514,-0.1447,0.0,0.0,0.0,0.0,0.0,0.0,0.0,0.0,0.0,0.0,0.0,0.0,0.0,0.0,0.0,0.0,0.0,0.0,0.0,0.0,0.0,0.0,0.0,0.0,0.0,0.0,0.0,0.0,0.0,0.0,0.0,0.0,0.0,0.0,0.0,0.0429,0.1862,0.3367,0.4797,0.5954,0.6858,0.7537,0.7963,-1.5801,-1.5801,-1.5801,-1.5801,-1.5801,-1.5801,-1.5801,-1.5801,-1.5801,-1.5801,-1.5534,-1.4507,-1.4316,-1.4561,-1.3956,-1.347,-1.4418,-1.4394,-1.425,-1.3151,-1.2638,-1.1424,-1.0344,-0.9509,-0.8682,-0.8113,-0.7988,-0.7978,-0.7958,-0.7908,-0.7834,-0.779,-0.7716,-0.755,-0.7361,-0.7303,-0.7303,-0.7334,-0.7417,-0.7451,-0.7475,-0.7522,-0.758,-0.758,-0.758,-0.7584,-0.7607,-0.7634,-0.7628,-0.7614,-0.7621,-0.7668,-0.7675,-0.7675,-0.7699,-0.7705,-0.7739,-0.7787,-0.7875,-0.7925,-0.7885,-0.7783,-0.7753,-0.775,-0.7729,-0.7732,-0.777,-0.7125,-0.5336,-0.4455,-0.3613,0.0,0.0,0.0,0.0,0.0,0.0,0.0,0.0,0.0,0.0,0.0,0.0,0.0,0.0,0.0,0.0,0.0,0.0,0.0,0.0,0.0,0.0,0.0,0.0,0.0,0.0,0.0,0.0,0.0,0.0,0.0,0.0,0.0,0.0,0.0,0.0,0.0782,0.1762,0.2966,0.4368,0.5472,0.6431,0.721,0.7939,-1.5801,-1.5801,-1.5801,-1.5801,-1.5801,-1.5801,-1.5778,-1.5706,-1.5683,-1.5605,-1.5462,-1.3998,-1.356,-1.3488,-1.245,-1.2086,-1.2304,-1.2309,-1.2091,-1.1677,-1.1092,-1.0243,-0.9558,-0.8726,-0.8308,-0.8088,-0.7988,-0.7988,-0.7988,-0.7958,-0.7912,-0.7844,-0.7814,-0.7705,-0.7621,-0.7584,-0.758,-0.7546,-0.757,-0.7597,-0.7617,-0.7645,-0.7689,-0.7672,-0.7692,-0.7689,-0.7716,-0.7736,-0.7743,-0.774,-0.7729,-0.7773,-0.7793,-0.7818,-0.7888,-0.7956,-0.7979,-0.7979,-0.7983,-0.7982,-0.7982,-0.7932,-0.7962,-0.7968,-0.7948,-0.7907,-0.7939,-0.7149,-0.5638,-0.4712,0.0,0.0,0.0,0.0,0.0,0.0,0.0,0.0,0.0,0.0,0.0,0.0,0.0,0.0,0.0,0.0,0.0,0.0,0.0,0.0,0.0,0.0,0.0,0.0,0.0,0.0,0.0,0.0,0.0,0.0,0.0,0.0,0.0,0.0,0.0,0.0,0.0,0.0,0.1159,0.244,0.3667,0.5447,0.6553,0.736,0.7988,-1.5801,-1.5801,-1.5801,-1.5801,-1.5801,-1.5801,-1.5296,-1.4531,-1.4435,-1.4004,-1.2939,-1.1702,-1.1794,-1.2285,-1.1141,-1.119,-1.1531,-1.1775,-1.1219,-1.0656,-1.0022,-0.9361,-0.8775,-0.8233,-0.8013,-0.7988,-0.7988,-0.7988,-0.7988,-0.7988,-0.8006,-0.7959,-0.7929,-0.7895,-0.7881,-0.7881,-0.7753,-0.7695,-0.7719,-0.7743,-0.7784,-0.7804,-0.7831,-0.7847,-0.7844,-0.7844,-0.7871,-0.7895,-0.7888,-0.7905,-0.7918,-0.7946,-0.7949,-0.7949,-0.7993,-0.7975,-0.7982,-0.7985,-0.7988,-0.7988,-0.7988,-0.7988,-0.7988,-0.7988,-0.7988,-0.7988,-0.7988,-0.7129,-0.5645,-0.4416,-0.3389,0.0,0.0,0.0,0.0,0.0,0.0,0.0,0.0,0.0,0.0,0.0,0.0,0.0,0.0,0.0,0.0,0.0,0.0,0.0,0.0,0.0,0.0,0.0,0.0,0.0,0.0,0.0,0.0,0.0,0.0,0.0,0.0,0.0,0.0,0.0,0.0,0.0,0.0,0.1561,0.2791,0.487,0.6628,0.7232,0.7864,-1.5801,-1.5801,-1.5801,-1.5801,-1.5801,-1.5801,-1.5069,-1.4046,-1.3878,-1.3151,-1.1823,-1.0632,-1.0435,-1.0828,-0.9899,-0.9558,-1.0145,-1.0067,-0.9727,-0.941,-0.9287,-0.8726,-0.8184,-0.7988,-0.7988,-0.7988,-0.7988,-0.7988,-0.7988,-0.7988,-0.7985,-0.8006,-0.7988,-0.7988,-0.7975,-0.7948,-0.7912,-0.7844,-0.7831,-0.7864,-0.7912,-0.7959,-0.7968,-0.7988,-0.7988,-0.7988,-0.7988,-0.7988,-0.7988,-0.7988,-0.7988,-0.7988,-0.7985,-0.7985,-0.7985,-0.7988,-0.7988,-0.7988,-0.7988,-0.7988,-0.7988,-0.7988,-0.7988,-0.7988,-0.7988,-0.7988,-0.7988,-0.7534,-0.5545,-0.3815,-0.2839,0.0,0.0,0.0,0.0,0.0,0.0,0.0,0.0,0.0,0.0,0.0,0.0,0.0,0.0,0.0,0.0,0.0,0.0,0.0,0.0,0.0,0.0,0.0,0.0,0.0,0.0,0.0,0.0,0.0,0.0,0.0,0.0,0.0,0.0,0.0,0.0,0.0,0.0404,0.121,0.2089,0.3844,0.5525,0.6581,0.721,-1.5801,-1.5801,-1.5801,-1.5801,-1.5801,-1.5801,-1.4997,-1.38,-1.3614,-1.2963,-1.158,-1.0342,-0.9727,-0.9632,-0.8775,-0.8308,-0.8627,-0.8627,-0.8676,-0.8041,-0.8283,-0.8113,-0.8088,-0.7988,-0.7988,-0.7988,-0.7988,-0.7988,-0.7988,-0.7988,-0.7988,-0.7988,-0.7988,-0.7988,-0.7988,-0.7988,-0.7951,-0.7959,-0.7952,-0.7976,-0.7961,-0.7985,-0.7988,-0.7988,-0.7988,-0.7988,-0.7988,-0.7988,-0.7988,-0.7988,-0.7988,-0.7988,-0.7988,-0.7988,-0.7988,-0.7988,-0.7988,-0.7988,-0.7988,-0.7988,-0.7988,-0.7988,-0.7988,-0.7988,-0.7988,-0.7988,-0.7988,-0.7481,-0.567,-0.4291,-0.3264,0.0,0.0,0.0,0.0,0.0,0.0,0.0,0.0,0.0,0.0,0.0,0.0,0.0,0.0,0.0,0.0,0.0,0.0,0.0,0.0,0.0,0.0,0.0,0.0,0.0,0.0,0.0,0.0,0.0,0.0,0.0,0.0,0.0,0.0,0.0,0.0,0.0,0.0,0.0908,0.1863,0.2992,0.4271,0.5425,0.6783,-1.5801,-1.5801,-1.5801,-1.5801,-1.5801,-1.5801,-1.4489,-1.2431,-1.2382,-1.1702,-1.0386,-0.9188,-0.8552,-0.8506,-0.8258,-0.7988,-0.7988,-0.7988,-0.7988,-0.8013,-0.7988,-0.7988,-0.7988,-0.7988,-0.7988,-0.7988,-0.7988,-0.7988,-0.7988,-0.7988,-0.7988,-0.7988,-0.7988,-0.7988,-0.7988,-0.7988,-0.7988,-0.7988,-0.7988,-0.7988,-0.7988,-0.7988,-0.7988,-0.7988,-0.7988,-0.7988,-0.7988,-0.7988,-0.7988,-0.7988,-0.7988,-0.7988,-0.7988,-0.7988,-0.7988,-0.7988,-0.7988,-0.7988,-0.7988,-0.7988,-0.7988,-0.7988,-0.7988,-0.7988,-0.7988,-0.7988,-0.7711,-0.7052,-0.6071,-0.4793,0.0,0.0,0.0,0.0,0.0,0.0,0.0,0.0,0.0,0.0,0.0,0.0,0.0,0.0,0.0,0.0,0.0,0.0,0.0,0.0,0.0,0.0,0.0,0.0,0.0,0.0,0.0,0.0,0.0,0.0,0.0,0.0,0.0,0.0,0.0,0.0,0.0,0.0,0.0,0.0,0.1033,0.1913,0.279,0.3894,0.5749,-1.4076,-1.4124,-1.4728,-1.4949,-1.5045,-1.5564,-1.4639,-1.2915,-1.2159,-1.117,-0.9903,-0.8676,-0.7988,-0.7988,-0.7988,-0.7988,-0.7988,-0.7988,-0.7988,-0.7988,-0.7988,-0.7988,-0.7988,-0.7988,-0.7988,-0.7988,-0.7988,-0.7988,-0.7988,-0.7988,-0.7988,-0.7988,-0.7988,-0.7988,-0.7988,-0.7988,-0.7988,-0.7988,-0.7988,-0.7988,-0.7988,-0.7988,-0.7988,-0.7988,-0.7988,-0.7988,-0.7988,-0.7988,-0.7988,-0.7988,-0.7988,-0.7988,-0.7988,-0.7988,-0.7988,-0.7988,-0.7988,-0.7988,-0.7988,-0.7988,-0.7988,-0.7988,-0.7988,-0.7988,-0.7988,-0.7988,-0.7988,-0.7254,-0.542,-0.4066,-0.3291,0.0,0.0,0.0,0.0,0.0,0.0,0.0,0.0,0.0,0.0,0.0,0.0,0.0,0.0,0.0,0.0,0.0,0.0,0.0,0.0,0.0,0.0,0.0,0.0,0.0,0.0,0.0,0.0,0.0,0.0,0.0,0.0,0.0,0.0,0.0,0.0,0.0,0.0,0.0,0.0,0.0631,0.1561,0.2564,0.4117,-1.1994,-1.2091,-1.3151,-1.3632,-1.3854,-1.4997,-1.4609,-1.3247,-1.2309,-1.1019,-0.9604,-0.8457,-0.8063,-0.7988,-0.7988,-0.7988,-0.7988,-0.7988,-0.7988,-0.7988,-0.7988,-0.7988,-0.7988,-0.7988,-0.7988,-0.7988,-0.7988,-0.7988,-0.7988,-0.7988,-0.7988,-0.7988,-0.7988,-0.7988,-0.7988,-0.7988,-0.7988,-0.7988,-0.7988,-0.7988,-0.7988,-0.7988,-0.7988,-0.7988,-0.7988,-0.7988,-0.7988,-0.7988,-0.7988,-0.7988,-0.7988,-0.7988,-0.7988,-0.7988,-0.7988,-0.7988,-0.7988,-0.7988,-0.7988,-0.7988,-0.7988,-0.7988,-0.7988,-0.7988,-0.7988,-0.7988,-0.7988,-0.7207,-0.537,-0.4143,-0.3391,0.0,0.0,0.0,0.0,0.0,0.0,0.0,0.0,0.0,0.0,0.0,0.0,0.0,0.0,0.0,0.0,0.0,0.0,0.0,0.0,0.0,0.0,0.0,0.0,0.0,0.0,0.0,0.0,0.0,0.0,0.0,0.0,0.0,0.0,0.0,0.0,0.0,0.0,0.0,0.0,0.0,0.0908,0.1862,0.2564,-1.1896,-1.1921,-1.2188,-1.2285,-1.2503,-1.371,-1.2939,-1.1116,-1.1604,-1.0632,-0.8846,-0.8258,-0.7988,-0.7988,-0.7988,-0.7988,-0.7988,-0.7988,-0.7988,-0.7988,-0.7988,-0.7988,-0.7988,-0.7988,-0.7988,-0.7988,-0.7988,-0.7988,-0.7988,-0.7988,-0.7988,-0.7988,-0.7988,-0.7988,-0.7988,-0.7988,-0.7988,-0.7988,-0.7988,-0.7988,-0.7988,-0.7988,-0.7988,-0.7988,-0.7988,-0.7988,-0.7988,-0.7988,-0.7988,-0.7988,-0.7988,-0.7988,-0.7988,-0.7988,-0.7988,-0.7988,-0.7988,-0.7988,-0.7988,-0.7988,-0.7988,-0.7988,-0.7988,-0.7988,-0.7988,-0.7988,-0.7988,-0.7988,-0.6526,-0.5545,-0.4568,-0.274,0.0,0.0,0.0,0.0,0.0,0.0,0.0,0.0,0.0,0.0,0.0,0.0,0.0,0.0,0.0,0.0,0.0,0.0,0.0,0.0,0.0,0.0,0.0,0.0,0.0,0.0,0.0,0.0,0.0,0.0,0.0,0.0,0.0,0.0,0.0,0.0,0.0,0.0,0.0,0.0,0.0,0.1084,0.1711]},{"header":{"parameterUnit":"m.s-1","parameterCategory":1,"la1":31.0,"la2":29.5877,"lo1":-88.7671,"lo2":-86.6584,"dy":0.0162,"dx":0.0185,"nx":115,"ny":88,"refTime":"2024-08-22T06:00:00:Z","depth":0,"parameterNumber":3,"parameterNumberName":"V-component_of_WINDS"},"data":[0.0,0.0,0.0,0.0,0.0,0.0,0.0,0.0,0.0,0.0,0.0,0.0,0.0,0.0,0.0,0.0,0.0,0.0,0.0,0.0,0.0,0.0,0.0,0.0,0.0,0.0,0.0,0.0,0.0,0.0,0.0,0.0,0.0,0.0,0.0,0.0,0.0,0.0,0.0,0.0,0.0,0.0,0.0,0.0,0.0,0.0,0.0,0.0,0.0,0.0,0.0,0.0,0.0,0.0,0.0,0.0,0.0,0.0,0.0,0.0,0.0,0.0,0.0,0.0,0.0,0.0,0.0,0.0,0.0,0.0,0.0,0.0,0.0,0.0,0.0,0.0,0.0,0.0,0.0,0.0,0.0,0.0,0.0,0.0,0.0,0.0,0.0,0.0,0.0,0.0,0.0,0.0,0.0,0.0,0.0,0.0,0.0,0.0,0.0,0.0,0.0,0.0,0.0,0.0,0.0,0.0,0.0,0.0,0.0,0.0,0.0,0.0,0.0,0.0,0.0,0.0,0.0,0.0,0.0,0.0,0.0,0.0,0.0,0.0,0.0,0.0,0.0,0.0,0.0,0.0,0.0,0.0,0.0,0.0,0.0,0.0,0.0,0.0,0.0,0.0,0.0,0.0,0.0,0.0,0.0,0.0,0.0,0.0,0.0,0.0,0.0,0.0,0.0,0.0,0.0,0.0,0.0,0.0,0.0,0.0,0.0,0.0,0.0,0.0,0.0,0.0,0.0,0.0,0.0,0.0,0.0,0.0,0.0,0.0,0.0,0.0,0.0,0.0,0.0,0.0,0.0,0.0,0.0,0.0,0.0,0.0,0.0,0.0,0.0,0.0,0.0,0.0,0.0,0.0,0.0,0.0,0.0,0.0,0.0,0.0,0.0,0.0,0.0,0.0,0.0,0.0,0.0,0.0,0.0,0.0,0.0,0.0,0.0,0.0,0.0,0.0,0.0,0.0,0.0,0.0,0.0,0.0,0.0,0.0,0.0,0.0,0.0,0.0,0.0,0.0,0.0,0.0,0.0,0.0,0.0,0.0,0.0,0.0,0.0,0.0,0.0,0.0,0.0,0.0,0.0,0.0,0.0,0.0,0.0,0.0,0.0,0.0,0.0,0.0,0.0,0.0,0.0,0.0,0.0,0.0,0.0,0.0,0.0,0.0,0.0,0.0,0.0,0.0,0.0,0.0,0.0,0.0,0.0,0.0,0.0,0.0,0.0,0.0,0.0,0.0,0.0,0.0,0.0,0.0,0.0,0.0,0.0,0.0,0.0,0.0,0.0,0.0,0.0,0.0,0.0,0.0,0.0,0.0,0.0,0.0,0.0,0.0,0.0,0.0,0.0,0.0,0.0,0.0,0.0,0.0,0.0,0.0,0.0,0.0,0.0,0.0,0.0,0.0,0.0,0.0,0.0,0.0,0.0,0.0,0.0,0.0,0.0,0.0,0.0,0.0,0.0,0.0,0.0,0.0,0.0,0.0,0.0,0.0,0.0,0.0,0.0,0.0,0.0,0.0,0.0,0.0,0.0,0.0,0.0,0.0,0.0,0.0,0.0,0.0,0.0,0.0,0.0,0.0,0.0,0.0,0.0,0.0,0.0,0.0,0.0,0.0,0.0,0.0,0.0,0.0,0.0,0.0,0.0,0.0,0.0,0.0,0.0,0.0,0.0,0.0,0.0,0.0,0.0,0.0,0.0,0.0,0.0,0.0,0.0,0.0,0.0,0.0,0.0,0.0,0.0,0.0,0.0,0.0,0.0,0.0,0.0,0.0,0.0,0.0,0.0,0.0,0.0,0.0,0.0,0.0,0.0,0.0,0.0,0.0,0.0,0.0,0.0,0.0,0.0,0.0,0.0,0.0,0.0,0.0,0.0,0.0,0.0,0.0,0.0,0.0,0.0,0.0,0.0,0.0,0.0,0.0,0.0,0.0,0.0,0.0,0.0,0.0,0.0,0.0,0.0,0.0,0.0,0.0,0.0,0.0,0.0,0.0,0.0,0.0,0.0,0.0,0.0,0.0,0.0,0.0,0.0,0.0,0.0,0.0,0.0,0.0,0.0,0.0,0.0,0.0,0.0,0.0,0.0,0.0,0.0,0.0,0.0,0.0,0.0,0.0,0.0,0.0,0.0,0.0,0.0,0.0,0.0,0.0,0.0,0.0,0.0,0.0,0.0,0.0,0.0,0.0,0.0,0.0,0.0,0.0,0.0,0.0,0.0,0.0,0.0,0.0,0.0,0.0,0.0,0.0,0.0,0.0,0.0,0.0,0.0,0.0,0.0,0.0,0.0,0.0,0.0,0.0,0.0,0.0,0.0,0.0,0.0,0.0,0.0,0.0,0.0,0.0,0.0,0.0,0.0,0.0,0.0,0.0,0.0,0.0,0.0,0.0,0.0,0.0,0.0,0.0,0.0,0.0,0.0,0.0,0.0,0.0,0.0,0.0,0.0,0.0,0.0,0.0,0.0,0.0,0.0,0.0,0.0,0.0,0.0,0.0,0.0,0.0,0.0,0.0,0.0,0.0,0.0,0.0,0.0,0.0,0.0,0.0,0.0,0.0,0.0,0.0,0.0,0.0,0.0,0.0,0.0,0.0,0.0,0.0,0.0,0.0,0.0,0.0,0.0,0.0,0.0,0.0,0.0,0.0,0.0,0.0,0.0,0.0,0.0,0.0,0.0,0.0,0.0,0.0,0.0,0.0,0.0,0.0,0.0,0.0,0.0,0.0,0.0,0.0,0.0,0.0,0.0,0.0,0.0,0.0,0.0,0.0,0.0,0.0,0.0,0.0,0.0,0.0,0.0,0.0,0.0,0.0,0.0,0.0,0.0,0.0,0.0,0.0,0.0,0.0,0.0,0.0,0.0,0.0,0.0,0.0,0.0,0.0,0.0,0.0,0.0,0.0,0.0,0.0,0.0,0.0,0.0,0.0,0.0,0.0,0.0,0.0,0.0,0.0,0.0,0.0,0.0,0.0,0.0,0.0,0.0,0.0,0.0,0.0,0.0,0.0,0.0,0.0,0.0,0.0,0.0,0.0,0.0,0.0,0.0,0.0,0.0,0.0,0.0,0.0,0.0,0.0,0.0,0.0,0.0,0.0,0.0,0.0,0.0,0.0,0.0,0.0,0.0,0.0,0.0,0.0,0.0,0.0,0.0,0.0,0.0,0.0,0.0,0.0,0.0,0.0,0.0,0.0,0.0,0.0,0.0,0.0,0.0,0.0,0.0,0.0,0.0,0.0,0.0,0.0,0.0,0.0,0.0,0.0,0.0,0.0,0.0,0.0,0.0,0.0,0.0,0.0,0.0,0.0,0.0,0.0,0.0,0.0,0.0,0.0,0.0,0.0,0.0,0.0,0.0,0.0,0.0,0.0,0.0,0.0,0.0,0.0,0.0,0.0,0.0,0.0,0.0,0.0,0.0,0.0,0.0,0.0,0.0,0.0,0.0,0.0,0.0,0.0,0.0,0.0,0.0,0.0,0.0,0.0,0.0,0.0,0.0,0.0,0.0,0.0,0.0,0.0,0.0,0.0,0.0,0.0,0.0,0.0,0.0,0.0,0.0,0.0,0.0,0.0,0.0,0.0,0.0,0.0,0.0,0.0,0.0,0.0,0.0,0.0,0.0,0.0,0.0,0.0,0.0,0.0,0.0,0.0,0.0,0.0,0.0,0.0,0.0,0.0,0.0,0.0,0.0,0.0,0.0,0.0,0.0,0.0,0.0,0.0,0.0,0.0,0.0,0.0,0.0,0.0,0.0,0.0,0.0,0.0,0.0,0.0,0.0,0.0,0.0,0.0,0.0,0.0,0.0,0.0,0.0,0.0,0.0,0.0,0.0,0.0,0.0,0.0,0.0,0.0,0.0,0.0,0.0,0.0,0.0,0.0,0.0,0.0,0.0,0.0,0.0,0.0,0.0,0.0,0.0,0.0,0.0,0.0,0.0,0.0,0.0,0.0,0.0,0.0,0.0,0.0,0.0,0.0,0.0,0.0,0.0,0.0,0.0,0.0,0.0,0.0,0.0,0.0,0.0,0.0,0.0,0.0,0.0,0.0,0.0,0.0,0.0,0.0,0.0,0.0,0.0,0.0,0.0,0.0,0.0,0.0,0.0,0.0,0.0,0.0,0.0,0.0,0.0,0.0,0.0,0.0,0.0,0.0,0.0,0.0,0.0,0.0,0.0,0.0,0.0,0.0,0.0,0.0,0.0,0.0,0.0,0.0,0.0,0.0,0.0,0.0,0.0,0.0,0.0,0.0,0.0,0.0,0.6819,0.0,0.0,0.0,0.0,0.0,0.0,0.0,0.0,0.0,0.0,0.0,0.0,0.0,0.0,0.0,0.0,0.0,0.0,0.0,0.0,0.0,0.0,0.0,0.0,0.0,0.0,0.0,0.0,0.0,0.0,0.0,0.0,0.0,0.0,0.0,0.0,0.0,0.0,0.0,0.0,0.0,0.0,0.0,0.0,0.0,0.0,0.0,0.0,0.0,0.0,0.0,0.0,0.0,0.0,0.0,0.0,0.0,0.0,0.0,0.0,0.0,0.0,0.0,0.0,0.0,0.0,0.0,0.0,0.0,0.0,0.0,0.0,0.0,0.0,0.0,0.0,0.0,0.0,0.0,0.0,0.0,0.0,0.0,0.0,0.0,0.0,0.0,0.0,0.0,0.0,0.0,0.0,0.0,0.0,0.0,0.0,0.0,0.0,0.0,0.0,0.0,0.0,0.0,0.0,0.0,0.0,0.0,0.0,0.0,0.0,0.7292,0.7949,0.7592,0.7047,0.6386,0.0,0.0,0.0,0.0,0.0,0.0,0.0,0.0,0.0,0.0,0.0,0.0,0.0,0.0,0.0,0.0,0.0,0.0,0.0,0.0,0.0,0.0,0.0,0.0,0.0,0.0,0.0,0.0,0.0,0.0,0.0,0.0,0.0,0.0,0.0,0.0,0.0,0.0,0.0,0.0,0.0,0.0,0.0,0.0,0.0,0.0,0.0,0.0,0.0,0.0,0.0,0.0,0.0,0.0,0.0,0.0,0.0,0.0,0.0,0.0,0.0,0.0,0.0,0.0,0.0,0.0,0.0,0.0,0.0,0.0,0.0,0.0,0.0,0.0,0.0,0.0,0.0,0.0,0.0,0.0,0.0,0.0,0.0,0.0,0.0,0.0,0.0,0.0,0.0,0.0,0.0,0.0,0.0,0.0,0.0,0.0,0.0,0.0,0.0,0.0,0.0,0.0,0.0,0.0,0.0,0.0,0.0,0.0,0.0,0.0,0.0,0.0,0.7616,0.7124,0.6497,0.0,0.0,0.0,0.0,0.0,0.0,0.0,0.0,0.0,0.0,0.0,0.0,0.0,0.0,0.0,0.0,0.0,0.0,0.0,0.0,0.0,0.0,0.0,0.0,0.0,0.0,0.0,0.0,0.0,0.0,0.0,0.0,0.0,0.0,0.0,0.0,0.0,0.0,0.0,0.0,0.0,0.0,0.0,0.0,0.0,0.0,0.0,0.0,0.0,0.0,0.0,0.0,0.0,0.0,0.0,0.0,0.0,0.0,0.0,0.0,0.0,0.0,0.0,0.0,0.0,0.0,0.0,0.0,0.0,0.0,0.0,0.0,0.0,0.0,0.0,0.0,0.0,0.0,0.0,0.0,0.0,0.0,0.0,0.0,0.0,0.0,0.0,0.0,0.0,0.0,0.0,0.0,0.0,0.0,0.0,0.0,0.0,0.0,0.0,0.0,0.0,0.0,0.0,0.0,0.0,0.0,0.0,0.0,0.0,0.0,0.7221,0.7959,0.8681,0.0,0.8172,0.0,0.0,0.0,0.0,0.0,0.0,0.0,0.0,0.0,0.0,0.0,0.0,0.0,0.0,0.0,0.0,0.0,0.0,0.0,0.0,0.0,0.0,0.0,0.0,0.0,0.0,0.0,0.0,0.0,0.0,0.0,0.0,0.0,0.0,0.0,0.0,0.0,0.0,0.0,0.0,0.0,0.0,0.0,0.0,0.0,0.0,0.0,0.0,0.0,0.0,0.0,0.0,0.0,0.0,0.0,0.0,0.0,0.0,0.0,0.0,0.0,0.0,0.0,0.0,0.0,0.0,0.0,0.0,0.0,0.0,0.0,0.0,0.0,0.0,0.0,0.0,0.0,0.0,0.0,0.0,0.0,0.0,0.0,0.0,0.0,0.0,0.0,0.0,0.0,0.0,0.0,0.0,0.0,0.0,0.0,0.0,0.0,0.0,0.0,0.0,0.0,0.0,0.0,0.0,0.0,0.0,0.0,0.0,0.0,0.0,0.7472,0.8165,0.8143,0.7909,0.0,0.0,0.0,0.0,0.0,0.0,0.0,0.0,0.0,0.0,0.0,0.0,0.0,0.0,0.0,0.0,0.0,0.0,0.0,0.0,0.0,0.0,0.0,0.0,0.0,0.0,0.0,0.0,0.0,0.0,0.0,0.0,0.0,0.0,0.0,0.0,0.0,0.0,0.0,0.0,0.0,0.0,0.0,0.0,0.0,0.0,0.0,0.0,0.0,0.0,0.0,0.0,0.0,0.0,0.0,0.0,0.0,0.0,0.0,0.0,0.0,0.0,0.0,0.0,0.0,0.0,0.0,0.0,0.0,0.0,0.0,0.0,0.0,0.0,0.0,0.0,0.0,0.0,0.0,0.0,0.0,0.0,0.0,0.0,0.0,0.0,0.0,0.0,0.0,0.0,0.0,0.0,0.0,0.0,0.0,0.0,0.0,0.0,0.0,0.0,0.0,0.0,0.0,0.0,0.0,0.0,0.0,0.0,0.0,0.0,0.7057,0.7737,0.86,0.7919,0.729,0.6824,0.0,0.0,0.0,0.0,0.0,0.0,0.0,0.0,0.0,0.0,0.0,0.0,0.0,0.0,0.0,0.0,0.0,0.0,0.0,0.0,0.0,0.0,0.0,0.0,0.0,0.0,0.0,0.0,0.0,0.0,0.0,0.0,0.0,0.0,0.0,0.0,0.0,0.0,0.0,0.0,0.0,0.0,0.0,0.0,0.0,0.0,0.0,0.0,0.0,0.0,0.0,0.0,0.0,0.0,0.0,0.0,0.0,0.0,0.0,0.0,0.0,0.0,0.0,0.0,0.0,0.0,0.0,0.0,0.0,0.0,0.0,0.0,0.0,0.0,0.0,0.0,0.0,0.0,0.0,0.0,0.0,0.0,0.0,0.0,0.0,0.0,0.0,0.0,0.0,0.0,0.0,0.0,0.0,0.0,0.0,0.0,0.0,0.0,0.0,0.0,0.0,0.0,0.0,0.0,0.0,0.0,0.0,0.0,0.0,0.7584,0.8079,0.9633,0.8594,0.7546,0.0,0.0,0.0,0.0,0.0,0.0,0.0,0.0,0.0,0.0,0.0,0.0,0.0,0.0,0.0,0.0,0.0,0.0,0.0,0.0,0.0,0.0,0.0,0.0,0.0,0.0,0.0,0.0,0.0,0.0,0.0,0.0,0.0,0.0,0.0,0.0,0.0,0.0,0.0,0.0,0.0,0.0,0.0,0.0,0.0,0.0,0.0,0.0,0.0,0.0,0.0,0.0,0.0,0.0,0.0,0.0,0.0,0.0,0.0,0.0,0.0,0.0,0.0,0.0,0.0,0.0,0.0,0.0,0.0,0.0,0.0,0.0,0.0,0.0,0.0,0.0,0.0,0.0,0.0,0.0,0.0,0.0,0.0,0.0,0.0,0.0,0.0,0.0,0.0,0.0,0.0,0.0,0.0,0.0,0.0,0.0,0.0,0.0,0.0,0.0,0.0,0.0,0.0,0.0,0.0,0.0,0.0,0.0,0.0,0.5578,0.6421,0.7988,1.023,0.8266,0.7297,0.0,0.0,0.0,0.0,0.0,0.0,0.0,0.0,0.0,0.0,0.0,0.0,0.0,0.0,0.0,0.0,0.0,0.0,0.0,0.0,0.0,0.0,0.0,0.0,0.0,0.0,0.0,0.0,0.0,0.0,0.0,0.0,0.0,0.0,0.0,0.0,0.0,0.0,0.0,0.0,0.0,0.0,0.0,0.0,0.0,0.0,0.0,0.0,0.0,0.0,0.0,0.0,0.0,0.0,0.0,0.0,0.0,0.0,0.0,0.0,0.0,0.0,0.0,0.0,0.0,0.0,0.0,0.0,0.0,0.0,0.0,0.0,0.0,0.0,0.0,0.0,0.0,0.0,0.0,0.0,0.0,0.0,0.0,0.0,0.0,0.0,0.0,0.0,0.0,0.0,0.0,0.0,0.0,0.0,0.0,0.0,0.0,0.0,0.0,0.0,0.0,0.0,0.0,0.0,0.0,0.0,0.0,0.0,0.0,0.5345,0.0,0.8626,0.0,0.8066,0.7083,0.0,0.0,0.0,0.0,0.0,0.0,0.0,0.0,0.0,0.0,0.0,0.0,0.0,0.0,0.0,0.0,0.0,0.0,0.0,0.0,0.0,0.0,0.0,0.0,0.0,0.0,0.0,0.0,0.0,0.0,0.0,0.0,0.0,0.0,0.0,0.0,0.0,0.0,0.0,0.0,0.0,0.0,0.0,0.0,0.0,0.0,0.0,0.0,0.0,0.0,0.0,0.0,0.0,0.0,0.0,0.0,0.0,0.0,0.0,0.0,0.0,0.0,0.0,0.0,0.0,0.0,0.0,0.0,0.0,0.0,0.0,0.0,0.0,0.0,0.0,0.0,0.0,0.0,0.0,0.0,0.0,0.0,0.0,0.0,0.0,0.0,0.0,0.0,0.0,0.0,0.0,0.0,0.0,0.0,0.0,0.0,0.0,0.0,0.0,0.0,0.0,0.0,0.0,0.0,0.0,0.0,0.0,0.0,0.5391,0.7774,0.9399,0.9839,0.9158,0.8061,0.6923,0.0,0.0,0.0,0.0,0.0,0.0,0.0,0.0,0.0,0.0,0.0,0.0,0.0,0.0,0.0,0.0,0.0,0.0,0.0,0.0,0.0,0.0,0.0,0.0,0.0,0.0,0.0,0.0,0.0,0.0,0.0,0.0,0.0,0.0,0.0,0.0,0.0,0.0,0.0,0.0,0.0,0.0,0.0,0.0,0.0,0.0,0.0,0.0,0.0,0.0,0.0,0.0,0.0,0.0,0.0,0.0,0.0,0.0,0.0,0.0,0.0,0.0,0.0,0.0,0.0,0.0,0.0,0.0,0.0,0.0,0.0,0.0,0.0,0.0,0.0,0.0,0.0,0.0,0.0,0.0,0.0,0.0,0.0,0.0,0.0,0.0,0.0,0.0,0.0,0.0,0.0,0.0,0.0,0.0,0.0,0.0,0.0,0.0,0.0,0.0,0.0,0.0,0.0,0.0,0.0,0.0,0.0,0.0,0.0,0.7051,0.8279,0.928,0.9823,0.8079,0.763,0.0,0.0,0.0,0.0,0.0,0.0,0.0,0.0,0.0,0.0,0.0,0.0,0.0,0.0,0.0,0.0,0.0,0.0,0.0,0.0,0.0,0.0,0.0,0.0,0.0,0.0,0.0,0.0,0.0,0.0,0.0,0.0,0.0,0.0,0.0,0.0,0.0,0.0,0.0,0.0,0.0,0.0,0.0,0.0,0.0,0.0,0.0,0.0,0.0,0.0,0.0,0.0,0.0,0.0,0.0,0.0,0.0,0.0,0.0,0.0,0.0,0.0,0.0,0.0,0.0,0.0,0.0,0.0,0.0,0.0,0.0,0.0,0.0,0.0,0.0,0.0,0.0,0.0,0.0,0.0,0.0,0.0,0.0,0.0,0.0,0.0,0.0,0.0,0.0,0.0,0.0,0.0,0.0,0.0,0.0,0.0,0.0,0.0,0.0,0.0,0.0,0.0,0.0,0.0,0.0,0.0,0.0,0.0,0.0,0.8757,0.9682,1.0299,1.0441,0.8737,0.8343,0.9343,0.0,0.0,0.0,0.0,0.0,0.0,0.0,0.0,0.0,0.0,0.0,0.0,0.0,0.0,0.0,0.0,0.0,0.0,0.0,0.0,0.0,0.0,0.0,0.0,0.0,0.0,0.0,0.0,0.0,0.0,0.0,0.0,0.0,0.0,0.0,0.0,0.0,0.0,0.0,0.0,0.0,0.0,0.0,0.0,0.0,0.0,0.0,0.0,0.0,0.0,0.0,0.0,0.0,0.0,0.0,0.0,0.0,0.0,0.0,0.0,0.0,0.0,0.0,0.0,0.0,0.0,0.0,0.0,0.0,0.0,0.0,0.0,0.0,0.0,0.0,0.0,0.0,0.0,0.0,0.0,0.0,0.0,0.0,0.0,0.0,0.0,0.0,0.0,0.0,0.0,0.0,0.0,0.0,0.0,0.0,0.0,0.0,0.0,0.0,0.0,0.0,0.0,0.0,0.0,0.0,0.0,0.0,0.0,1.2174,1.3194,1.2845,1.0997,1.003,0.9117,0.0,0.0,0.0,0.0,0.0,0.0,0.0,0.0,0.0,0.0,0.0,0.0,0.0,0.0,0.0,0.0,0.0,0.0,0.0,0.0,0.0,0.0,0.0,0.0,0.0,0.0,0.0,0.0,0.0,0.0,0.0,0.0,0.0,0.0,0.0,0.0,0.0,0.0,0.0,0.0,0.0,0.0,0.0,0.0,0.0,0.0,0.0,0.0,0.0,0.0,0.0,0.0,0.0,0.0,0.0,0.0,0.0,0.0,0.0,0.0,0.0,0.0,0.0,0.0,0.0,0.0,0.0,0.0,0.0,0.0,0.0,0.0,0.0,0.0,0.0,0.0,0.0,0.0,0.0,0.0,0.0,0.0,0.0,0.0,0.0,0.0,0.0,0.0,0.0,0.0,0.0,0.0,0.0,0.0,0.0,0.0,0.0,0.0,0.0,0.0,0.0,0.0,0.0,0.0,0.0,0.0,0.0,0.0,0.0,1.3289,1.5376,1.5569,1.3573,1.1949,1.0986,0.0,0.0,0.0,0.0,0.0,0.0,0.0,0.0,0.0,0.0,0.0,0.0,0.0,0.0,0.0,0.0,0.0,0.0,0.0,0.0,0.0,0.0,0.0,0.0,0.0,0.0,0.0,0.0,0.0,0.0,0.0,0.0,0.0,0.0,0.0,0.0,0.0,0.0,0.0,0.0,0.0,0.0,0.0,0.0,0.0,0.0,0.0,0.0,0.0,0.0,0.0,0.0,0.0,0.0,0.0,0.0,0.0,0.0,0.0,0.0,0.0,0.0,0.0,0.0,0.0,0.0,0.0,0.0,0.0,0.0,0.0,0.0,0.0,0.0,0.0,0.0,0.0,0.0,0.0,0.0,0.0,0.0,0.0,0.0,0.0,0.0,0.0,0.0,0.0,0.0,0.0,0.0,0.0,0.0,0.0,0.0,0.0,0.0,0.0,0.0,0.0,0.0,0.0,0.0,0.0,0.0,0.0,0.0,1.398,1.4823,1.6962,1.7528,1.6335,1.4426,1.2931,0.0,0.0,0.0,0.0,0.0,0.0,0.0,0.0,0.0,0.0,0.0,0.0,0.0,0.0,0.0,0.0,0.0,0.0,0.0,0.0,0.0,0.0,0.0,0.0,0.0,0.0,0.0,0.0,0.0,0.0,0.0,0.0,0.0,0.0,0.0,0.0,0.0,0.0,0.0,0.0,0.0,0.0,0.0,0.0,0.0,0.0,0.0,0.0,0.0,0.0,0.0,0.0,0.0,0.0,0.0,0.0,0.0,0.0,0.0,0.0,0.0,0.0,0.0,0.0,0.0,0.0,0.0,0.0,0.0,0.0,0.0,0.0,0.0,0.0,0.0,0.0,0.0,0.0,0.0,0.0,0.0,0.0,0.0,0.0,0.0,0.0,0.0,0.0,0.0,0.0,0.0,0.0,0.0,0.0,0.0,0.0,0.0,0.0,0.0,0.0,0.0,0.0,0.0,0.0,0.0,0.0,0.0,0.0,1.4705,1.6465,1.8119,1.8962,1.8901,1.6905,1.4677,0.0,0.0,0.0,0.0,0.0,0.0,0.0,0.0,0.0,0.0,0.0,0.0,0.0,0.0,0.0,0.0,0.0,0.0,0.0,0.0,0.0,0.0,0.0,0.0,0.0,0.0,0.0,0.0,0.0,0.0,0.0,0.0,0.0,0.0,0.0,0.0,0.0,0.0,0.0,0.0,0.0,0.0,0.0,0.0,0.0,0.0,0.0,0.0,0.0,0.0,0.0,0.0,0.0,0.0,0.0,0.0,0.0,0.0,0.0,0.0,0.0,0.0,0.0,0.0,0.0,0.0,0.0,0.0,0.0,0.0,0.0,0.0,0.0,0.0,0.0,0.0,0.0,0.0,0.0,0.0,0.0,0.0,0.0,0.0,0.0,0.0,0.0,0.0,0.0,0.0,0.0,0.0,0.0,0.0,0.0,0.0,0.0,0.0,0.0,0.0,0.0,0.0,0.0,0.0,0.0,0.0,0.0,0.0,1.5342,1.6503,1.8768,1.999,1.9972,1.7258,1.4934,0.0,0.0,0.0,0.0,0.0,0.0,0.0,0.0,0.0,0.0,0.0,0.0,0.0,0.0,0.0,0.0,0.0,0.0,0.0,0.0,0.0,0.0,0.0,0.0,0.0,0.0,0.0,0.0,0.0,0.0,0.0,0.0,0.0,0.0,0.0,0.0,0.0,0.0,0.0,0.0,0.0,0.0,0.0,0.0,0.0,0.0,0.0,0.0,0.9962,0.0,0.0,0.0,0.0,0.0,0.0,0.0,0.0,0.0,0.0,0.0,0.0,0.0,0.0,0.0,0.0,0.0,0.0,0.0,0.0,0.0,0.0,0.0,0.0,0.0,0.0,0.0,0.0,0.0,0.0,0.0,0.0,0.0,0.0,0.0,0.0,0.0,0.0,0.0,0.0,0.0,0.0,0.0,0.0,0.0,0.0,0.0,0.0,0.0,0.0,0.0,0.0,0.0,0.0,0.0,0.0,0.0,0.0,0.0,1.6317,1.7661,1.9408,2.0288,2.0204,1.7923,1.5864,0.0,0.0,0.0,0.0,0.0,0.0,0.0,0.0,0.0,0.0,0.0,0.0,0.0,0.0,0.0,0.0,0.0,0.0,0.0,0.0,0.0,0.0,0.0,0.0,0.0,0.0,0.0,0.0,0.0,0.0,0.0,0.0,0.0,0.0,0.0,0.0,0.0,0.0,0.0,0.0,0.0,0.0,0.0,0.0,0.0,0.0,0.0,0.0,0.0,0.0,0.0,0.0,0.0,0.0,0.0,0.0,0.0,0.0,0.0,0.0,0.0,0.0,0.0,0.0,0.0,0.0,0.0,0.0,0.0,0.0,0.0,0.0,0.0,0.0,0.0,0.0,0.0,0.0,0.0,0.0,0.0,0.0,0.0,0.0,0.0,0.0,0.0,0.0,0.0,0.0,0.0,0.0,0.0,0.0,0.0,0.0,0.0,0.0,0.0,0.0,0.0,0.0,0.0,0.0,0.0,0.0,0.0,1.539,1.7059,1.8932,1.985,2.0288,2.0288,1.8537,1.6782,1.5063,0.0,0.0,0.0,0.0,0.0,0.0,0.0,0.0,0.0,0.0,0.0,0.0,0.0,0.0,0.0,0.0,0.0,0.0,0.0,0.0,0.0,0.0,0.0,0.0,0.0,0.0,0.0,0.0,0.0,0.0,0.0,0.0,0.0,0.0,0.0,0.0,0.0,0.0,0.8057,0.8899,0.0,0.0,0.0,0.0,0.0,0.0,0.0,0.0,1.1334,0.0,0.0,0.0,0.0,0.0,0.0,0.0,0.0,0.0,0.0,0.0,0.0,0.0,0.0,0.0,0.0,0.0,0.0,0.0,0.0,0.0,0.0,0.0,0.0,0.0,0.0,0.0,0.0,0.0,0.0,0.0,0.0,0.0,0.0,0.0,0.0,0.0,0.0,0.0,0.0,0.0,0.0,0.0,0.0,0.0,0.0,0.0,0.0,0.0,0.0,0.0,0.0,0.0,0.0,0.0,0.0,1.4877,1.5233,1.657,1.8934,1.9852,2.0288,2.0248,1.8535,1.6782,1.5061,0.0,0.0,0.0,0.0,0.0,0.0,0.0,0.0,0.0,0.0,0.0,0.0,0.0,0.0,0.0,0.0,0.0,0.0,0.0,0.0,0.0,0.0,0.0,0.0,0.0,0.0,0.0,0.0,0.0,0.0,0.0,0.0,0.0,0.0,0.0,0.0,0.0,0.0,0.0,1.1375,1.1991,0.0,0.0,0.0,0.0,0.0,0.0,0.0,0.0,1.239,0.0,0.0,0.0,0.0,0.0,0.0,0.0,0.0,0.0,0.0,0.0,0.0,0.0,0.0,0.0,0.0,0.0,0.0,0.0,0.0,0.0,0.0,0.0,0.0,0.0,0.0,0.0,0.0,0.0,0.0,0.0,0.0,0.0,0.0,0.0,0.0,0.0,0.0,0.0,0.0,0.0,0.0,0.0,0.0,0.0,0.0,0.0,0.0,0.0,0.0,0.0,0.0,0.0,0.0,0.0,1.4986,1.6116,1.761,1.96,2.0076,2.0303,2.0254,1.8175,1.641,0.0,0.0,0.0,0.0,0.0,0.0,0.0,0.0,0.0,0.0,0.0,0.0,0.0,0.0,0.0,0.0,0.0,0.0,0.0,0.0,0.0,0.0,0.0,0.0,0.0,0.0,0.0,0.0,0.0,0.0,0.0,0.0,0.0,0.0,0.0,0.0,0.0,0.0,0.0,0.0,1.2166,1.3128,1.3103,0.0,0.0,0.0,0.0,0.0,0.0,1.3294,1.2976,0.0,0.0,0.0,0.0,0.0,0.0,0.0,0.0,0.0,0.0,0.0,0.0,0.0,0.0,0.0,0.0,0.0,0.0,0.0,0.0,0.0,0.0,0.0,0.0,0.0,0.0,0.0,0.0,0.0,0.0,0.0,0.0,0.0,0.0,0.0,0.0,0.0,0.0,0.0,0.0,0.0,0.0,0.0,0.0,0.0,0.0,0.0,0.0,0.0,0.0,0.0,0.0,0.0,0.0,0.0,1.5131,1.6806,1.852,2.0219,2.0333,2.0314,2.0248,1.8015,1.6216,0.0,0.0,0.0,0.0,0.0,0.0,0.0,0.0,0.0,0.0,0.0,0.0,0.0,0.0,0.0,0.0,0.0,0.0,0.0,0.0,0.0,0.0,0.0,0.0,0.0,0.0,0.0,0.0,0.0,0.0,0.0,0.0,0.0,0.0,0.0,0.0,0.0,0.0,0.0,0.0,0.0,1.4362,1.4487,1.4281,0.0,0.0,0.0,0.0,1.5291,1.4784,0.0,0.0,0.0,0.0,0.0,0.0,0.0,0.0,0.0,0.0,0.0,0.0,0.0,0.0,0.0,0.0,0.0,0.0,0.0,0.0,0.0,0.0,0.0,0.0,0.0,0.0,0.0,0.0,0.0,0.0,0.0,0.0,0.0,0.0,0.0,0.0,0.0,0.0,0.0,0.0,0.0,0.0,0.0,0.0,0.0,0.0,0.0,0.0,0.0,0.0,0.0,0.0,0.0,0.0,0.0,0.0,1.5146,1.6239,1.7943,2.0245,2.038,2.0351,2.0279,1.8568,1.6839,0.0,0.0,0.0,0.0,0.0,0.0,0.0,0.0,0.0,0.0,0.0,0.0,0.0,0.0,0.0,0.0,0.0,0.0,0.0,0.0,0.0,0.0,0.0,0.0,0.0,0.0,0.0,0.0,0.0,0.0,0.0,0.0,0.0,0.0,0.0,0.0,0.0,0.0,0.0,0.0,0.0,1.653,1.5418,1.5743,1.6173,0.0,0.0,1.6763,1.7897,1.8159,0.0,0.0,0.0,0.0,0.0,0.0,0.0,0.0,0.0,0.0,0.0,0.0,0.0,0.0,0.0,0.0,0.0,0.0,0.0,0.0,0.0,0.0,0.0,0.0,0.0,0.0,0.0,0.0,0.0,0.0,0.0,0.0,0.0,0.0,0.0,0.0,0.0,0.0,0.0,0.0,0.0,0.0,0.0,0.0,0.0,0.0,0.0,0.0,0.0,0.0,0.0,0.0,0.0,0.0,0.0,1.1558,1.5241,1.6703,1.84,2.0371,2.0448,2.0407,2.0352,1.8217,1.6469,0.0,0.0,0.0,0.0,0.0,0.0,0.0,0.0,0.0,0.0,0.0,0.0,0.0,0.0,0.0,0.0,0.0,0.0,0.0,0.0,0.0,0.0,0.0,0.0,0.0,0.0,0.0,0.0,0.0,0.0,0.0,0.0,0.0,0.0,0.0,0.0,0.0,0.0,0.0,0.0,0.0,0.0,1.6855,1.7425,0.0,0.0,0.0,1.785,1.8894,0.0,0.0,0.0,0.0,0.0,0.0,0.0,0.0,0.0,0.0,0.0,0.0,0.0,0.0,0.0,0.0,0.0,0.0,0.0,0.0,0.0,0.0,0.0,0.0,0.0,0.0,0.0,0.0,0.0,0.0,0.0,0.0,0.0,0.0,0.0,0.0,0.0,0.0,0.0,0.0,0.0,0.0,0.0,0.0,0.0,0.0,0.0,0.0,0.0,0.0,0.0,0.0,0.0,0.0,0.0,0.0,0.0,1.5346,1.7109,1.8827,2.0439,2.0536,2.0486,2.039,1.8109,0.0,0.0,0.0,0.0,0.0,0.0,0.0,0.0,0.0,0.0,0.0,0.0,0.0,0.0,0.0,0.0,0.0,0.0,0.0,0.0,0.0,0.0,0.0,0.0,0.0,0.0,0.0,0.664,0.0,0.0,0.0,0.0,0.0,0.0,0.0,0.0,0.0,0.0,0.0,0.0,0.0,0.0,1.7494,1.8246,1.8947,1.9586,0.0,0.0,1.8948,2.0029,1.9475,1.8532,0.0,0.0,0.0,0.0,0.0,0.0,0.0,0.0,0.0,0.0,0.0,0.0,0.0,0.0,0.0,0.0,0.0,0.0,0.0,0.0,0.0,0.0,0.0,0.0,0.0,0.0,0.0,0.0,0.0,0.0,0.0,0.0,0.0,0.0,0.0,0.0,0.0,0.0,0.0,0.0,0.0,0.0,0.0,0.0,0.0,0.0,0.0,0.0,0.0,0.0,0.0,0.0,0.0,0.0,1.197,1.5307,1.7109,1.8848,2.0527,2.0605,2.0563,2.0467,1.875,1.7014,0.0,0.0,0.0,0.0,0.0,0.0,0.0,0.0,0.0,0.0,0.0,0.0,0.0,0.0,0.0,0.0,0.0,0.0,0.0,0.0,0.0,0.0,0.0,0.0,0.0,0.0,0.0,0.0,0.0,0.0,0.0,0.0,0.0,0.0,0.0,0.0,0.0,0.0,0.0,0.0,0.0,1.8265,1.9419,2.0097,2.0872,0.0,2.1147,2.0822,2.1932,2.2029,2.1255,1.9103,0.0,0.0,0.0,0.0,0.0,0.0,0.0,0.0,0.0,0.0,0.0,0.0,0.0,0.0,0.0,0.0,0.0,0.0,0.0,0.0,0.0,0.0,0.0,0.0,0.0,0.0,0.0,0.0,0.0,0.0,0.0,0.0,0.0,0.0,0.0,0.0,0.0,0.0,0.0,0.0,0.0,0.0,0.0,0.0,0.0,0.0,0.0,0.0,0.0,0.0,0.0,0.0,0.0,1.2518,1.537,1.7129,1.8848,2.0508,2.0605,2.0605,2.0564,1.9346,1.7659,0.0,0.0,0.0,0.0,0.0,0.0,0.0,0.0,0.0,0.0,0.0,0.0,0.0,0.0,0.0,0.0,0.0,0.0,0.0,0.0,0.0,0.0,0.0,0.0,0.0,0.0,0.0,0.0,0.8273,0.8432,0.868,0.0,0.0,0.0,0.0,0.0,0.0,0.0,0.0,0.0,0.0,1.8894,2.0101,2.0813,0.0,0.0,2.1671,2.1462,2.2179,2.1502,2.043,1.9119,1.767,0.0,0.0,0.0,0.0,0.0,0.0,0.0,0.0,0.0,0.0,0.0,0.0,0.0,0.0,0.0,0.0,0.0,0.0,0.0,0.0,0.0,0.0,0.0,0.0,0.0,0.0,0.0,0.0,0.0,0.0,0.0,0.0,0.0,0.0,0.0,0.0,0.0,0.0,0.0,0.0,0.0,0.0,0.0,0.0,0.0,0.0,0.0,0.0,0.0,0.0,0.0,0.0,1.3105,1.5371,1.7363,1.9102,2.0566,2.0605,2.0605,2.0566,1.9705,1.8139,0.0,0.0,0.0,0.0,0.0,0.0,0.0,0.0,0.0,0.0,0.0,0.0,0.0,0.0,0.0,0.0,0.0,0.0,0.0,0.0,0.0,0.0,0.0,0.0,0.0,0.0,0.0,0.0,0.8968,0.9025,0.903,0.0,0.0,0.0,0.0,0.0,0.0,0.0,0.0,0.0,0.0,2.0412,2.1265,2.1688,2.2027,2.2361,2.2073,2.1928,2.2244,2.1454,2.0551,1.982,0.0,0.0,0.0,0.0,0.0,0.0,0.0,0.0,0.0,0.0,0.0,0.0,0.0,0.0,0.0,0.0,0.0,0.0,0.0,0.0,0.0,0.0,0.0,0.0,0.0,0.0,0.0,1.0158,0.0,0.0,1.0138,0.0,0.0,0.0,0.0,0.0,0.0,0.0,0.0,0.0,0.0,0.0,0.0,0.0,0.0,0.0,0.0,0.0,0.0,0.0,0.0,0.0,0.0,1.3711,1.541,1.793,1.9687,2.0566,2.0605,2.0605,2.0586,1.9746,1.8496,1.6694,0.0,0.0,0.0,0.0,0.0,0.0,0.0,0.0,0.0,0.0,0.0,0.0,0.0,0.0,0.0,0.0,0.0,0.0,0.0,0.0,0.0,0.0,0.0,0.0,0.0,0.0,0.9281,0.9293,0.9293,0.0,0.0,0.0,0.0,0.0,0.0,0.0,0.0,0.0,1.8682,2.157,2.3112,2.3094,2.2874,2.271,2.2706,2.247,2.2303,2.2324,2.2489,2.24,0.0,0.0,0.0,0.0,0.0,0.0,0.0,0.0,0.0,0.0,0.0,0.0,0.0,0.0,0.0,0.0,0.0,0.0,0.0,0.0,0.0,0.0,0.0,0.0,0.0,0.0,0.0,1.3287,1.275,0.0,0.0,0.0,0.0,0.0,0.0,0.0,0.0,0.0,0.0,0.0,1.7871,1.7838,0.0,0.0,0.0,0.0,0.0,0.0,0.0,0.0,0.0,0.0,0.0,0.0,1.4545,1.6269,1.8218,1.9683,2.0566,2.0605,2.0605,2.0605,2.0312,1.9082,1.6773,0.0,0.0,0.0,0.0,0.0,0.0,0.0,0.0,0.0,0.0,0.0,0.0,0.0,0.0,0.0,0.0,0.0,0.0,0.0,0.0,0.0,0.0,0.0,0.0,0.0,0.9307,0.0,0.0,0.0,0.0,0.0,0.0,0.0,0.0,0.0,0.0,0.0,1.5995,2.001,2.2459,2.3703,2.3265,2.3552,2.3656,0.0,0.0,0.0,0.0,0.0,0.0,0.0,0.0,0.0,0.0,0.0,0.0,0.0,0.0,2.0869,1.7653,1.6858,1.6825,1.7289,0.0,0.0,0.0,0.0,0.0,0.0,0.0,0.0,0.0,0.0,0.0,0.0,0.0,0.0,1.5844,1.5343,1.5341,0.0,0.0,0.0,0.0,0.0,0.0,0.0,0.0,1.9107,2.0161,2.0447,2.0425,2.0425,0.0,1.9574,1.759,0.0,0.0,0.0,0.0,0.0,0.0,0.0,0.0,1.6129,1.7563,1.9519,2.0834,2.1422,2.1168,2.1014,2.1035,2.0469,1.9199,1.7225,1.5758,1.4207,0.0,0.0,0.0,0.0,0.0,0.0,0.0,0.0,0.0,0.0,0.0,0.0,0.0,0.0,0.0,0.0,0.0,0.0,0.0,0.0,0.0,0.0,0.0,0.947,0.0,0.0,0.0,0.0,0.0,0.0,0.0,0.0,0.0,1.9581,1.8749,1.9275,2.2522,2.3681,2.4248,2.4361,0.0,0.0,0.0,0.0,0.0,0.0,0.0,2.3664,2.4187,2.3967,2.3855,2.428,2.4476,2.4548,2.4572,0.0,0.0,2.0914,2.0119,2.0124,2.0723,2.1439,2.2094,2.2564,2.3163,2.3624,0.0,0.0,0.0,0.0,1.6567,0.0,0.0,0.0,1.8001,1.7962,0.0,1.7903,0.0,0.0,0.0,0.0,1.5633,1.8765,0.0,0.0,2.2927,2.3797,2.3084,2.2982,2.3008,2.311,2.3756,2.2816,2.0365,1.7151,0.0,0.0,0.0,0.0,0.0,0.0,1.8342,1.9216,2.1634,2.3011,2.3037,2.2256,2.1861,2.1855,2.0293,1.8984,1.8066,1.7225,1.5972,1.4252,1.257,0.0,0.0,0.0,0.0,0.0,0.0,0.0,0.0,0.0,0.0,0.0,0.0,0.0,0.0,0.0,0.0,0.0,0.0,0.0,0.0,0.9821,0.0,0.0,0.0,0.0,0.0,0.0,0.0,0.0,0.0,0.0,2.4008,2.2445,2.2509,2.6093,0.0,0.0,0.0,0.0,2.5295,2.6005,2.5889,2.5698,2.5644,2.5883,2.6096,2.615,0.0,0.0,2.6282,2.5966,2.5795,2.577,2.5887,2.563,2.5272,2.4426,2.425,2.5232,2.4954,2.4877,2.5499,2.5581,2.554,2.1367,0.0,0.0,0.0,0.0,1.8992,2.025,2.2265,2.1629,2.101,2.043,2.0434,0.0,0.0,0.0,0.0,0.0,0.0,2.0954,2.2167,2.3509,2.4304,2.4643,2.4615,2.4617,2.4645,2.4273,2.3767,2.2977,2.1444,1.8724,1.5036,0.0,0.0,0.0,0.0,1.9435,2.0942,2.2271,2.2965,2.3008,2.2773,2.2388,2.186,2.1333,2.0403,1.8984,1.8672,1.7753,1.603,1.4893,0.0,0.0,0.0,0.0,0.0,0.0,0.0,0.0,0.0,0.0,0.0,0.0,0.0,0.0,0.0,0.0,0.0,0.0,0.0,1.0749,1.0801,1.153,0.0,0.0,0.0,0.0,0.0,0.0,0.0,0.0,0.0,2.5735,2.542,2.5436,0.0,0.0,2.7433,2.6892,2.7023,2.7146,2.6975,2.7359,0.0,2.6888,2.672,2.6868,2.7446,2.7966,2.8469,2.8954,2.8704,2.8653,2.9229,2.9137,2.8866,2.8468,2.6652,2.5577,2.6245,2.6914,2.747,2.7931,2.863,2.9238,2.4382,2.1617,2.1072,2.1463,2.2429,2.2469,2.3673,2.5587,2.5048,2.4332,2.3543,2.3524,2.2122,1.9698,1.9354,0.0,0.0,0.0,2.2519,2.381,2.4332,2.4851,2.5288,2.5308,2.5308,2.5269,2.481,2.4565,2.4586,2.4062,2.1939,1.8398,0.0,0.0,1.8625,1.988,2.123,2.2612,2.3441,2.389,2.3955,2.366,2.315,2.2336,2.1996,2.1363,2.0371,2.0,1.916,1.7791,1.6891,1.5144,0.0,0.0,0.0,0.0,0.0,0.0,0.0,0.0,0.0,0.0,0.0,1.0803,0.9768,0.0,0.0,0.0,1.1772,1.3086,1.3281,1.3565,0.0,0.0,0.0,0.0,0.0,0.0,0.0,2.177,2.4141,2.6374,2.7959,2.8123,2.8101,2.8036,2.8738,2.8971,2.8117,0.0,2.826,2.8254,2.895,2.9198,2.8328,2.8639,2.9167,2.9631,2.9911,3.0235,3.0698,3.0558,3.0501,3.0929,3.0896,3.077,3.081,2.9183,2.794,2.8263,2.9015,2.9691,2.9904,3.0472,3.0943,2.6785,2.667,2.5459,2.5458,2.6244,2.6267,2.6842,2.7816,2.7835,2.7393,2.6661,2.6642,2.5335,2.3124,2.2296,0.0,2.3184,2.3996,2.4737,2.544,2.5385,2.5347,2.5347,2.5292,2.5261,2.5274,2.5271,2.5298,2.5288,2.5288,2.45,2.3009,2.2248,2.1817,2.1743,2.2552,2.3386,2.4187,2.4909,2.533,2.5379,2.4738,2.3967,2.309,2.2375,2.1913,2.1777,2.1016,2.0215,1.9434,1.8494,1.7322,1.584,0.0,0.0,0.0,0.0,0.0,0.0,0.0,0.0,0.0,0.0,0.0,0.0,0.0,0.0,0.0,1.4905,0.0,1.6776,1.7376,0.0,0.0,0.0,2.0743,2.1646,2.3897,2.537,2.5245,0.0,0.0,3.0484,3.0597,3.0457,3.0023,2.9948,2.9956,2.9918,2.9345,2.9093,2.9885,3.0641,3.0806,2.9961,3.1056,3.1983,3.184,3.1949,3.1755,3.1778,3.1692,3.1544,3.1672,3.1604,3.1745,3.2253,3.1781,3.1427,3.0895,3.1139,3.1458,3.1451,3.1386,3.1399,2.8436,2.8405,2.8095,2.7484,2.6739,2.6725,2.6969,2.735,2.7369,2.7237,2.704,2.7063,2.6714,2.6135,2.5939,2.5961,2.6154,2.6366,2.6563,2.6692,2.6119,2.5842,2.5801,2.5222,2.4962,2.5074,2.506,2.5152,2.5303,2.5308,2.5094,2.4714,2.4499,2.3779,2.2613,2.3364,2.422,2.5019,2.5192,2.5303,2.5338,2.5151,2.44,2.2993,2.2778,2.2092,2.0885,2.0633,2.0463,2.0273,1.8828,1.8418,1.9277,1.5016,0.0,0.0,0.0,0.0,0.0,0.0,0.0,0.0,0.0,1.5083,1.2556,0.0,1.5683,0.0,1.7067,2.0716,1.8615,1.9162,0.0,0.0,2.3446,2.4643,2.6121,2.6872,2.7264,2.721,2.8887,3.0657,3.2122,3.2308,3.2279,3.2145,3.2134,3.2087,3.1907,3.1759,3.1741,3.2027,3.2262,3.2208,3.1726,3.2558,3.297,3.1645,3.1827,3.2097,3.2119,3.2418,3.2753,3.3126,3.3226,3.3275,3.3366,3.33,3.3189,3.3018,3.2669,3.2314,3.2332,3.2707,3.3108,3.0057,3.0057,3.0057,2.963,2.8865,2.8272,2.8129,2.8318,2.8299,2.8091,2.7696,2.734,2.7186,2.7186,2.7186,2.7186,2.7186,2.7186,2.7186,2.7167,2.6742,2.652,2.652,2.6068,2.5925,2.5965,2.563,2.5491,2.5593,2.5265,2.5102,2.5061,2.5061,2.4637,2.3821,2.4363,2.4849,2.5288,2.5308,2.5308,2.5308,2.5321,2.4741,2.3543,2.3481,2.2721,2.1111,2.1031,2.0714,1.9995,1.9058,1.8807,1.9336,1.6327,1.4296,0.0,0.0,0.0,0.0,0.0,0.0,0.0,0.0,0.0,0.0,0.0,1.8413,1.5068,2.1075,2.4259,2.2089,2.3042,2.4338,2.5728,2.6628,2.7648,2.8988,2.9472,2.9522,2.908,3.0576,3.226,3.3798,3.3367,3.3212,3.3939,3.4067,3.3737,3.291,3.2734,3.2772,3.2875,3.3221,3.3545,3.3561,3.4135,3.4246,3.3374,3.3327,3.3492,3.3485,3.3518,3.3651,3.3907,3.3883,3.3807,3.3807,3.3807,3.3807,3.3752,3.3458,3.3164,3.3158,3.3495,3.3807,3.1409,3.1409,3.1409,3.1409,3.1323,3.0154,2.9688,2.9776,2.9757,2.9283,2.8451,2.7734,2.7425,2.7421,2.7421,2.7421,2.7421,2.7436,2.7421,2.7421,2.7313,2.7275,2.7275,2.7167,2.7142,2.7134,2.6446,2.6127,2.6128,2.5348,2.4955,2.498,2.487,2.491,2.5034,2.5211,2.5308,2.5308,2.5308,2.5308,2.5308,2.537,2.4998,2.4221,2.4085,2.3287,2.1767,2.168,2.1038,1.9637,1.9522,1.9087,1.8164,1.7402,1.7343,0.0,1.7342,0.0,0.0,0.0,0.0,0.0,0.0,0.0,0.0,1.9994,2.0091,2.1067,2.5392,2.7489,2.5977,2.7297,2.831,2.8447,2.9217,3.005,3.0931,3.1649,3.1766,3.0961,3.2338,3.3917,3.5192,3.4182,3.3866,3.5131,3.5399,3.4905,3.3634,3.3343,3.3362,3.3237,3.3872,3.4584,3.5138,3.5385,3.542,3.5402,3.517,3.5138,3.4965,3.4615,3.4297,3.4259,3.4049,3.3895,3.3914,3.3921,3.3908,3.3966,3.3891,3.3814,3.3778,3.377,3.3807,3.1409,3.1409,3.1409,3.1409,3.1378,3.1127,3.0678,3.0116,3.0103,2.9636,2.8887,2.8728,2.8678,2.8649,2.8673,2.8655,2.8673,2.8655,2.8655,2.8636,2.7988,2.7698,2.7638,2.701,2.6801,2.6939,2.6795,2.6818,2.6945,2.6174,2.5823,2.5909,2.5273,2.5056,2.5227,0.0,0.0,0.0,2.5308,2.5308,2.5308,2.5308,2.4941,2.4144,2.3428,0.0,2.1664,2.1609,2.1503,2.1249,2.1223,0.0,0.0,0.0,0.0,0.0,0.0,0.0,0.0,0.0,0.0,0.0,2.1308,2.0794,2.0549,2.1586,2.292,2.4463,2.6817,2.8091,2.7678,2.8518,2.9449,3.0154,3.0928,3.1764,3.2605,3.2861,3.3035,3.3404,3.3899,3.4631,3.5503,3.533,3.5201,3.5581,3.5704,3.5571,3.512,3.4946,3.4991,3.5019,3.5061,3.5273,3.5465,3.5503,3.5503,3.5474,3.546,3.5308,3.5039,3.4987,3.4841,3.4639,3.4353,3.4212,3.4448,3.4411,3.4318,3.4499,3.44,3.419,3.3875,3.3814,3.3807,3.2584,3.2577,3.2584,3.2577,0.0,3.2596,3.2125,3.1353,3.0962,3.0577,3.0173,2.9763,2.9598,2.958,2.9164,2.8987,2.8987,2.8987,2.8987,2.8968,2.8583,2.8405,2.8363,2.7978,2.7823,2.7928,2.7518,2.7404,2.7461,2.6679,2.6333,2.6363,2.5587,2.5352,2.5622,2.5425,2.5308,2.5308,2.5308,2.5308,2.5308,2.5308,2.4906,2.4146,2.4065,0.0,0.0,0.0,0.0,0.0,0.0,0.0,0.0,0.0,0.0,2.2115,2.1515,2.1325,2.1777,2.2227,2.2832,2.373,2.418,2.4042,2.3136,2.3853,2.5041,2.6739,2.8532,2.9569,2.9514,3.0269,3.1107,3.1947,3.2395,3.2979,3.3761,3.3938,3.4254,3.4888,3.5154,3.5414,3.5742,3.5811,3.5766,3.5712,3.5744,3.5769,3.567,3.5592,3.555,3.5498,3.5503,3.5484,3.5503,3.5503,3.5503,3.5503,3.5503,3.5427,3.5239,3.5129,3.5038,3.4889,3.465,3.4518,3.4648,3.466,3.467,3.4694,3.4675,3.4563,3.4278,3.4018,3.3814,3.3935,3.3807,3.3807,3.3807,3.3807,3.3807,3.3415,3.2736,3.1788,0.0,0.0,3.0705,3.0405,3.0356,2.9721,2.9354,2.9225,2.9225,2.9152,2.8987,2.8987,2.8987,2.8987,2.8987,2.8987,2.8968,2.8319,2.8013,2.7976,2.7194,2.683,2.678,2.6041,2.5787,2.5962,2.5636,2.5383,2.5253,2.5276,2.5308,2.5308,2.5308,2.4983,2.4336,2.4812,2.4445,2.3105,2.3704,2.3463,2.2133,2.2174,2.2283,2.2372,2.2365,2.324,2.5121,2.4822,2.453,2.4606,2.5251,2.5427,2.4882,2.6308,2.6855,2.6016,2.6074,2.6816,2.8398,3.0234,3.1289,3.1152,3.1894,3.2734,3.3535,3.3613,3.3965,3.4766,3.4922,3.5195,3.5859,3.5957,3.5955,3.5848,3.5928,3.5941,3.5824,3.5819,3.58,3.5738,3.5659,3.5582,3.5518,3.5503,3.5503,3.5503,3.5503,3.5503,3.5503,3.5503,3.5503,3.546,3.5331,3.519,3.5163,3.4954,3.4818,3.4827,3.4883,3.4916,3.4846,3.4879,3.4906,3.475,3.4335,3.4005,3.4417,3.3807,3.3807,3.3807,3.3807,3.3807,3.3733,3.3513,3.2058,3.1409,3.139,3.128,3.1225,3.1225,3.1115,3.0687,3.0057,3.0038,2.9671,2.9005,2.8987,2.8987,2.8987,2.8987,2.8987,2.8987,2.8882,2.8822,2.873,2.8026,2.7717,2.7772,2.7092,2.6472,2.6042,2.6044,2.5732,2.5059,2.5214,2.5308,2.5308,2.5308,2.525,2.5115,2.4562,2.4185,2.3956,2.4033,2.3999,2.3779,2.4408,2.4482,2.3872,2.4439,2.4741,2.4473,2.4993,2.5332,2.534,2.5456,2.5828,2.6524,2.746,2.7684,2.6934,2.75,2.8359,2.9394,3.1601,3.2773,3.2187,3.2754,3.3574,3.4375,3.4512,3.4863,3.5664,3.5762,3.582,3.5976,3.6016,3.5996,3.5976,3.5976,3.5996,3.5957,3.5937,3.5947,3.5864,3.5729,3.5585,3.5512,3.5503,3.5503,3.5503,3.5503,3.5503,3.5503,3.5503,3.5503,3.5503,3.5449,3.5421,3.5435,3.5211,3.5138,3.5297,3.5187,3.5171,3.5273,3.5253,3.5149,3.5148,3.4897,3.4674,3.5495,3.5172,3.5154,3.4864,3.4424,3.399,3.3807,3.374,3.3018,3.2712,3.2657,3.2265,3.2063,3.2008,3.1586,3.1188,3.0858,3.0858,3.065,3.0283,2.9855,2.9647,2.9616,2.9189,2.8987,2.8987,2.8987,2.8987,2.895,2.8626,2.8504,2.8542,2.7993,2.7363,2.6729,2.6956,2.6939,2.6551,2.5741,2.5308,2.5308,2.5308,2.5308,2.5308,2.4928,2.4736,2.4755,2.4736,2.4752,2.4755,2.5115,2.5137,2.4801,2.5138,2.519,2.4894,2.5235,2.5453,2.549,2.5952,2.6584,2.7486,2.8308,2.8681,2.8388,2.8299,2.9062,3.082,3.2519,3.3457,3.3535,3.3887,3.4453,3.5312,3.541,3.5566,3.5898,3.6016,3.6016,3.6016,3.6016,3.6016,3.6016,3.6016,3.6016,3.6016,3.6016,3.5996,3.5949,3.5859,3.5716,3.5574,3.5525,3.5488,3.5503,3.5503,3.5503,3.5503,3.5503,3.5503,3.5503,3.5503,3.5503,3.55,3.5383,3.5376,3.5493,3.5417,3.5406,3.5474,3.5831,3.5918,3.5967,3.6194,3.6213,3.6457,3.6285,3.6285,3.591,3.5224,3.4406,3.4082,3.4064,3.3869,3.3807,3.3715,3.3128,3.2883,3.2791,3.221,3.1849,3.1684,3.1666,3.158,3.1335,3.076,3.0467,3.043,2.98,2.9445,2.928,2.9262,2.9183,2.9018,2.8987,2.8987,2.8965,2.8754,2.8224,2.7418,2.7866,2.8013,2.7772,2.6547,2.5788,2.5594,2.5401,2.5308,2.5308,2.5288,2.5308,2.5308,2.5308,2.5308,2.5308,2.5308,2.5308,2.5308,2.5308,2.5314,2.5381,2.5567,2.5795,2.6071,2.6846,2.7605,2.8304,2.9107,2.9612,2.9698,2.9232,2.9766,3.1894,3.3301,3.4238,3.457,3.4883,3.5273,3.5918,3.6016,3.5976,3.6016,3.6016,3.6016,3.6016,3.6016,3.6016,3.6016,3.6172,3.6445,3.6641,3.6582,3.6562,3.6508,3.6477,3.6349,3.598,3.5706,3.5514,3.5503,3.5503,3.5503,3.5503,3.5503,3.5503,3.5503,3.5503,3.5503,3.55,3.55,3.547,3.5516,3.5708,3.5782,3.5904,3.6447,3.6974,3.7005,3.7635,3.7805,3.6978,3.634,3.6358,3.6273,3.6083,3.5261,3.4894,3.4784,3.413,3.3807,3.3825,3.3697,3.3678,3.3678,3.355,3.3121,3.2516,3.2497,3.2112,3.1501,3.1335,3.1305,3.128,3.117,3.0797,3.0167,3.0057,2.9666,2.9097,2.9018,2.8987,2.9021,2.9196,2.8884,2.8185,2.8503,2.8385,2.7663,2.7656,2.7277,2.6483,2.5712,2.5308,2.5308,2.5308,2.5308,2.5308,2.5308,2.5308,2.5308,2.5308,2.5308,2.5327,2.5308,2.5313,2.5385,2.6063,2.6819,2.7604,2.843,2.8912,2.9128,2.9911,3.042,3.0493,3.0567,3.1035,3.2383,3.4394,3.5312,3.4863,3.5371,3.584,3.5957,3.6016,3.6016,3.6016,3.6016,3.6016,3.6016,3.6016,3.6016,3.6152,3.6719,3.7461,3.8008,3.8047,3.8047,3.8046,3.7976,3.7703,3.7032,3.6253,3.5618,3.5524,3.5503,3.5503,3.5503,3.5538,3.5558,3.5558,3.558,3.5523,3.5753,3.5696,3.5753,3.585,3.6042,3.658,3.6715,3.7234,3.7892,3.7969,3.8588,3.8716,3.8036,3.7716,3.7716,3.7448,3.6916,3.6119,3.5764,3.569,3.4876,3.4509,3.4442,3.4002,3.3807,3.3807,3.3807,3.3605,3.333,3.3305,3.3146,3.2786,3.2339,3.2094,3.2082,3.1592,3.1207,3.0876,3.043,3.0038,2.9684,2.9244,2.8987,2.9015,2.9267,2.9282,2.9077,2.9353,2.9414,2.9244,2.8826,2.8431,2.797,2.6753,2.6058,2.6003,2.5574,2.5308,2.5308,2.5308,2.5308,2.5308,2.5308,2.5538,2.6041,2.6058,2.6291,2.6791,2.7159,2.7739,2.8569,2.8915,2.9341,2.9859,3.0711,3.1231,3.1266,3.0897,3.1375,3.3386,3.5051,3.58,3.5499,3.5779,3.6016,3.6016,3.6016,3.6016,3.6016,3.6016,3.6016,3.6016,3.6016,3.623,3.6758,3.7519,3.8164,3.8555,3.8633,3.8691,3.8613,3.8553,3.8369,3.7934,3.7201,3.6391,3.582,3.5522,3.5536,3.5596,3.5904,3.6115,3.575,3.6504,3.685,3.6311,3.658,3.683,3.7061,3.7157,3.7469,3.7661,3.818,3.8877,3.9358,3.9746,3.9785,3.8699,3.8699,3.8699,3.8358,3.776,3.6971,3.6622,3.6512,3.5727,3.5224,3.4942,3.438,3.4009,3.3825,3.3807,3.3807,3.3807,3.3807,3.3807,3.374,3.3176,3.2938,3.2864,3.2357,3.1941,3.1684,3.1158,3.065,3.0204,2.9647,2.9225,2.9088,2.9262,2.9465,2.963,2.9813,3.004,3.0203,2.9649,2.9382,2.9247,2.8047,2.7178,2.6926,2.6349,2.6022,2.6019,2.6,2.6019,2.6019,2.6,2.6291,2.689,2.6948,2.7351,2.8126,2.8239,2.8585,2.9393,2.9451,2.9717,3.0388,3.1195,3.1705,3.17,3.1336,3.2111,3.402,3.5299,3.5843,3.5911,3.5951,3.5996,3.6016,3.6016,3.6016,3.6016,3.6016,3.6113,3.6309,3.6445,3.6816,3.7832,3.8574,3.9062,3.9355,3.9394,3.9297,3.9316,3.9375,3.9276,3.8891,3.8367,3.7653,3.6576,3.6559,3.6355,3.6269,3.6773,3.685,3.6292,3.7392,3.7911,3.7177,3.7738,3.793,3.7757,3.7911,3.8473,3.8742,3.9184,3.9727,4.015,4.0439,4.0477,3.8699,3.8699,3.8699,3.867,3.8571,3.7779,3.7437,3.7401,3.6585,3.5819,3.5162,3.4986,3.4527,3.3862,3.3899,3.3807,3.3807,3.3807,3.3807,3.3807,3.3733,3.3733,3.3752,3.3697,3.3268,3.2571,3.235,3.1617,3.0301,3.0191,2.9739,2.9108,2.9357,2.944,2.951,2.9663,2.9813,2.9998,2.994,3.0051,3.0175,2.941,2.8585,2.797,2.7758,2.7643,2.77,2.7739,2.7739,2.7739,2.7662,2.7758,2.7835,2.7873,2.8239,2.8934,2.9047,2.9412,3.0154,3.0269,3.0346,3.0558,3.1291,3.1762,3.1995,3.248,3.3282,3.418,3.509,3.5628,3.5833,3.5923,3.5996,3.5996,3.5996,3.5996,3.6016,3.6094,3.6426,3.7012,3.7285,3.7949,3.9453,3.9805,4.0176,4.0664,4.0976,4.0918,4.082,4.0918,4.0586,4.0019,3.9569,3.9169,3.8342,3.7807,3.7933,3.7834,3.7546,3.7853,3.7915,3.7992,3.7988,3.8007,3.8277,3.8373,3.8257,3.8642,3.9396,3.98,3.9992,4.0439,4.0458,4.0477,4.0492,3.8699,3.8699,3.8699,3.8699,3.867,3.8377,3.8267,3.8175,3.7393,3.6898,3.6541,3.6075,3.5378,3.4564,3.4564,3.4277,3.3844,3.3807,3.3807,3.3807,3.3807,3.3807,3.3807,3.3807,3.3678,3.3348,3.2839,3.2039,3.1091,3.0987,3.084,3.0497,3.0089,2.9996,3.0052,2.9716,2.9665,2.9965,2.9999,3.0133,3.0386,3.0077,2.9791,2.9464,2.8448,2.789,2.789,2.789,2.789,2.789,2.789,2.8143,2.8643,2.9198,2.9618,2.9888,2.9926,3.0077,3.0346,3.0404,3.0654,3.1234,3.2006,3.2721,3.3295,3.4045,3.4715,3.5003,3.5273,3.5578,3.5679,3.5764,3.5858,3.5919,3.5943,3.597,3.6094,3.6465,3.6953,3.7402,3.8184,3.9277,3.9785,4.0371,4.084,4.1113,4.1191,4.1191,4.1191,4.1191,4.1055,4.082,4.0584,4.0357,4.0004,3.8771,3.8223,3.828,3.8242,3.8296,3.8354,3.9127,3.9358,3.8973,3.9031,3.93,3.9377,3.9473,4.0204,4.0262,4.0492,4.0492,4.0492,4.0492,4.0492,3.8699,3.8699,3.8699,3.8699,3.8699,3.8699,3.8699,3.8626,3.812,3.7749,3.7437,3.6898,3.6211,3.5463,3.5133,3.4729,3.4192,3.3954,3.3807,3.3807,3.3807,3.3807,3.3807,3.3807,3.3807,3.3733,3.3275,3.2577,3.188,3.1788,3.1666,3.136,3.0905,3.0804,3.0873,3.0516,3.0483,3.0738,3.0563,3.056,3.0748,3.0536,3.0404,3.025,2.9272,2.8698,2.8717,2.8698,2.8698,2.8698,2.8695,2.8948,2.9528,3.0058,3.0404,3.0404,3.0385,3.0538,3.0788,3.0805,3.1192,3.2045,3.2852,3.3606,3.4205,3.5003,3.5427,3.5503,3.5503,3.5522,3.5562,3.5609,3.5712,3.5861,3.5883,3.6055,3.6406,3.6934,3.7461,3.8125,3.9355,4.0176,4.0391,4.0859,4.1113,4.1191,4.1191,4.1191,4.1191,4.1191,4.1191,4.1191,4.1035,4.0873,4.0589,3.973,3.925,3.926,3.9127,3.905,3.9123,3.9992,4.0285,3.9954,3.9992,4.0339,4.0492,4.0492,4.0492,4.0492,4.0492,4.0492,4.0492,4.0492,4.0492,3.8736,3.8762,3.8699,3.8699,3.8699,3.8699,3.8699,3.8689,3.8644,3.8212,3.7694,3.7511,3.7044,3.6285,3.5591,3.5089,3.4912,3.4369,3.3979,3.3807,3.3807,3.3807,3.3807,3.3807,3.3807,3.3807,3.377,3.3348,3.2644,3.2589,3.2265,3.1673,3.1728,3.1719,3.1794,3.1837,3.2138,3.2178,3.1627,3.1447,3.1562,3.1,3.0654,3.0577,3.0404,3.0311,3.0346,3.0288,3.0192,3.0231,3.0231,3.0346,3.0269,3.0382,3.0423,3.05,3.0462,3.0865,3.1561,3.1715,3.2042,3.2852,3.3664,3.4125,3.443,3.5042,3.5503,3.5503,3.5503,3.5494,3.5517,3.5602,3.5698,3.5846,3.5947,3.6362,3.6973,3.7344,3.7871,3.9199,4.041,4.1113,4.1172,4.1172,4.1191,4.1191,4.1191,4.1191,4.1191,4.1191,4.1191,4.1191,4.1125,4.1017,4.0875,4.0701,4.0552,4.0433,4.025,4.0108,3.9973,4.0454,4.0454,4.0204,4.0204,4.0492,4.0492,4.0492,4.0492,4.0492,4.0492,4.0492,4.0492,4.0492,4.0492,3.9523,3.946,3.8909,3.8699,3.8699,3.8699,3.8699,3.8699,3.8699,3.856,3.834,3.8322,3.7863,3.721,3.6806,3.6413,3.5892,3.5587,3.4926,3.399,3.3825,3.3825,3.3807,3.3807,3.3807,3.3807,3.3807,3.3678,3.3451,3.3403,3.3256,3.3032,3.2563,3.2361,3.2373,3.2087,3.206,3.2266,3.2246,3.23,3.251,3.2253,3.2099,3.2061,3.1599,3.1291,3.1269,3.0731,3.0404,3.0404,3.0404,3.0404,3.0404,3.0404,3.0676,3.1212,3.1291,3.1657,3.2372,3.2561,3.2891,3.3644,3.409,3.4491,3.5003,3.5311,3.5503,3.5503,3.5503,3.5503,3.5577,3.6038,3.6134,3.5743,3.6274,3.6807,3.7404,3.8357,3.9492,4.041,4.0976,4.1191,4.1191,4.1191,4.1191,4.1191,4.1191,4.1191,4.1191,4.1191,4.1191,4.1191,4.1133,4.1074,4.0942,4.0807,4.0701,4.0597,4.0541,4.05,4.0492,4.0492,4.0492,4.0492,4.0492,4.0492,4.0492,4.0492,4.0492,4.0492,4.0492,4.0492,4.0492,4.0492,4.0492,4.0157,3.9853,3.935,3.8982,3.8718,3.8699,3.8699,3.8699,3.8699,3.8699,3.8681,3.8681,3.8432,3.7944,3.7632,3.7235,3.6732,3.6457,3.5741,3.4761,3.4332,3.4112,3.3862,3.3807,3.3807,3.3807,3.3807,3.3807,3.3807,3.3807,3.3807,3.3685,3.3392,3.3272,3.3349,3.3192,3.3143,3.3386,3.3307,3.3252,3.3295,3.3064,3.2891,3.2814,3.2407,3.2157,3.2102,3.1599,3.1038,3.0615,3.0692,3.0904,3.1019,3.1231,3.15,3.1753,3.2099,3.2506,3.324,3.3394,3.3737,3.4472,3.468,3.4888,3.5385,3.5503,3.5503,3.5503,3.5503,3.5635,3.5962,3.6346,3.6558,3.6554,3.7034,3.7594,3.8192,3.9467,4.0449,4.1016,4.1191,4.1191,4.1191,4.1191,4.1191,4.1191,4.1191,4.1191,4.1191,4.1191,4.1191,4.1191,4.1191,4.1113,4.1016,4.0895,4.0792,4.067,4.0584,4.0538,4.0492,4.0492,4.0492,4.0492,4.0492,4.0492,4.0492,4.0492,4.0492,4.0492,4.0492,4.0492,4.0492,4.0492,4.0492,4.0718,4.0047,3.9926,3.946,3.8854,3.8736,3.8699,3.8699,3.8699,3.8699,3.8699,3.8699,3.8681,3.8487,3.7962,3.7639,3.7456,3.6953,3.6549,3.6138,3.5562,3.4828,3.3917,3.3807,3.3807,3.3807,3.3807,3.3807,3.3807,3.3807,3.3807,3.3815,3.3944,3.4279,3.4374,3.4865,3.4907,3.4955,3.4546,3.4269,3.4241,3.3583,3.3179,3.3199,3.3083,3.299,3.2949,3.2737,3.2042,3.0904,3.1407,3.1811,3.2099,3.2583,3.2542,3.2311,3.2718,3.3391,3.4029,3.4276,3.4564,3.5231,3.535,3.5484,3.5484,3.5503,3.5503,3.5519,3.5654,3.5962,3.6481,3.6965,3.7352,3.7996,3.8219,3.8647,3.9659,4.0601,4.1035,4.1152,4.1191,4.1191,4.1191,4.1191,4.1191,4.1191,4.1191,4.1191,4.1191,4.1191,4.1191,4.1191,4.1191,4.1152,4.1058,4.0979,4.0859,4.0745,4.0629,4.0574,4.0508,4.0492,4.0492,4.0492,4.0492,4.0492,4.0492,4.0492,4.0492,4.0492,4.0492,4.0492,4.0492,4.0492,4.0492,4.1864,4.1552,4.0396,3.9798,3.9496,3.8982,3.8699,3.8699,3.8699,3.8699,3.8699,3.8699,3.8699,3.8663,3.8479,3.8377,3.8267,3.812,3.7679,3.721,3.6989,3.5605,3.4156,3.3807,3.3825,3.3844,3.3825,3.3807,3.3807,3.3807,3.3807,3.3807,3.3895,3.4056,3.4334,3.4689,3.4921,3.5202,3.5232,3.5119,3.508,3.4907,3.4827,3.4769,3.418,3.3894,3.3779,3.324,3.2776,3.2352,3.2429,3.2407,3.2308,3.2734,3.3141,3.3388,3.368,3.4221,3.4926,3.5119,3.5269,3.5442,3.5503,3.5503,3.5503,3.5503,3.5503,3.5654,3.6192,3.6712,3.6942,3.7853,3.8896,3.9708,3.9473,3.959,4.0491,4.1016,4.1191,4.1191,4.1191,4.1191,4.1191,4.1191,4.1191,4.1191,4.1191,4.1191,4.1191,4.1191,4.1191,4.1191,4.1191,4.1172,4.1128,4.1026,4.0933,4.0803,4.0693,4.0616,4.0548,4.0492,4.0492,4.0492,4.0492,4.0492,4.0492,4.0492,4.0492,4.0492,4.0492,4.0492,4.0492,4.0492,4.0492,4.2625,4.2231,4.1295,4.0514,3.9871,3.9412,3.9019,3.8744,3.8699,3.8699,3.8699,3.8699,3.8699,3.8699,3.8681,3.8699,3.8699,3.8699,3.8432,3.8017,3.7621,3.6475,3.5128,3.4552,3.4296,3.4259,3.3972,3.3825,3.3807,3.3807,3.3807,3.3807,3.3807,3.4005,3.4442,3.4606,3.4903,3.5223,3.5432,3.5503,3.5503,3.5503,3.5481,3.5427,3.4968,3.4757,3.4661,3.4253,3.3853,3.3548,3.3433,3.3449,3.3558,3.3811,3.4176,3.4523,3.4676,3.5003,3.535,3.5503,3.5503,3.5503,3.5503,3.5503,3.5503,3.55,3.5538,3.608,3.6654,3.7196,3.793,3.9031,3.9991,4.0488,4.0339,4.0381,4.1064,4.1151,4.1191,4.1191,4.1191,4.1191,4.1191,4.1191,4.1191,4.1191,4.1191,4.1191,4.1191,4.1191,4.1191,4.1191,4.1191,4.1191,4.1152,4.1076,4.0986,4.0857,4.073,4.0646,4.0566,4.0492,4.0492,4.0492,4.0492,4.0492,4.0492,4.0492,4.0492,4.0492,4.0492,4.0492,4.0492,4.0492,4.0492,4.3084,4.2415,4.2323,4.146,4.0312,4.0065,3.9588,3.8927,3.8891,3.8817,3.8707,3.8699,3.8699,3.8699,3.8699,3.8699,3.8699,3.8699,3.8681,3.8414,3.8017,3.7217,3.656,3.5518,3.5195,3.5085,3.4387,3.4149,3.4112,3.4027,3.388,3.3844,3.3807,3.413,3.4537,3.4708,3.5004,3.5376,3.5467,3.5503,3.5503,3.5503,3.5503,3.5465,3.5446,3.535,3.5388,3.5311,3.5064,3.4375,3.4337,3.4661,3.5269,3.5423,3.5423,3.5369,3.535,3.5407,3.5503,3.5503,3.5503,3.5503,3.5503,3.558,3.5673,3.5769,3.6061,3.6792,3.6888,3.791,3.9108,4.0115,4.0487,4.0764,4.0783,4.086,4.0997,4.1113,4.1191,4.1191,4.1191,4.1191,4.1191,4.1191,4.1191,4.1191,4.1191,4.1191,4.1191,4.1191,4.1191,4.1191,4.1191,4.1191,4.1152,4.1104,4.1023,4.0915,4.0779,4.0671,4.0552,4.0492,4.0492,4.0492,4.0492,4.0492,4.0492,4.0492,4.0492,4.0492,4.0492,4.0492,4.0492,4.0492,4.0492,4.3414,4.3194,4.2561,4.2103,4.1699,4.1103,4.0388,3.9643,3.9633,3.9258,3.8836,3.8699,3.8699,3.8699,3.8699,3.8699,3.8699,3.8699,3.8699,3.8663,3.8579,3.8377,3.7845,3.6736,3.6075,3.5954,3.5862,3.5397,3.4919,3.4692,3.4406,3.3899,3.3997,3.4136,3.4673,3.4772,3.4963,3.5394,3.5519,3.5503,3.5503,3.5503,3.5503,3.5503,3.5503,3.5503,3.5503,3.5503,3.5407,3.5273,3.5196,3.5253,3.5446,3.5503,3.5503,3.5503,3.5503,3.5503,3.5503,3.5503,3.5503,3.5577,3.5635,3.5769,3.6407,3.6404,3.683,3.7623,3.8338,3.9031,4.0108,4.0507,4.0716,4.0887,4.0951,4.1015,4.1113,4.1172,4.1191,4.1191,4.1191,4.1191,4.1191,4.1191,4.1191,4.1191,4.1191,4.1191,4.1191,4.1191,4.1191,4.1191,4.1191,4.1191,4.1191,4.1133,4.1055,4.0958,4.0812,4.0695,4.0579,4.0492,4.0492,4.0492,4.0492,4.0492,4.0492,4.0492,4.0492,4.0492,4.0492,4.0492,4.0492,4.0492,4.0492,4.3488,4.3451,4.3029,4.2653,4.2268,4.1819,4.1213,4.0487,4.0037,3.9669,3.9239,3.8901,3.8699,3.8699,3.8699,3.8699,3.8699,3.8699,3.8699,3.8699,3.8681,3.8681,3.8634,3.79,3.7257,3.6898,3.642,3.6009,3.5708,3.5543,3.5188,3.4451,3.4512,3.4882,3.5131,3.5064,3.5353,3.5824,3.5654,3.5503,3.5503,3.5503,3.5503,3.5503,3.5503,3.5503,3.5503,3.5503,3.5503,3.5503,3.5519,3.55,3.5503,3.5503,3.5503,3.5503,3.5503,3.5503,3.5503,3.5523,3.5657,3.6061,3.6058,3.6558,3.6984,3.71,3.7507,3.8319,3.8934,3.9457,4.0544,4.0739,4.0836,4.0946,4.0996,4.1074,4.1172,4.1191,4.1191,4.1191,4.1191,4.1191,4.1191,4.1191,4.1191,4.1191,4.1191,4.1191,4.1191,4.1191,4.1191,4.1191,4.1191,4.1191,4.1191,4.1152,4.1094,4.0989,4.0863,4.0749,4.0649,4.0558,4.0492,4.0492,4.0492,4.0492,4.0492,4.0492,4.0492,4.0492,4.0492,4.0492,4.0492,4.0492,4.0492,4.3488,4.3488,4.3488,4.3102,4.2525,4.2488,4.2002,4.1232,4.0579,4.022,3.9798,3.9148,3.8909,3.8726,3.8699,3.8699,3.8699,3.8699,3.8699,3.8699,3.8699,3.8699,3.8649,3.8533,3.8295,3.7709,3.7195,3.6765,3.6605,3.6431,3.6028,3.5397,3.5514,3.5778,3.5912,3.5813,3.6041,3.6728,3.6427,3.6119,3.6003,3.5907,3.5731,3.5503,3.5503,3.5503,3.5542,3.5657,3.5731,3.5696,3.5788,3.5731,3.5519,3.5503,3.5503,3.5503,3.5503,3.5615,3.5788,3.583,3.608,3.6792,3.6888,3.7311,3.785,3.7911,3.8277,3.8902,3.9513,3.9696,4.0591,4.0799,4.0899,4.0997,4.1028,4.1081,4.1152,4.1191,4.1191,4.1191,4.1191,4.1191,4.1191,4.1191,4.1191,4.1211,4.123,4.123,4.125,4.125,4.1289,4.1211,4.1191,4.1191,4.1191,4.125,4.1172,4.1147,4.0997,4.0921,4.0781,4.0575,4.0496,4.0492,4.0492,4.0504,4.0504,4.0492,4.0492,4.0492,4.0492,4.0492,4.0492,4.0492,4.0627,4.3488,4.3488,4.3488,4.3414,4.3304,4.3286,4.2827,4.2176,4.1882,4.1111,4.0018,3.9735,3.9276,3.8891,3.8699,3.8699,3.8699,3.8699,3.8699,3.8699,3.8699,3.8699,3.8727,3.8894,3.8901,3.8816,3.8366,3.7983,3.7669,3.7379,3.6964,3.6346,3.6408,3.6696,3.6946,3.7039,3.7219,3.7655,3.7465,3.7311,3.7196,3.6811,3.6269,3.583,3.5811,3.5734,3.5788,3.6173,3.65,3.658,3.7196,3.6734,3.6003,3.5677,3.5677,3.5715,3.5753,3.6019,3.6404,3.6519,3.6946,3.7526,3.7777,3.82,3.8742,3.8819,3.9127,3.9779,4.0253,4.0471,4.0745,4.0896,4.1021,4.1126,4.1152,4.1172,4.1191,4.1191,4.1191,4.1191,4.1191,4.1191,4.1191,4.1191,4.1191,4.1406,4.166,4.1562,4.1465,4.1484,4.1504,4.1367,4.1191,4.1191,4.1191,4.1289,4.1305,4.1399,4.1326,4.1267,4.1053,4.0658,4.0523,4.1016,4.0824,4.0534,4.0523,4.0542,4.0669,4.0795,4.0669,4.0554,4.0916,4.1243,4.1281,4.3488,4.3488,4.3488,4.3488,4.3488,4.3488,4.3286,4.29,4.247,4.1882,4.1083,4.0312,3.9706,3.9276,3.8836,3.8707,3.8699,3.8699,3.8699,3.8699,3.8699,3.8699,3.8742,3.8971,3.9198,3.9264,3.9193,3.9054,3.8808,3.8658,3.8081,3.7642,3.767,3.7872,3.7927,3.7825,3.8192,3.8446,3.8296,3.8027,3.8027,3.7546,3.7119,3.6907,3.6773,3.6792,3.685,3.7061,3.7369,3.745,3.7757,3.7488,3.7065,3.6792,3.6788,3.6811,3.6754,3.6888,3.7273,3.7388,3.7796,3.8507,3.8684,3.9088,3.9627,3.9838,3.9915,4.0322,4.0633,4.073,4.0809,4.0967,4.1126,4.1172,4.1191,4.1191,4.1211,4.1211,4.123,4.125,4.1308,4.1308,4.1191,4.1191,4.1191,4.1504,4.1992,4.1992,4.1855,4.1992,4.2148,4.2148,4.2109,4.207,4.2148,4.2285,4.2031,4.1955,4.1899,4.1848,4.1866,4.1726,4.1886,4.2247,4.1767,4.1013,4.0697,4.0739,4.0929,4.1161,4.1265,4.1416,4.1755,4.1993,4.2031,4.3488,4.3488,4.3488,4.3488,4.3488,4.3488,4.3488,4.3359,4.2837,4.2451,4.2113,4.1038,4.0359,3.9955,3.9368,3.8901,3.8736,3.8699,3.8699,3.8699,3.8699,3.8699,3.8773,3.904,3.9333,3.9541,3.9773,3.9746,3.9579,3.9457,3.9173,3.8829,3.889,3.9085,3.9027,3.8839,3.9058,3.9069,3.8934,3.8492,3.8296,3.8257,3.8142,3.8004,3.8004,3.7911,3.7792,3.8123,3.8238,3.8319,3.8473,3.8527,3.8511,3.8511,3.8511,3.8473,3.8219,3.8084,3.8238,3.8277,3.8646,3.9434,3.9531,3.9896,4.0204,4.0339,4.0439,4.0523,4.0647,4.0747,4.0834,4.1029,4.1172,4.1191,4.1191,4.1211,4.1269,4.1328,4.1387,4.1426,4.1484,4.1621,4.1719,4.1348,4.1367,4.2305,4.2812,4.2871,4.2793,4.3047,4.3183,4.3242,4.3242,4.3203,4.3359,4.375,4.3398,4.2988,4.2939,4.2862,4.3015,4.3121,4.3238,4.3125,4.2566,4.1865,4.1427,4.1281,4.1768,4.2105,4.2118,4.221,4.2421,4.2651,4.2777,4.3488,4.3488,4.3488,4.3488,4.3488,4.3488,4.3488,4.3469,4.3359,4.2928,4.2396,4.2047,4.1507,4.0828,4.0102,3.9386,3.892,3.8817,3.8773,3.8718,3.8699,3.8699,3.8792,3.9301,3.9481,3.9696,4.012,4.0227,4.0057,3.9778,3.9619,3.9507,3.9693,3.9924,3.9827,3.9824,4.0258,4.0304,4.0189,3.9804,3.9261,3.9146,3.878,3.8334,3.8161,3.8219,3.8392,3.8819,3.9107,3.9204,3.9804,4.0131,4.0208,4.0208,4.0208,3.9761,3.9069,3.8334,3.8992,3.9146,3.9396,4.0035,4.0242,4.0381,4.0458,4.0492,4.0496,4.0492,4.0674,4.079,4.0864,4.1109,4.1191,4.1348,4.1484,4.1445,4.1445,4.207,4.207,4.2168,4.2402,4.248,4.2578,4.2012,4.168,4.2715,4.3555,4.3633,4.3769,4.4043,4.4238,4.4316,4.4316,4.4277,4.4394,4.4805,4.4648,4.4121,4.4043,4.3984,4.4114,4.42,4.384,4.3617,4.3223,4.3183,4.3146,4.3109,4.3107,4.305,4.3072,4.3023,4.2998,4.3236,4.3609,4.3488,4.3488,4.3488,4.3488,4.3488,4.3488,4.3488,4.3488,4.3488,4.3322,4.291,4.247,4.1856,4.1158,4.07,4.0139,3.9515,3.9368,3.9093,3.8773,3.8744,3.8707,3.884,3.9294,3.9599,3.9778,4.0152,4.041,4.0281,4.0203,4.0115,4.0115,4.0226,4.0305,4.0285,4.0441,4.0465,4.0473,4.0435,4.0319,4.0069,3.9938,3.9785,3.9415,3.9358,3.9338,3.9434,3.9685,3.9977,4.0035,4.04,4.0477,4.0496,4.0473,4.0477,4.0419,3.99,3.9665,3.9919,3.9958,4.0169,4.0342,4.0492,4.0473,4.0492,4.0492,4.0492,4.05,4.0676,4.0803,4.1008,4.15,4.1758,4.1933,4.2148,4.2363,4.2461,4.2773,4.3086,4.3183,4.334,4.3535,4.3633,4.3262,4.2988,4.3516,4.4394,4.4805,4.4941,4.5137,4.5293,4.5391,4.5391,4.5351,4.5488,4.5742,4.5683,4.5332,4.5351,4.5293,4.5254,4.5159,4.4805,4.4902,4.5019,4.498,4.4902,4.4337,4.377,4.3838,4.4005,4.4063,4.4117,4.4457,4.4795,4.3488,4.3488,4.3488,4.3488,4.3488,4.3488,4.3488,4.3488,4.3488,4.3488,4.3341,4.2855,4.2186,4.1544,4.136,4.0956,4.0212,4.0194,3.9698,3.9239,3.8961,3.8941,3.9026,3.9364,3.967,3.9761,4.0248,4.0465,4.0485,4.0469,4.043,4.0492,4.043,4.0477,4.0485,4.0489,4.0492,4.0492,4.0492,4.0473,4.0435,4.0435,4.0435,4.0435,4.0492,4.0492,4.0492,4.0454,4.0458,4.0458,4.0458,4.0492,4.0492,4.0492,4.0492,4.0496,4.0262,4.03,4.0358,4.0396,4.0492,4.0492,4.0492,4.0492,4.0492,4.0492,4.0492,4.0496,4.0674,4.087,4.1229,4.1948,4.2344,4.2754,4.3183,4.3496,4.3769,4.3887,4.3965,4.3984,4.4277,4.4922,4.4902,4.4629,4.4512,4.457,4.5117,4.5781,4.5918,4.5898,4.5918,4.5918,4.5918,4.5898,4.6016,4.6211,4.6269,4.6289,4.6289,4.623,4.5957,4.5957,4.582,4.6094,4.6289,4.6094,4.5586,4.4961,4.4426,4.4746,4.504,4.5221,4.5386,4.5619,4.5607,4.3488,4.3488,4.3488,4.3488,4.3488,4.3488,4.3488,4.3488,4.3488,4.3488,4.3488,4.3359,4.2882,4.2378,4.2131,4.1782,4.103,4.103,4.0524,4.0073,3.9811,3.9612,3.9621,3.974,3.9967,4.0247,4.0744,4.0808,4.0569,4.0781,4.0627,4.0492,4.055,4.0512,4.0492,4.0492,4.0492,4.0492,4.0492,4.0492,4.0492,4.0492,4.0492,4.0492,4.0492,4.0492,4.0492,4.0492,4.0492,4.0492,4.0492,4.0492,4.0492,4.0492,4.0492,4.0492,4.0492,4.055,4.0666,4.0569,4.0492,4.0492,4.0492,4.0492,4.0492,4.0492,4.0492,4.0692,4.1089,4.1444,4.187,4.2344,4.3066,4.3535,4.4004,4.4238,4.4512,4.4766,4.4824,4.4805,4.5117,4.5625,4.582,4.5469,4.5371,4.541,4.5469,4.6113,4.6152,4.6152,4.6191,4.6191,4.6211,4.6211,4.623,4.6289,4.6289,4.6289,4.6289,4.6289,4.6211,4.6289,4.6289,4.6289,4.6289,4.6289,4.6269,4.5703,4.5449,4.5801,4.5988,4.5814,4.5666,4.5642,4.5642,4.3488,4.3488,4.3488,4.3488,4.3488,4.3488,4.3488,4.3488,4.3488,4.3488,4.3488,4.3469,4.3341,4.3084,4.2983,4.2598,4.1937,4.1837,4.1305,4.0865,4.0583,4.0624,4.0659,4.0904,4.1329,4.1575,4.1884,4.2085,4.2124,4.1566,4.1335,4.12,4.0839,4.055,4.0492,4.0492,4.0492,4.0492,4.0492,4.0492,4.0492,4.0492,4.0492,4.0492,4.0492,4.0492,4.0492,4.0492,4.0492,4.0512,4.0512,4.0569,4.0589,4.0589,4.0608,4.0646,4.0666,4.0896,4.1123,4.0877,4.0512,4.0492,4.0492,4.0569,4.0685,4.0535,4.0839,4.1247,4.2,4.2647,4.2795,4.3535,4.4258,4.4551,4.4805,4.5019,4.5215,4.5449,4.5547,4.5469,4.5703,4.6113,4.6191,4.6191,4.6191,4.6211,4.6269,4.6289,4.6289,4.6289,4.6289,4.6289,4.6289,4.6289,4.6289,4.6289,4.6289,4.6289,4.6289,4.6289,4.6289,4.6289,4.6289,4.6289,4.6289,4.6289,4.6289,4.6289,4.623,4.6133,4.6065,4.5994,4.5859,4.5704,4.5643,4.3488,4.3488,4.3488,4.3488,4.3488,4.3488,4.3488,4.3488,4.3488,4.3488,4.3488,4.3488,4.3488,4.3488,4.3451,4.3222,4.2745,4.258,4.2121,4.1775,4.1591,4.1653,4.1839,4.2032,4.2237,4.2747,4.2925,4.3008,4.2874,4.245,4.2258,4.1931,4.1354,4.0916,4.0492,4.0492,4.0492,4.0492,4.0492,4.0492,4.0492,4.0492,4.0492,4.0492,4.0492,4.0492,4.0627,4.0762,4.0781,4.0746,4.0746,4.0916,4.0916,4.0935,4.1031,4.1166,4.132,4.1585,4.1816,4.172,4.1281,4.1493,4.1454,4.1416,4.1223,4.0916,4.0896,4.2202,4.3255,4.4043,4.3931,4.4375,4.5,4.5273,4.5605,4.582,4.5879,4.6035,4.6094,4.6113,4.6289,4.6289,4.6289,4.6289,4.6289,4.6289,4.6289,4.6289,4.6289,4.6289,4.6289,4.6289,4.6289,4.6289,4.6289,4.6289,4.6289,4.6289,4.6289,4.6289,4.6289,4.6289,4.6289,4.6289,4.6289,4.6289,4.6289,4.6289,4.623,4.6113,4.6044,4.5941,4.5818,4.5639,4.5633,4.3488,4.3488,4.3488,4.3488,4.3488,4.3488,4.3488,4.3488,4.3488,4.3488,4.3496,4.3513,4.3505,4.3513,4.3521,4.3446,4.3341,4.3304,4.3008,4.2535,4.256,4.2478,4.253,4.2729,4.3213,4.3094,4.3393,4.3547,4.3335,4.3143,4.3085,4.2816,4.22,4.1316,4.0608,4.0492,4.0492,4.0492,4.0512,4.0646,4.0685,4.0781,4.0916,4.0935,4.0954,4.1031,4.1147,4.1527,4.1508,4.1204,4.1546,4.1739,4.1777,4.1773,4.2066,4.2662,4.2777,4.2912,4.3047,4.3028,4.2951,4.2681,4.2435,4.2566,4.2508,4.1897,4.1416,4.2964,4.446,4.509,4.5055,4.4941,4.5527,4.5879,4.6191,4.6289,4.6289,4.6289,4.6289,4.6289,4.6289,4.6289,4.6289,4.6289,4.6289,4.6289,4.6289,4.6289,4.6289,4.6289,4.6289,4.6289,4.6289,4.6289,4.6289,4.6289,4.6289,4.6289,4.6289,4.6289,4.6289,4.6289,4.6289,4.6289,4.6289,4.6289,4.6289,4.6289,4.6176,4.6067,4.5925,4.5822,4.5692,4.5612,4.5599,4.3488,4.3488,4.3488,4.3488,4.3488,4.3488,4.3488,4.3488,4.3488,4.3488,4.3556,4.3718,4.3695,4.3631,4.3726,4.3734,4.3556,4.3505,4.3252,4.3478,4.3539,4.3876,4.3946,4.4051,4.4345,4.4648,4.4744,4.4628,4.4825,4.4224,4.3917,4.3686,4.297,4.1873,4.0877,4.0492,4.0492,4.0627,4.0989,4.1393,4.1431,4.1839,4.2128,4.2108,4.2085,4.2066,4.2066,4.2466,4.2374,4.2108,4.2508,4.2624,4.2662,4.2658,4.2831,4.3124,4.3162,4.3397,4.3878,4.4186,4.4128,4.3624,4.3239,4.3278,4.297,4.2662,4.297,4.374,4.507,4.5563,4.5607,4.5739,4.6113,4.6133,4.6289,4.6289,4.6289,4.6289,4.6289,4.6289,4.6289,4.6289,4.6289,4.6289,4.6289,4.6289,4.6289,4.6289,4.6289,4.6289,4.6289,4.6289,4.6289,4.6289,4.6289,4.6289,4.6289,4.6289,4.6289,4.6289,4.6289,4.6289,4.6289,4.6289,4.6289,4.6289,4.6289,4.6248,4.6115,4.599,4.5883,4.5806,4.5719,4.5651,4.5599,4.3488,4.3488,4.3488,4.3488,4.3488,4.3488,4.3488,4.3488,4.3488,4.3488,4.3563,4.3833,4.3896,4.3836,4.4012,4.4143,4.3884,4.3891,4.3938,4.4219,4.4348,4.4575,4.4918,4.5222,4.5189,4.5573,4.5594,4.5537,4.5421,4.4994,4.4571,4.4182,4.3758,4.2816,4.1877,4.155,4.155,4.1724,4.2066,4.2258,4.2393,4.2662,4.2989,4.2989,4.2989,4.3008,4.3143,4.3297,4.3397,4.332,4.3359,4.3489,4.3528,4.3528,4.3662,4.384,4.4032,4.4301,4.4801,4.509,4.4859,4.4282,4.397,4.3951,4.3974,4.3993,4.4205,4.4828,4.5508,4.5741,4.5913,4.6172,4.6289,4.6289,4.6289,4.6289,4.6289,4.6289,4.6289,4.6289,4.6289,4.6289,4.6289,4.6289,4.6289,4.6289,4.6289,4.6289,4.6289,4.6289,4.6289,4.6289,4.6289,4.6289,4.6289,4.6289,4.6289,4.6289,4.6289,4.6289,4.6289,4.6289,4.6289,4.6289,4.6289,4.6289,4.6269,4.6224,4.6119,4.6018,4.5886,4.5807,4.5761,4.5684,4.5603,4.3488,4.3488,4.3488,4.3488,4.3488,4.3488,4.3496,4.3522,4.3531,4.3538,4.3589,4.3978,4.4095,4.4117,4.4421,4.4521,4.4462,4.448,4.454,4.4651,4.48,4.5041,4.5211,4.5419,4.5517,4.5577,4.5594,4.5594,4.5594,4.5421,4.5013,4.4628,4.4455,4.384,4.3359,4.3147,4.2989,4.2797,4.2931,4.3085,4.3201,4.3355,4.3605,4.3647,4.3624,4.3605,4.3758,4.4013,4.3912,4.3893,4.3974,4.4224,4.434,4.4335,4.4878,4.5263,4.5398,4.5398,4.5417,4.5556,4.5556,4.5128,4.5302,4.5479,4.5364,4.5133,4.5167,4.5299,4.5708,4.5793,4.5937,4.6113,4.6289,4.6289,4.6289,4.6289,4.6289,4.6289,4.6289,4.6289,4.6289,4.6289,4.6289,4.6289,4.6289,4.6289,4.6289,4.6289,4.6289,4.6289,4.6289,4.6289,4.6289,4.6289,4.6289,4.6289,4.6289,4.6289,4.6289,4.6289,4.6289,4.6289,4.6289,4.6289,4.6289,4.6289,4.6289,4.625,4.6177,4.6068,4.5948,4.581,4.5724,4.5661,4.5594,4.3488,4.3488,4.3488,4.3488,4.3488,4.3488,4.3647,4.3826,4.3857,4.3997,4.4301,4.4644,4.46,4.4487,4.4787,4.4775,4.4688,4.4625,4.4788,4.4925,4.5091,4.5253,4.541,4.5531,4.559,4.5594,4.5594,4.5594,4.5594,4.5594,4.5552,4.5282,4.5109,4.4917,4.484,4.484,4.4109,4.3643,4.3778,4.3912,4.4143,4.4397,4.4551,4.4648,4.4628,4.4628,4.4782,4.4917,4.4878,4.4975,4.5051,4.5205,4.5225,4.5225,4.5475,4.5518,4.5556,4.5575,4.5594,4.5594,4.5594,4.5594,4.5594,4.5594,4.5594,4.5594,4.5594,4.5658,4.5766,4.5862,4.5949,4.6113,4.625,4.6289,4.6289,4.6289,4.6289,4.6289,4.6289,4.6289,4.6289,4.6289,4.6289,4.6289,4.6289,4.6289,4.6289,4.6289,4.6289,4.6289,4.6289,4.6289,4.6289,4.6289,4.6289,4.6289,4.6289,4.6289,4.6289,4.6289,4.6289,4.6289,4.6289,4.6289,4.6289,4.6289,4.6289,4.625,4.6211,4.6145,4.6048,4.5855,4.5713,4.5661,4.5616,4.3488,4.3488,4.3488,4.3488,4.3488,4.3488,4.3685,4.3963,4.4016,4.4219,4.4612,4.4931,4.4977,4.4884,4.5118,4.5211,4.5063,4.5061,4.5156,4.5243,4.5268,4.5419,4.554,4.5594,4.5594,4.5594,4.5594,4.5594,4.5594,4.5594,4.5575,4.5552,4.5594,4.5594,4.5518,4.5364,4.5013,4.4628,4.4551,4.4744,4.5013,4.5282,4.5479,4.5594,4.5594,4.5594,4.5594,4.5594,4.5594,4.5594,4.5594,4.5594,4.5575,4.5575,4.5575,4.5594,4.5594,4.5594,4.5594,4.5594,4.5594,4.5594,4.5594,4.5594,4.5594,4.5594,4.5594,4.5632,4.5779,4.5916,4.6006,4.6094,4.6191,4.6289,4.6289,4.6289,4.6289,4.6289,4.6289,4.6289,4.6289,4.6289,4.6289,4.6289,4.6289,4.6289,4.6289,4.6289,4.6289,4.6289,4.6289,4.6289,4.6289,4.6289,4.6289,4.6289,4.6289,4.6289,4.6289,4.6289,4.6289,4.6289,4.6289,4.6289,4.6289,4.6289,4.6289,4.6289,4.6268,4.6195,4.6105,4.5953,4.582,4.574,4.5684,4.3488,4.3488,4.3488,4.3488,4.3488,4.3488,4.371,4.402,4.4099,4.4294,4.4676,4.5019,4.5156,4.5196,4.541,4.5517,4.5438,4.5438,4.5429,4.5605,4.5522,4.5573,4.5577,4.5594,4.5594,4.5594,4.5594,4.5594,4.5594,4.5594,4.5594,4.5594,4.5594,4.5594,4.5594,4.5594,4.5383,4.5282,4.5244,4.5379,4.5441,4.5575,4.5594,4.5594,4.5594,4.5594,4.5594,4.5594,4.5594,4.5594,4.5594,4.5594,4.5594,4.5594,4.5594,4.5594,4.5594,4.5594,4.5594,4.5594,4.5594,4.5594,4.5594,4.5594,4.5594,4.5594,4.5594,4.5621,4.5763,4.5874,4.5958,4.6133,4.6269,4.6289,4.6289,4.6289,4.6289,4.6289,4.6289,4.6289,4.6289,4.6289,4.6289,4.6289,4.6289,4.6289,4.6289,4.6289,4.6289,4.6289,4.6289,4.6289,4.6289,4.6289,4.6289,4.6289,4.6289,4.6289,4.6289,4.6289,4.6289,4.6289,4.6289,4.6289,4.6289,4.6289,4.6289,4.6289,4.6289,4.6221,4.6134,4.6036,4.5935,4.5832,4.573,4.3488,4.3488,4.3488,4.3488,4.3488,4.3488,4.386,4.4447,4.446,4.4644,4.4988,4.5288,4.5452,4.5481,4.5527,4.5594,4.5594,4.5594,4.5594,4.559,4.5594,4.5594,4.5594,4.5594,4.5594,4.5594,4.5594,4.5594,4.5594,4.5594,4.5594,4.5594,4.5594,4.5594,4.5594,4.5594,4.5594,4.5594,4.5594,4.5594,4.5594,4.5594,4.5594,4.5594,4.5594,4.5594,4.5594,4.5594,4.5594,4.5594,4.5594,4.5594,4.5594,4.5594,4.5594,4.5594,4.5594,4.5594,4.5594,4.5594,4.5594,4.5594,4.5594,4.5594,4.5594,4.5594,4.5622,4.565,4.5731,4.5844,4.5957,4.6152,4.6289,4.6289,4.6289,4.6289,4.6289,4.6289,4.6289,4.6289,4.6289,4.6289,4.6289,4.6289,4.6289,4.6289,4.6289,4.6289,4.6289,4.6289,4.6289,4.6289,4.6289,4.6289,4.6289,4.6289,4.6289,4.6289,4.6289,4.6289,4.6289,4.6289,4.6289,4.6289,4.6289,4.6289,4.6289,4.6289,4.6269,4.623,4.6199,4.6132,4.6029,4.5948,4.5793,4.3974,4.3958,4.378,4.3726,4.3693,4.3573,4.3831,4.4308,4.4502,4.48,4.5137,4.5429,4.5594,4.5594,4.5594,4.5594,4.5594,4.5594,4.5594,4.5594,4.5594,4.5594,4.5594,4.5594,4.5594,4.5594,4.5594,4.5594,4.5594,4.5594,4.5594,4.5594,4.5594,4.5594,4.5594,4.5594,4.5594,4.5594,4.5594,4.5594,4.5594,4.5594,4.5594,4.5594,4.5594,4.5594,4.5594,4.5594,4.5594,4.5594,4.5594,4.5594,4.5594,4.5594,4.5594,4.5594,4.5594,4.5594,4.5594,4.5594,4.5594,4.5594,4.5594,4.5594,4.5594,4.5594,4.5594,4.5638,4.5794,4.5894,4.5976,4.6133,4.625,4.6289,4.6289,4.6289,4.6289,4.6289,4.6289,4.6289,4.6289,4.6289,4.6289,4.6289,4.6289,4.6289,4.6289,4.6289,4.6289,4.6289,4.6289,4.6289,4.6289,4.6289,4.6289,4.6289,4.6289,4.6289,4.6289,4.6289,4.6289,4.6289,4.6289,4.6289,4.6289,4.6289,4.6289,4.6289,4.6289,4.6269,4.6269,4.6246,4.6145,4.6042,4.5909,4.4567,4.454,4.4219,4.4073,4.4024,4.371,4.382,4.419,4.448,4.4818,4.5182,4.549,4.5581,4.5594,4.5594,4.5594,4.5594,4.5594,4.5594,4.5594,4.5594,4.5594,4.5594,4.5594,4.5594,4.5594,4.5594,4.5594,4.5594,4.5594,4.5594,4.5594,4.5594,4.5594,4.5594,4.5594,4.5594,4.5594,4.5594,4.5594,4.5594,4.5594,4.5594,4.5594,4.5594,4.5594,4.5594,4.5594,4.5594,4.5594,4.5594,4.5594,4.5594,4.5594,4.5594,4.5594,4.5594,4.5594,4.5594,4.5594,4.5594,4.5594,4.5594,4.5594,4.5594,4.5594,4.5594,4.5665,4.5799,4.5907,4.5969,4.6074,4.6191,4.6289,4.6289,4.6289,4.6289,4.6289,4.6289,4.6289,4.6289,4.6289,4.6289,4.6289,4.6289,4.6289,4.6289,4.6289,4.6289,4.6289,4.6289,4.6289,4.6289,4.6289,4.6289,4.6289,4.6289,4.6289,4.6289,4.6289,4.6289,4.6289,4.6289,4.6289,4.6289,4.6289,4.6289,4.6289,4.6289,4.6289,4.6289,4.6269,4.6221,4.6115,4.6042,4.4593,4.4586,4.4514,4.4487,4.4426,4.4069,4.4301,4.4793,4.467,4.4931,4.5376,4.5527,4.5594,4.5594,4.5594,4.5594,4.5594,4.5594,4.5594,4.5594,4.5594,4.5594,4.5594,4.5594,4.5594,4.5594,4.5594,4.5594,4.5594,4.5594,4.5594,4.5594,4.5594,4.5594,4.5594,4.5594,4.5594,4.5594,4.5594,4.5594,4.5594,4.5594,4.5594,4.5594,4.5594,4.5594,4.5594,4.5594,4.5594,4.5594,4.5594,4.5594,4.5594,4.5594,4.5594,4.5594,4.5594,4.5594,4.5594,4.5594,4.5594,4.5594,4.5594,4.5594,4.5594,4.5594,4.5594,4.5594,4.5708,4.5779,4.5867,4.6032,4.6152,4.625,4.6289,4.6289,4.6289,4.6289,4.6289,4.6289,4.6289,4.6289,4.6289,4.6289,4.6289,4.6289,4.6289,4.6289,4.6289,4.6289,4.6289,4.6289,4.6289,4.6289,4.6289,4.6289,4.6289,4.6289,4.6289,4.6289,4.6289,4.6289,4.6289,4.6289,4.6289,4.6289,4.6289,4.6289,4.6289,4.6289,4.6289,4.6269,4.623,4.6198,4.612]}]]